[[{"header":{"parameterUnit":"m.s-1","parameterCategory":1,"la1":30.6,"la2":29.2853,"lo1":-89.7004,"lo2":-87.6739,"dx":0.0162,"dy":0.0183,"nx":112,"ny":82,"refTime":"2023-01-01T18:00:00:Z","depth":0,"parameterNumber":2,"parameterNumberName":"U-component_of_WINDS"},"data":[0.0,0.0,0.0,0.0,0.0,0.0,0.0,0.0,0.0,0.0,0.0,0.0,0.0,0.0,0.0,0.0,0.0,0.0,0.0,0.0,0.0,0.0,0.0,0.0,0.0,0.0,0.0,0.0,0.0,0.0,0.0,0.0,0.0,0.0,0.0,0.0,0.0,0.0,0.0,0.0,0.0,0.0,0.0,0.0,0.0,0.0,0.0,0.0,0.0,0.0,0.0,0.0,0.0,0.0,0.0,0.0,0.0,0.0,0.0,0.0,0.0,0.0,0.0,0.0,0.0,0.0,0.0,0.0,0.0,0.0,0.0,0.0,0.0,0.0,0.0,0.0,0.0,0.0,0.0,0.0,0.0,0.0,0.0,0.0,0.0,0.0,0.0,0.0,0.0,0.0,-1.987,-2.2048,-2.3409,-2.4194,-2.3981,-2.3583,-2.284,-2.1896,0.0,0.0,0.0,0.0,0.0,0.0,0.0,0.0,0.0,0.0,0.0,0.0,0.0,0.0,0.0,0.0,0.0,0.0,0.0,0.0,0.0,0.0,0.0,0.0,0.0,0.0,0.0,0.0,0.0,0.0,0.0,0.0,0.0,0.0,0.0,0.0,0.0,0.0,0.0,0.0,0.0,0.0,0.0,0.0,0.0,0.0,0.0,0.0,0.0,0.0,0.0,0.0,0.0,0.0,0.0,0.0,0.0,0.0,0.0,0.0,0.0,0.0,0.0,0.0,0.0,0.0,0.0,0.0,0.0,0.0,0.0,0.0,0.0,0.0,0.0,0.0,0.0,0.0,0.0,0.0,0.0,0.0,0.0,0.0,0.0,0.0,0.0,0.0,0.0,0.0,0.0,0.0,0.0,0.0,0.0,0.0,0.0,0.0,0.0,0.0,0.0,0.0,0.0,0.0,-2.0577,-2.3645,-2.4772,-2.5021,-2.4721,-2.4299,-2.3529,-2.2318,0.0,0.0,0.0,0.0,0.0,0.0,0.0,0.0,0.0,0.0,0.0,0.0,0.0,0.0,0.0,0.0,0.0,0.0,0.0,0.0,0.0,0.0,0.0,0.0,0.0,0.0,0.0,0.0,0.0,0.0,0.0,0.0,0.0,0.0,0.0,0.0,0.0,0.0,0.0,0.0,0.0,0.0,0.0,0.0,0.0,0.0,0.0,0.0,0.0,0.0,0.0,0.0,0.0,0.0,0.0,0.0,0.0,0.0,0.0,0.0,0.0,0.0,0.0,0.0,0.0,0.0,0.0,0.0,0.0,0.0,0.0,0.0,0.0,0.0,0.0,0.0,0.0,0.0,0.0,0.0,0.0,0.0,0.0,0.0,0.0,0.0,0.0,0.0,0.0,0.0,0.0,0.0,0.0,0.0,0.0,0.0,0.0,0.0,0.0,0.0,0.0,0.0,0.0,-1.9962,-2.2177,-2.4715,-2.5267,-2.5409,-2.5436,-2.4849,-2.406,-2.3052,-2.1534,0.0,0.0,0.0,0.0,0.0,0.0,0.0,0.0,0.0,0.0,0.0,0.0,0.0,0.0,0.0,0.0,0.0,0.0,0.0,0.0,0.0,0.0,0.0,0.0,0.0,0.0,0.0,0.0,0.0,0.0,0.0,0.0,0.0,0.0,0.0,0.0,0.0,0.0,0.0,0.0,0.0,0.0,0.0,0.0,0.0,0.0,0.0,0.0,0.0,0.0,0.0,0.0,0.0,0.0,0.0,0.0,0.0,0.0,0.0,0.0,0.0,0.0,0.0,0.0,0.0,0.0,0.0,0.0,0.0,0.0,0.0,0.0,0.0,0.0,0.0,0.0,0.0,0.0,0.0,0.0,0.0,0.0,0.0,0.0,0.0,0.0,0.0,0.0,0.0,0.0,0.0,0.0,0.0,0.0,0.0,0.0,0.0,0.0,0.0,0.0,0.0,0.0,-2.1427,-2.3289,-2.5112,-2.5523,-2.5756,-2.5968,-2.5326,-2.4537,-2.3602,-2.1836,0.0,0.0,0.0,0.0,0.0,0.0,0.0,0.0,0.0,0.0,0.0,0.0,0.0,0.0,0.0,0.0,0.0,0.0,0.0,0.0,0.0,0.0,0.0,0.0,0.0,0.0,0.0,0.0,0.0,0.0,0.0,0.0,0.0,0.0,0.0,0.0,0.0,0.0,0.0,0.0,0.0,0.0,0.0,0.0,0.0,0.0,0.0,0.0,0.0,0.0,0.0,0.0,0.0,0.0,0.0,0.0,0.0,0.0,0.0,0.0,0.0,0.0,0.0,0.0,0.0,0.0,0.0,0.0,0.0,0.0,0.0,0.0,0.0,0.0,0.0,0.0,0.0,0.0,0.0,0.0,0.0,0.0,0.0,0.0,0.0,0.0,0.0,0.0,0.0,0.0,0.0,0.0,0.0,0.0,0.0,0.0,0.0,0.0,0.0,0.0,0.0,0.0,-2.0945,-2.306,-2.4593,-2.5539,-2.6046,-2.5986,-2.5582,-2.4812,-2.362,-2.1836,0.0,0.0,0.0,0.0,0.0,0.0,0.0,0.0,0.0,0.0,0.0,0.0,0.0,0.0,0.0,0.0,0.0,0.0,0.0,0.0,0.0,0.0,0.0,0.0,0.0,0.0,0.0,0.0,0.0,0.0,0.0,0.0,0.0,0.0,0.0,0.0,0.0,0.0,0.0,0.0,0.0,0.0,0.0,0.0,0.0,0.0,0.0,0.0,0.0,0.0,0.0,0.0,0.0,0.0,0.0,0.0,0.0,0.0,0.0,0.0,0.0,0.0,0.0,0.0,0.0,0.0,0.0,0.0,0.0,0.0,0.0,0.0,0.0,0.0,0.0,0.0,0.0,0.0,0.0,0.0,0.0,0.0,0.0,0.0,0.0,0.0,0.0,0.0,0.0,0.0,0.0,0.0,0.0,0.0,0.0,0.0,0.0,0.0,0.0,0.0,0.0,0.0,-2.1302,-2.3302,-2.5494,-2.6287,-2.6691,-2.7105,-2.6261,-2.5326,-2.4372,0.0,0.0,0.0,0.0,0.0,0.0,0.0,0.0,0.0,0.0,0.0,0.0,0.0,0.0,0.0,0.0,0.0,0.0,0.0,0.0,0.0,0.0,0.0,0.0,0.0,0.0,0.0,0.0,0.0,0.0,0.0,0.0,0.0,0.0,0.0,0.0,0.0,0.0,0.0,0.0,0.0,0.0,0.0,0.0,0.0,0.0,0.0,0.0,0.0,0.0,0.0,0.0,0.0,0.0,0.0,0.0,0.0,0.0,0.0,0.0,0.0,0.0,0.0,0.0,0.0,0.0,0.0,0.0,0.0,0.0,0.0,0.0,0.0,0.0,0.0,0.0,0.0,0.0,0.0,0.0,0.0,0.0,0.0,0.0,0.0,0.0,0.0,0.0,0.0,0.0,0.0,0.0,0.0,0.0,0.0,0.0,0.0,0.0,0.0,0.0,0.0,0.0,-1.9411,-2.1466,-2.3409,-2.5752,-2.6575,-2.7097,-2.7651,-2.6664,-2.5619,-2.4831,0.0,0.0,0.0,0.0,0.0,0.0,0.0,0.0,0.0,0.0,0.0,0.0,0.0,0.0,0.0,0.0,0.0,0.0,0.0,0.0,0.0,0.0,0.0,0.0,0.0,0.0,0.0,0.0,0.0,0.0,0.0,0.0,0.0,0.0,0.0,0.0,0.0,0.0,0.0,0.0,0.0,0.0,0.0,0.0,0.0,0.0,0.0,0.0,0.0,0.0,0.0,0.0,0.0,0.0,0.0,0.0,0.0,0.0,0.0,0.0,0.0,0.0,0.0,0.0,0.0,0.0,0.0,0.0,0.0,0.0,0.0,0.0,0.0,0.0,0.0,0.0,0.0,0.0,0.0,0.0,0.0,0.0,0.0,0.0,0.0,0.0,0.0,0.0,0.0,0.0,0.0,0.0,0.0,0.0,0.0,0.0,0.0,0.0,0.0,0.0,0.0,0.0,-1.8994,-2.129,-2.3326,-2.5227,-2.629,-2.6982,-2.7344,-2.6555,-2.5637,0.0,0.0,0.0,0.0,0.0,0.0,0.0,0.0,0.0,0.0,0.0,0.0,0.0,0.0,0.0,0.0,0.0,0.0,0.0,0.0,0.0,0.0,0.0,0.0,0.0,0.0,0.0,0.0,0.0,0.0,0.0,0.0,0.0,0.0,0.0,0.0,0.0,0.0,0.0,0.0,0.0,0.0,0.0,0.0,0.0,0.0,0.0,0.0,0.0,0.0,0.0,0.0,0.0,0.0,0.0,0.0,0.0,0.0,0.0,0.0,0.0,0.0,0.0,0.0,0.0,0.0,0.0,0.0,0.0,0.0,0.0,0.0,0.0,0.0,0.0,0.0,0.0,0.0,0.0,0.0,0.0,0.0,0.0,0.0,0.0,0.0,0.0,0.0,0.0,0.0,0.0,0.0,0.0,0.0,0.0,0.0,0.0,0.0,0.0,0.0,0.0,0.0,0.0,-1.9876,-2.2087,-2.4089,-2.5999,-2.7033,-2.7801,-2.8174,-2.73,-2.6463,-2.5656,0.0,0.0,0.0,0.0,0.0,0.0,0.0,0.0,0.0,0.0,0.0,0.0,0.0,0.0,0.0,0.0,0.0,0.0,0.0,0.0,0.0,0.0,0.0,0.0,0.0,0.0,0.0,0.0,0.0,0.0,0.0,0.0,0.0,0.0,0.0,0.0,0.0,0.0,0.0,0.0,0.0,0.0,0.0,0.0,0.0,0.0,0.0,0.0,0.0,0.0,0.0,0.0,0.0,0.0,0.0,0.0,0.0,0.0,0.0,0.0,0.0,0.0,0.0,0.0,0.0,0.0,0.0,0.0,0.0,0.0,0.0,0.0,0.0,0.0,0.0,0.0,0.0,0.0,0.0,0.0,0.0,0.0,0.0,0.0,0.0,0.0,0.0,0.0,0.0,0.0,0.0,0.0,0.0,0.0,0.0,0.0,0.0,0.0,0.0,0.0,0.0,0.0,-2.0231,-2.2419,-2.4315,-2.6133,-2.7399,-2.802,-2.8277,-2.7791,-2.7068,-2.6261,0.0,0.0,0.0,0.0,0.0,0.0,0.0,0.0,0.0,0.0,0.0,0.0,0.0,0.0,0.0,0.0,0.0,0.0,0.0,0.0,0.0,0.0,0.0,0.0,0.0,0.0,0.0,0.0,0.0,0.0,0.0,0.0,0.0,0.0,0.0,0.0,0.0,0.0,0.0,0.0,0.0,0.0,0.0,0.0,0.0,0.0,0.0,0.0,0.0,0.0,0.0,0.0,0.0,0.0,0.0,0.0,0.0,0.0,0.0,0.0,0.0,0.0,0.0,0.0,0.0,0.0,0.0,0.0,0.0,0.0,0.0,0.0,0.0,0.0,0.0,0.0,0.0,0.0,0.0,0.0,0.0,0.0,0.0,0.0,0.0,0.0,0.0,0.0,0.0,0.0,0.0,0.0,0.0,0.0,0.0,0.0,0.0,0.0,0.0,0.0,0.0,0.0,-2.0332,-2.2448,-2.4258,-2.605,-2.728,-2.8006,-2.8126,-2.802,-2.76,-2.6811,0.0,0.0,0.0,0.0,0.0,0.0,0.0,0.0,0.0,0.0,0.0,0.0,0.0,0.0,0.0,0.0,0.0,0.0,0.0,0.0,0.0,0.0,0.0,0.0,0.0,0.0,0.0,0.0,0.0,0.0,0.0,0.0,0.0,0.0,0.0,0.0,0.0,0.0,0.0,0.0,0.0,0.0,0.0,0.0,0.0,0.0,0.0,0.0,0.0,0.0,0.0,0.0,0.0,0.0,0.0,0.0,0.0,0.0,0.0,0.0,-0.74,0.0,0.0,0.0,0.0,0.0,0.0,0.0,0.0,0.0,0.0,0.0,0.0,0.0,0.0,0.0,0.0,0.0,0.0,0.0,0.0,0.0,0.0,0.0,0.0,0.0,0.0,0.0,0.0,0.0,0.0,0.0,0.0,0.0,0.0,0.0,0.0,0.0,0.0,0.0,0.0,0.0,-2.1143,-2.3076,-2.477,-2.6701,-2.7696,-2.8321,-2.8942,-2.8882,-2.861,-2.8058,-2.6316,0.0,0.0,0.0,0.0,0.0,0.0,0.0,0.0,0.0,0.0,0.0,0.0,0.0,0.0,0.0,0.0,0.0,0.0,0.0,0.0,0.0,0.0,0.0,0.0,0.0,0.0,0.0,0.0,0.0,0.0,0.0,0.0,0.0,0.0,0.0,0.0,0.0,0.0,0.0,0.0,0.0,0.0,0.0,0.0,0.0,0.0,0.0,0.0,0.0,0.0,0.0,0.0,0.0,0.0,0.0,0.0,0.0,0.0,0.0,0.0,-0.7896,0.0,0.0,0.0,0.0,0.0,0.0,0.0,0.0,0.0,0.0,0.0,0.0,0.0,0.0,0.0,0.0,0.0,0.0,0.0,0.0,0.0,0.0,0.0,0.0,0.0,0.0,0.0,0.0,0.0,0.0,0.0,0.0,0.0,0.0,0.0,0.0,0.0,0.0,0.0,0.0,-2.1151,-2.3242,-2.5043,-2.6693,-2.7664,-2.842,-2.919,-2.9367,-2.9234,-2.8993,-2.7801,0.0,0.0,0.0,0.0,0.0,0.0,0.0,0.0,0.0,0.0,0.0,0.0,0.0,0.0,0.0,0.0,0.0,0.0,0.0,0.0,0.0,0.0,0.0,0.0,0.0,0.0,0.0,0.0,0.0,0.0,0.0,0.0,0.0,0.0,0.0,0.0,0.0,0.0,0.0,0.0,0.0,0.0,0.0,0.0,0.0,0.0,0.0,0.0,0.0,0.0,0.0,0.0,0.0,-0.832,-0.8964,-0.9462,-0.9737,-0.9806,-0.9891,-0.9279,-0.8897,-0.8689,-0.8369,0.0,0.0,0.0,0.0,0.0,0.0,0.0,0.0,0.0,0.0,0.0,0.0,0.0,0.0,0.0,0.0,0.0,0.0,0.0,0.0,0.0,0.0,0.0,0.0,-1.7406,-1.6887,-1.5113,0.0,0.0,0.0,0.0,0.0,0.0,0.0,0.0,0.0,0.0,0.0,-2.1161,-2.3278,-2.5046,-2.6504,-2.7466,-2.8374,-2.9151,-2.9637,-2.985,-2.9696,-2.9104,-2.8205,0.0,0.0,0.0,0.0,0.0,0.0,0.0,0.0,0.0,0.0,0.0,0.0,0.0,0.0,0.0,0.0,0.0,0.0,0.0,0.0,0.0,0.0,0.0,0.0,0.0,0.0,0.0,0.0,0.0,0.0,0.0,0.0,0.2957,0.2476,0.0,0.0,0.0,0.0,0.0,0.0,0.0,0.0,0.0,0.0,0.0,0.0,0.0,-0.5593,-0.6009,-0.7011,-0.7897,-0.866,-0.8915,-0.9361,-0.9768,-1.0292,-1.0609,-1.0979,-1.1256,0.0,-1.0323,-1.0331,0.0,0.0,0.0,0.0,0.0,0.0,0.0,0.0,0.0,0.0,0.0,0.0,0.0,0.0,0.0,0.0,0.0,0.0,0.0,0.0,0.0,0.0,-1.7853,-1.8625,-1.8638,-1.8396,0.0,-1.6923,-1.5692,-1.4932,-1.496,0.0,0.0,0.0,0.0,0.0,0.0,0.0,-2.1765,-2.3247,-2.4855,-2.6433,-2.7306,-2.8229,-2.9162,-2.9942,-3.0316,-3.0158,-3.0098,-2.958,-2.87,-2.7453,0.0,0.0,0.0,0.0,0.0,0.0,0.0,0.0,0.0,0.0,0.0,0.0,0.0,0.0,0.0,0.0,0.0,0.0,0.0,0.0,0.0,0.0,0.0,0.0,0.0,0.0,0.0,0.0,0.0,0.2932,0.2529,0.2619,0.1651,0.0341,0.0,0.0,0.0,0.0,0.0,0.0,0.0,0.0,0.0,-0.5606,-0.6559,-0.7153,-0.7434,-0.8391,-0.8958,-0.9481,-0.9725,-1.0181,-1.0579,-1.1041,-1.1585,-1.209,-1.2685,-1.3088,-1.3314,-1.2107,-1.1842,-1.2019,0.0,0.0,0.0,0.0,-1.3449,-1.4646,-1.5333,-1.5704,0.0,-1.6264,0.0,0.0,0.0,0.0,0.0,0.0,0.0,0.0,0.0,0.0,-1.9567,-2.0074,-2.0098,-2.0014,-2.0014,-1.935,-1.8336,0.0,-1.6758,-1.663,-1.6112,0.0,0.0,0.0,0.0,-2.0323,-2.1936,-2.3436,-2.479,-2.592,-2.7225,-2.8426,-2.9226,-3.0362,-3.1078,-3.1294,-3.1374,-3.1286,-3.0699,-2.9525,-2.8315,0.0,0.0,0.0,0.0,0.0,0.0,0.0,0.0,0.0,0.0,0.0,0.0,0.0,0.0,0.0,0.0,0.0,0.0,0.0,0.0,0.0,0.0,0.0,0.0,0.0,0.0,0.0,0.0,0.2497,0.2261,0.2169,0.0284,-0.1592,0.0,0.0,0.0,0.0,0.0,0.0,-0.5252,-0.6004,-0.6473,-0.6804,-0.7943,-0.8658,-0.8877,-0.9519,-0.9954,-1.0163,-1.0588,-1.1066,-1.157,-1.2147,-1.2829,-1.3742,-1.428,-1.5205,-1.6065,-1.4107,-1.3667,-1.4217,-1.381,-1.4039,-1.4549,-1.4844,-1.5601,-1.6596,-1.728,-1.7804,-1.8036,-1.8371,-1.7781,-1.6785,-1.6357,0.0,0.0,0.0,0.0,-1.8819,-1.935,-2.0122,-2.0834,-2.11,-2.1221,-2.1269,-2.1269,-2.116,-2.0545,0.0,-1.8372,-1.8269,-1.797,0.0,0.0,0.0,0.0,-2.1121,-2.225,-2.3666,-2.4752,-2.5378,-2.6997,-2.8261,-2.8923,-3.0393,-3.1531,-3.1783,-3.232,-3.2459,-3.2166,-3.1194,-3.0185,-2.9177,0.0,0.0,0.0,0.0,0.0,0.0,0.0,0.0,0.0,0.0,0.0,0.0,0.0,0.0,0.0,0.0,0.0,0.0,0.0,0.0,0.0,0.0,0.0,0.0,0.0,0.0,0.0,0.0,0.0,0.02,-0.2012,0.0,0.0,0.0,0.0,-0.5156,-0.523,-0.5635,-0.6397,-0.7454,-0.8127,-0.8623,-0.9398,-0.9935,-0.9942,-1.0346,-1.0697,-1.0711,-1.1263,-1.1873,-1.2546,-1.3526,-1.4683,-1.604,-1.6446,-1.713,-1.8017,-1.624,-1.596,-1.6571,-1.6436,-1.6462,-1.6865,-1.711,-1.7736,-1.8547,-1.9052,-1.9405,-1.9663,-2.006,-1.9504,-1.876,-1.8496,-1.8489,0.0,0.0,-1.9292,-1.9929,-2.0448,-2.081,-2.1112,-2.139,-2.1643,-2.1824,-2.1824,-2.2017,-2.1704,0.0,-1.9817,-1.9621,-1.9183,0.0,-1.9942,-2.0909,-2.1496,-2.2205,-2.3126,-2.3923,-2.441,-2.482,-2.6239,-2.7509,-2.8201,-3.0003,-3.1108,-3.1531,-3.2204,-3.2588,-3.257,-3.2148,-3.1708,-3.1231,-2.9635,0.0,0.0,0.0,0.0,0.0,0.0,0.0,0.0,0.0,0.0,0.0,0.0,0.0,0.0,0.0,0.0,0.0,0.0,0.0,0.0,0.0,0.0,0.0,0.0,0.0,0.0,0.0,0.0,-0.349,-0.3515,0.0,-0.5052,-0.4664,-0.4848,-0.5877,-0.6532,-0.704,-0.749,-0.8717,-0.9385,-0.9563,-1.0234,-1.0518,-1.0518,-1.1063,-1.141,-1.1682,-1.2422,-1.3126,-1.3806,-1.4955,-1.5943,-1.6891,-1.7432,-1.825,-1.891,-1.837,-1.8125,-1.8125,-1.8035,-1.8001,-1.8177,-1.8585,-1.9206,-1.9628,-2.0145,-2.0533,-2.0922,-2.0722,-2.0474,-2.0134,-1.9611,-1.9599,-1.9851,-2.0121,-2.0781,-2.1498,-2.1848,-2.2138,-2.2355,-2.2464,-2.2561,-2.2621,-2.2621,-2.2838,-2.2754,-2.1848,-2.1591,-2.1418,-2.1356,-2.1546,-2.1897,-2.2377,-2.2712,-2.3033,-2.3541,-2.3985,-2.4337,-2.4465,-2.6193,-2.7584,-2.8131,-3.0176,-3.1583,-3.1843,-3.2552,-3.312,-3.312,-3.26,-3.2441,-3.257,-3.0974,-2.9756,0.0,0.0,0.0,0.0,0.0,0.0,0.0,0.0,0.0,0.0,0.0,0.0,0.0,0.0,0.0,0.0,0.0,0.0,0.0,0.0,0.0,0.0,0.0,0.0,0.0,-0.098,-0.2928,-0.4801,-0.4514,-0.4582,-0.5684,-0.563,-0.5952,-0.7059,-0.7702,-0.8314,-0.8742,-0.9732,-1.0254,-1.0254,-1.0752,-1.1023,-1.1159,-1.166,-1.2123,-1.2674,-1.3554,-1.4405,-1.5366,-1.6402,-1.7254,-1.8222,-1.8642,-1.9368,-1.9995,-1.9995,-1.9918,-1.9702,-1.9434,-1.9446,-1.9632,-1.997,-2.0298,-2.0733,-2.1162,-2.151,-2.1752,-2.1543,-2.1567,-2.1396,-2.1179,-2.1143,-2.1471,-2.165,-2.2097,-2.2561,-2.2742,-2.2983,-2.3176,-2.3176,-2.3321,-2.3442,-2.3442,-2.3659,-2.3744,-2.3381,-2.2894,-2.2744,-2.2822,-2.2883,-2.3223,-2.3758,-2.3915,-2.4022,-2.4315,-2.4501,-2.4607,-2.4512,-2.6402,-2.7772,-2.8079,-3.0135,-3.1559,-3.2105,-3.2948,-3.3405,-3.3278,-3.3294,-3.3266,-3.3413,-3.1829,-3.0681,-2.9758,0.0,0.0,0.0,0.0,0.0,0.0,0.0,0.0,0.0,0.0,0.0,0.0,0.0,0.0,0.0,0.0,0.0,0.0,0.0,0.0,0.0,0.0,0.0,-0.0394,-0.3572,-0.5262,-0.3635,-0.5018,-0.5985,-0.5788,-0.6311,-0.7272,-0.8394,-0.8813,-0.9395,-1.0193,-1.0604,-1.0955,-1.0955,-1.1097,-1.1448,-1.1724,-1.2138,-1.2689,-1.3505,-1.451,-1.5709,-1.7241,-1.7757,-1.8714,-2.0121,-2.0133,-2.0554,-2.1076,-2.1076,-2.1233,-2.1402,-2.0617,-2.0629,-2.1076,-2.1076,-2.1269,-2.1547,-2.18,-2.2066,-2.2331,-2.2585,-2.2669,-2.2705,-2.2959,-2.3043,-2.3043,-2.3056,-2.3068,-2.3068,-2.308,-2.3285,-2.349,-2.349,-2.3876,-2.4251,-2.4251,-2.4456,-2.4637,-2.4625,-2.3804,-2.3243,-2.3454,-2.3502,-2.389,-2.4913,-2.5104,0.0,-2.5478,-2.5518,-2.5411,-2.5117,-2.656,-2.76,-2.8145,-2.9855,-3.1294,-3.1965,-3.3198,-3.3675,-3.3296,-3.4043,-3.4202,-3.3817,-3.2384,-3.1034,-3.001,0.0,0.0,0.0,0.0,0.0,0.0,0.0,0.0,0.0,0.0,0.0,0.0,0.0,0.0,0.0,0.0,0.0,0.0,0.0,0.0,0.0,0.062,-0.0547,-0.096,-0.279,-0.4451,-0.5335,-0.5679,-0.6173,-0.7255,-0.7408,-0.7982,-0.8921,-0.9419,-0.9893,-1.0335,-1.0886,-1.1104,-1.1104,-1.1532,-1.1888,-1.2308,-1.3404,-1.4446,-1.5429,-1.6467,-1.7477,-1.8465,-1.9419,-1.9956,-2.0403,-2.0888,-2.115,-2.1366,-2.1366,-2.1414,-2.1462,-2.1233,-2.1233,-2.139,-2.1583,-2.1933,-2.2343,-2.2416,-2.2609,-2.2838,-2.2911,-2.2935,-2.2947,-2.3019,-2.3043,-2.308,-2.3285,-2.3478,-2.3671,-2.3852,-2.4106,-2.4299,-2.4299,-2.442,-2.4516,-2.4516,-2.4733,-2.4866,-2.4661,-2.4882,-2.4963,-2.4907,-2.4799,-2.4933,-2.5577,-2.5531,0.0,-2.5504,-2.5518,-2.563,-2.5867,-2.7187,-2.8386,-2.8804,-3.0388,-3.1582,-3.1718,-3.2773,-3.3251,-3.2859,-3.3508,-3.3751,-3.3273,-3.2999,-3.2999,0.0,0.0,0.0,0.0,0.0,0.0,0.0,0.0,0.0,0.0,0.0,0.0,0.0,0.0,0.0,0.0,0.0,0.0,0.0,0.0,0.0,0.0,0.0558,-0.0821,-0.235,-0.3589,-0.478,-0.5938,-0.6383,-0.6988,-0.7939,-0.8132,-0.859,-0.9326,-0.9727,-1.021,-1.0756,-1.1034,-1.126,-1.126,-1.1832,-1.2335,-1.2902,-1.4206,-1.5444,-1.6586,-1.7816,-1.8866,-1.9577,-2.0295,-2.0805,-2.0959,-2.1258,-2.1547,-2.1643,-2.1643,-2.1704,0.0,0.0,0.0,0.0,0.0,-2.2549,-2.2814,-2.2814,-2.2911,-2.3056,-2.3176,-2.3285,-2.3393,-2.3514,-2.3623,-2.3744,-2.39,-2.4057,-2.4202,-2.4359,-2.4601,-2.4806,-2.4806,-2.489,-2.4963,-2.4963,-2.5096,-2.5156,-2.4999,-2.542,0.0,-2.5956,-2.5903,-2.5892,-2.6533,-2.6253,-2.6066,-2.6066,-2.6114,-2.6303,-2.6474,-2.7958,-2.9183,-2.9602,-3.1201,0.0,0.0,0.0,-3.3965,-3.3875,-3.4121,0.0,0.0,0.0,0.0,0.0,0.0,0.0,0.0,-3.2375,-3.4375,0.0,0.0,0.0,0.0,0.0,0.0,0.0,0.0,0.0,0.0,0.0,0.0,0.0,0.0,0.0,0.0,0.0472,-0.1236,-0.3986,-0.4989,-0.5638,-0.6035,-0.7107,-0.7949,-0.82,-0.8574,-0.9047,-0.9739,-1.0003,-1.036,-1.1185,0.0,0.0,0.0,0.0,-1.2647,-1.3356,-1.483,-1.6094,-1.725,-1.8601,-1.9715,-2.0451,-2.0764,-2.1221,-2.1523,-2.1559,-2.1704,-2.1921,-2.1945,-2.2114,-2.2295,-2.18,-2.1909,-2.2404,-2.2874,-2.3056,-2.3092,-2.3092,0.0,0.0,-2.3466,-2.3719,-2.3973,-2.4214,-2.4444,-2.4625,-2.4625,-2.4649,-2.4673,-2.4673,-2.4878,-2.5096,-2.5096,-2.5264,-2.5433,-2.5433,-2.5433,-2.5433,-2.5433,-2.5933,-2.6273,-2.6796,-2.6684,-2.6816,-2.7308,-2.7068,-2.6867,-2.6827,-2.7078,-2.7264,-2.741,0.0,0.0,-3.0559,-3.2007,-3.3016,-3.3419,-3.4484,-3.5138,-3.5614,-3.5247,-3.4885,-3.4573,-3.519,-3.5682,-3.6381,-3.6509,-3.6791,-3.7184,-3.8224,-3.8546,0.0,0.0,0.0,0.0,0.0,0.0,0.0,0.0,0.0,0.0,0.0,0.0,0.0,0.0,0.0,0.1659,0.0125,-0.1689,-0.3932,-0.5017,-0.5694,-0.6579,-0.7568,-0.8205,-0.859,-0.8758,-0.9086,-0.9596,-1.001,-1.0505,-1.0927,-1.1348,-1.1572,-1.1572,-1.2438,-1.3099,-1.3543,-1.5173,-1.658,-1.7749,0.0,0.0,-2.074,-2.14,-2.1788,-2.18,-2.2017,-2.2138,-2.2198,-2.2416,-2.2657,-2.2862,-2.2549,-2.2621,-2.2899,-2.3007,-2.3176,-2.3369,-2.3369,-2.3647,-2.4009,-2.4069,-2.4263,-2.448,-2.454,-2.4589,0.0,-2.4625,-2.4794,-2.4963,-2.4963,-2.5168,-2.5361,-2.5361,-2.5397,-2.5433,-2.5433,-2.5433,-2.5433,-2.5933,-2.6273,-2.6796,-2.7304,-2.7187,-2.7118,-2.7615,-2.7362,-2.7257,-2.735,-2.788,-2.8504,-2.8968,-3.0776,-3.2005,-3.211,-3.3431,-3.4045,-3.3872,-3.436,-3.483,-3.5595,-3.5247,-3.4994,-3.4949,-3.5317,-3.6075,-3.7102,-3.7584,-3.8199,-3.9353,-3.8889,-3.9406,0.0,0.0,0.0,0.0,0.0,0.0,0.0,0.0,0.0,0.0,0.0,0.161,0.1765,0.0,0.1947,0.0995,-0.0258,-0.1849,-0.3991,-0.4983,-0.5942,-0.7057,-0.7937,-0.8569,-0.8764,-0.8883,-0.9115,-0.9596,-1.0143,-1.0506,-1.0934,-1.1292,-1.1653,-1.1721,-1.2379,-1.3044,-1.3714,-1.5214,-1.6647,-1.7832,-1.9276,-2.0376,-2.099,-2.1841,-2.2259,-2.2283,-2.2536,-2.2657,-2.2657,-2.279,-2.308,-2.343,-2.3297,-2.3333,-2.3466,-2.3587,-2.3804,-2.4045,-2.4045,-2.4214,-2.4432,-2.4432,-2.4613,-2.4842,-2.4842,-2.4927,-2.5035,-2.5035,-2.5132,-2.524,-2.524,-2.5337,-2.5433,-2.5433,-2.5433,-2.5433,-2.5433,-2.5604,-2.5763,-2.6103,-2.6613,-2.7356,-2.7669,-2.7748,-2.7772,-2.7949,-2.7848,-2.7935,-2.826,-2.8919,-2.9769,-3.0545,-3.2058,-3.3112,-3.3528,-3.4425,-3.5097,-3.5028,-3.5175,-3.5485,-3.5849,-3.5685,-3.5754,-3.6138,-3.6515,-3.7312,-3.8522,-3.8845,-3.9569,-4.0802,-4.0774,-4.1354,0.0,0.0,0.0,0.0,0.0,0.0,0.0,0.1915,0.1603,0.1213,0.0914,0.0709,0.1212,0.1236,0.1009,0.0129,-0.0656,-0.1862,-0.4044,-0.5043,-0.6153,-0.7458,-0.834,-0.8812,-0.884,-0.9019,-0.9286,-0.9592,-1.0108,-1.0599,-1.0894,-1.1332,-1.1687,-1.1823,-1.2304,-1.2831,-1.3737,-1.511,-1.6437,-1.7689,-1.951,-2.0698,-2.122,-2.2329,-2.273,-2.2742,-2.2947,-2.308,-2.3128,-2.3176,-2.3478,-2.3925,-2.3973,-2.4033,-2.4094,-2.4251,-2.4444,-2.4625,-2.4625,-2.4661,-2.4709,-2.4709,-2.489,-2.512,-2.512,-2.5277,-2.5433,-2.5433,-2.5433,-2.5433,-2.5433,-2.5433,-2.5433,-2.5433,-2.5433,-2.5458,-2.5677,-2.5848,-2.6202,-2.6423,-2.7119,-2.7722,-2.8128,-2.8512,-2.8591,-2.8283,-2.8379,-2.8675,-2.9198,-3.0027,-3.1101,-3.2296,-3.3276,-3.4177,-3.4935,-3.5539,-3.614,-3.6439,-3.6439,-3.6417,-3.637,-3.6388,-3.6543,-3.7228,-3.7409,-3.8134,-3.931,-3.9726,-4.0646,-4.1927,-4.2778,-4.3239,0.8627,0.6306,0.4109,0.3349,0.287,0.2463,0.0,0.1423,0.08,0.0815,0.0485,0.0125,0.0126,0.0129,0.0131,-0.0,-0.0665,-0.1888,-0.4237,-0.5208,-0.6195,-0.765,-0.8367,-0.8976,-0.9084,-0.9117,-0.9177,-0.9275,-1.0017,-1.0455,-1.0599,-1.1181,-1.1687,-1.1823,-1.2409,-1.3006,-1.3461,-1.4999,-1.641,-1.7817,-1.9367,-2.0726,-2.1722,-2.2674,-2.2995,-2.2995,-2.3031,-2.3176,-2.343,-2.3659,-2.3925,-2.4214,-2.4444,-2.4685,-2.4878,-2.4661,-2.4601,-2.4625,-2.4625,-2.4794,-2.4999,-2.4999,-2.518,-2.5397,-2.5397,-2.5409,-2.5433,-2.5433,-2.5433,-2.5433,-2.5433,-2.5433,-2.5433,-2.5433,-2.5433,-2.5677,-2.6265,-2.6487,-2.6908,-2.7843,-2.8243,-2.843,-2.8804,-2.8991,-2.8898,-2.8604,-2.8866,-2.9481,-3.0079,-3.1548,-3.2986,-3.3959,-3.5452,-3.6515,-3.6976,-3.7129,-3.7283,-3.7283,-3.7283,-3.7129,-3.6958,-3.6859,-3.6558,-3.6393,-3.6709,-3.7467,-3.864,-3.9569,-4.0802,-4.239,-4.3546,-4.3987,0.8292,0.6406,0.4621,0.36,0.3007,0.2584,0.2058,0.1668,0.1236,0.0502,0.0129,-0.0,-0.0,-0.0,-0.0,-0.0,-0.0683,-0.1934,-0.4303,-0.5308,-0.6329,-0.7781,-0.8749,-0.9231,-0.9144,-0.9258,-0.9356,-0.9405,-1.0211,-1.0657,-1.0578,-1.1384,-1.1904,-1.1965,-1.2265,-1.287,-1.3632,-1.4887,-1.6251,-1.7883,-1.9564,-2.0924,-2.1802,-2.29,-2.3369,-2.3502,-2.3502,-2.3659,-2.3913,-2.4021,-2.4323,-2.4721,-2.483,-2.5035,-2.524,-2.4975,-2.4963,-2.5096,-2.5096,-2.518,-2.5277,-2.5277,-2.5349,-2.5433,-2.5433,-2.5433,-2.547,-2.5627,-2.5663,-2.5699,-2.5856,-2.5892,-2.5892,-2.5892,-2.5892,-2.6102,-2.6748,-2.6935,-2.7495,-2.8308,-2.8509,-2.8911,-2.9272,-2.9299,-2.9434,-2.9474,-2.9852,-3.0368,-3.1101,-3.2686,-3.4233,-3.5591,-3.6641,-3.7276,-3.7429,-3.7429,-3.7429,-3.7429,-3.7429,-3.733,-3.7185,-3.7084,-3.6742,-3.6166,-3.7224,-3.8486,-3.9767,-4.1125,-4.2506,-4.3915,-4.4899,-4.5363,0.7868,0.6378,0.4962,0.3661,0.3016,0.2667,0.2084,0.1898,0.1691,0.0657,0.0133,-0.0,-0.0,-0.0,-0.0,-0.0,-0.0695,-0.1968,-0.4387,-0.5421,-0.6471,-0.7968,-0.8993,-0.947,-0.9302,-0.9438,-0.9536,-0.9536,-1.0328,-1.0779,-1.0718,-1.1514,-1.204,-1.2121,-1.223,-1.2685,-1.3656,-1.4711,-1.6068,-1.7742,-1.9625,-2.1155,-2.2019,-2.2993,-2.3671,-2.3852,-2.3925,-2.4057,-2.4251,-2.4395,-2.4685,-2.5047,-2.512,-2.5277,-2.5409,-2.5228,-2.5277,-2.5433,-2.5433,-2.5433,-2.5433,-2.5433,-2.5433,-2.5446,-2.5518,-2.5542,-2.5602,-2.5856,-2.594,-2.5977,-2.617,-2.6218,-2.6218,-2.6218,-2.6394,-2.6594,-2.7209,-2.7574,-2.8114,-2.8732,-2.911,-2.9352,-2.9566,-2.9783,-2.9947,-3.0641,-3.1065,-3.1704,-3.2279,-3.4161,-3.5983,-3.7337,-3.7769,-3.7888,-3.7778,-3.7759,-3.7604,-3.7604,-3.7604,-3.7576,-3.7674,-3.7309,-3.6958,-3.6797,-3.8132,-3.9553,-4.0979,-4.2425,-4.4015,-4.5409,-4.6202,-4.6755,0.7466,0.6197,0.4814,0.3671,0.302,0.2573,0.2189,0.2084,0.1976,0.1449,0.0666,-0.0,-0.0,-0.0,-0.0,-0.0,-0.0695,-0.2123,-0.4498,-0.5528,-0.6605,-0.8272,-0.9205,-0.9661,-0.9655,-0.9661,-0.9666,-0.9666,-1.0293,-1.0724,-1.0853,-1.1475,-1.1972,-1.2277,-1.2291,-1.2587,-1.3347,-1.461,-1.6047,-1.7673,-1.9933,-2.1497,-2.2545,-2.3348,-2.384,-2.3852,-2.4106,-2.4226,-2.4275,-2.4806,-2.5035,-2.5071,-2.5325,-2.5433,-2.5433,-2.5421,-2.5433,-2.5433,-2.5433,-2.5433,-2.5433,-2.5433,-2.5433,-2.5482,-2.5735,-2.582,-2.5868,-2.6134,-2.6206,-2.6206,-2.6218,-2.6218,-2.6218,-2.6218,-2.6582,-2.7184,-2.7991,-2.8397,-2.9007,-2.9654,-2.9887,-2.9887,-2.99,-3.0258,-3.0959,-3.1834,-3.2791,-3.3502,-3.3677,-3.6476,-3.8633,-3.9065,-3.9171,-3.9025,-3.864,-3.8603,-3.8444,-3.7968,-3.7968,-3.8199,-3.854,-3.7791,-3.7625,-3.8545,-3.9014,-3.9958,-4.1702,-4.3022,-4.4468,-4.6188,-4.7147,-4.7831,0.7505,0.6264,0.4896,0.3697,0.3052,0.2486,0.2225,0.2117,0.2139,0.2005,0.1745,0.1212,0.0135,-0.0,-0.0,-0.0,-0.0719,-0.2053,-0.4625,-0.5525,-0.6586,-0.83,-0.9278,-0.978,-0.978,-0.978,-0.978,-0.978,-1.058,-1.1042,-1.1005,-1.1795,-1.2284,-1.2291,-1.2481,-1.2936,-1.3826,-1.4995,-1.6452,-1.8191,-2.074,-2.2476,-2.3359,-2.368,-2.3937,-2.4106,-2.419,-2.4444,-2.4782,-2.4975,-2.5144,-2.5313,-2.5397,-2.5433,-2.5433,-2.5433,-2.5433,-2.5433,-2.5433,-2.5433,-2.5433,-2.5433,-2.5433,-2.5482,-2.5747,-2.5832,-2.5916,-2.6375,-2.6496,-2.6544,-2.6713,-2.6929,-2.7287,-2.7287,-2.7646,-2.822,-2.8668,-2.886,-2.9257,-2.9721,-2.9913,-2.9913,-2.9913,-3.0794,-3.2412,-3.5111,-3.5526,-3.5727,-3.6392,-3.8023,-3.914,-3.9648,-3.963,-3.9575,-3.9428,-3.9428,-3.9285,-3.8798,-3.8816,-3.8635,-3.811,-3.7742,-3.7848,-3.8541,-3.9228,-4.0546,-4.2651,-4.424,-4.583,-4.7619,-4.8432,-4.8989,0.7279,0.6133,0.485,0.3631,0.2841,0.2391,0.2125,0.214,0.2155,0.2155,0.2146,0.1874,0.0941,0.0411,-0.0,-0.0,-0.0731,-0.2092,-0.456,-0.5632,-0.6717,-0.8463,-0.9423,-0.9921,-0.9965,-0.9927,-0.99,-0.99,-1.0709,-1.1176,-1.114,-1.1946,-1.2433,-1.2447,-1.263,-1.3096,-1.3995,-1.5176,-1.7091,-1.9423,-2.1512,-2.3097,-2.3985,-2.3985,-2.413,-2.4383,-2.448,-2.4721,-2.5047,-2.5144,-2.5289,-2.5433,-2.5433,-2.5433,-2.5446,-2.5542,-2.5578,-2.5566,-2.547,-2.5494,-2.5578,-2.5578,-2.5639,-2.5771,-2.6037,-2.6122,-2.6206,-2.6653,-2.6773,-2.6822,-2.6991,-2.7377,-2.7739,-2.7739,-2.8281,-2.8835,-2.9182,-2.9362,-2.9541,-2.9913,-3.0007,-3.0074,-3.0254,-3.1929,-3.4172,-3.7079,-3.7758,-3.8203,-3.8856,-3.9492,-3.9884,-4.0088,-4.007,-3.9997,-3.9832,-3.9668,-3.9523,-3.903,-3.8883,-3.8518,-3.7604,-3.7629,-3.8084,-3.9152,-3.9974,-4.1635,-4.3751,-4.5332,-4.6951,-4.8591,-4.925,-4.9628,0.7,0.5782,0.4557,0.3342,0.2638,0.2155,0.2155,0.2155,0.2154,0.2153,0.2129,0.2119,0.2147,0.1089,0.0139,-0.0,-0.0732,-0.21,-0.4611,-0.5704,-0.684,-0.8744,-0.9625,-1.0079,-1.0199,-1.0106,-1.0041,-1.0041,0.0,-1.1134,-1.1268,-1.1926,-1.2447,-1.2732,-1.2752,-1.3047,-1.3824,-1.5294,-1.7809,-2.1265,-2.2256,-2.3202,-2.4251,-2.4251,-2.4395,-2.4661,-2.4927,-2.5047,-2.5083,-2.5337,-2.5433,-2.5433,-2.5458,-2.5458,-2.5494,-2.5747,-2.5844,-2.5808,-2.5566,-2.5639,-2.5844,-2.5844,-2.6013,-2.6266,-2.6556,-2.6641,-2.6701,-2.6954,-2.7027,-2.7027,-2.7027,-2.7377,-2.7739,-2.7739,-2.8462,-2.9182,-2.9182,-2.9554,-2.9913,-2.9913,-3.014,-3.0523,-3.1067,-3.3827,-3.6395,-3.8036,-3.9823,-4.0927,-4.1034,-4.098,-4.0862,-4.0584,-4.051,-4.0345,-3.9942,-3.9431,-3.912,-3.8625,-3.8329,-3.7847,-3.733,-3.7655,-3.8589,-4.0264,-4.1323,-4.2902,-4.5025,-4.6347,-4.7635,-4.8907,-4.9432,-4.9672,0.7045,0.583,0.4616,0.3351,0.2638,0.2155,0.2155,0.2155,0.2148,0.2125,0.2114,0.2112,0.212,0.1893,0.1252,0.0144,-0.0741,-0.2127,-0.467,-0.5773,-0.69,-0.8753,-0.9698,-1.0204,-1.0329,-1.0313,-1.0291,-1.0291,-1.0878,-1.1274,-1.1409,-1.2168,-1.2705,-1.2895,-1.3003,-1.3422,-1.4319,-1.6717,-1.9173,-2.1534,-2.2515,-2.3458,-2.4528,-2.4528,-2.4673,-2.4939,-2.5011,-2.5156,-2.5337,-2.5409,-2.5433,-2.5458,-2.5651,-2.5723,-2.5759,-2.6025,-2.6122,-2.6109,-2.6037,-2.6061,-2.6122,-2.6122,-2.6158,-2.6266,-2.6556,-2.6641,-2.6701,-2.6954,-2.7027,-2.7027,-2.7377,-2.792,-2.8474,-2.8642,-2.9362,-2.9734,-2.9734,-2.9734,-2.9913,-2.9913,-3.0326,-3.1166,-3.2994,-3.4545,-3.6546,-3.9601,-4.0753,-4.123,-4.107,-4.1323,-4.1312,-4.0969,-4.0577,-4.0373,-4.0264,-4.001,-3.983,-3.9318,-3.9841,-3.967,-3.8888,-3.9722,-4.0487,-4.116,-4.2913,-4.4453,-4.5983,-4.7313,-4.8275,-4.8929,-4.9759,-5.0131,0.7145,0.5878,0.4637,0.3355,0.2638,0.2151,0.2138,0.2124,0.2106,0.2076,0.2049,0.2039,0.2064,0.2119,0.1782,0.0718,-0.0742,-0.2596,-0.4691,-0.5984,-0.7295,-0.8823,-0.9801,-1.0329,-1.0449,-1.0416,-1.0384,-1.0384,-1.1054,-1.1476,-1.1555,-1.235,-1.2901,-1.3051,-1.3132,-1.3697,-1.4914,-1.7052,-1.9183,-2.1126,-2.2047,-2.323,-2.4472,-2.4472,-2.4795,-2.5216,0.0,-2.5361,-2.5615,-2.5615,-2.5675,-2.5796,-2.594,-2.6001,-2.6037,-2.6303,-2.6399,-2.6423,-2.6532,-2.658,-2.6556,-2.6447,-2.6484,-2.6604,-2.6761,-2.681,-2.6846,-2.6991,-2.7208,-2.7377,-2.7558,-2.8281,-2.8835,-2.9182,-2.9554,-2.9913,-2.9913,-2.9913,-2.9953,-3.0434,-3.1291,-3.2541,-3.4488,-3.6099,-3.8137,-4.0549,-4.1514,-4.2012,-4.1923,-4.2024,-4.2051,-4.1629,-4.125,-4.0926,-4.1116,-4.0433,-4.021,-4.0071,-4.0123,-4.0051,-3.9664,-4.0386,-4.1244,-4.1887,-4.3919,-4.55,-4.6969,-4.8286,-4.9135,-4.9541,-5.0284,-5.0655,0.7378,0.6039,0.4766,0.3482,0.2769,0.2281,0.2116,0.2083,0.2048,0.2014,0.1963,0.1941,0.1997,0.206,0.1876,0.1277,-0.0886,-0.3201,-0.4847,-0.6336,-0.7529,-0.8912,-0.991,-1.0454,-1.0568,-1.0492,-1.0433,-1.0433,-1.1242,-1.172,-1.1702,-1.2507,-1.3057,-1.32,-1.3363,-1.3931,-1.5247,-1.6892,-1.8496,-2.0206,-2.141,-2.281,-2.4421,-2.4421,-2.472,-2.5446,-2.547,0.0,-2.5832,-2.5868,-2.6013,-2.6218,-2.6266,-2.6278,-2.6315,-2.6592,-2.6689,-2.6725,-2.6954,-2.7027,-2.6991,-2.6761,-2.6846,-2.7027,-2.7027,-2.7027,-2.7027,-2.7027,-2.7377,-2.7739,-2.792,-2.8642,-2.9182,-2.9362,-2.9554,-2.9913,-2.9913,-2.994,-3.0227,-3.1026,-3.2589,-3.4334,-3.573,-3.8019,-4.0067,-4.1203,-4.212,-4.2746,-4.2809,-4.2894,-4.2711,-4.2326,-4.1749,-4.1419,-4.1629,-4.0597,-4.028,-4.0702,-3.9979,-3.9802,-4.0013,-4.0685,-4.1545,-4.2573,-4.4946,-4.6622,-4.7942,-4.9289,-5.0088,-5.0327,-5.083,-5.107,0.7622,0.6411,0.5148,0.3737,0.3031,0.255,0.2116,0.2067,0.2011,0.1958,0.1918,0.1904,0.194,0.2015,0.1855,0.1133,-0.0879,-0.3321,-0.5783,-0.6655,-0.7529,-0.8912,-0.9978,-1.0574,-1.0693,-1.0688,-1.0677,-1.0677,-1.1505,-1.1953,-1.1836,-1.2644,-1.3207,-1.3356,-1.3693,-1.4261,-1.4922,-1.6451,-1.7953,-1.9808,-2.1037,-2.2544,-2.4166,-2.4508,-2.4873,-2.5446,-2.5663,0.0,-2.5844,-2.6061,-2.6182,-2.6242,-2.6472,-2.6568,-2.6592,-2.687,-2.6966,-2.6966,-2.7015,-2.7027,-2.7027,-2.6979,-2.6991,-2.7027,-2.7027,-2.7027,-2.7027,-2.7558,-2.7558,-2.792,-2.8642,-2.9002,-2.9362,-2.9734,-2.9913,-2.9913,-2.9913,-3.0461,-3.1012,-3.1596,-3.3118,-3.4985,-3.6654,-3.8168,-3.9744,-4.1675,-4.2261,-4.2369,-4.28,-4.2528,-4.2008,-4.1611,-4.0877,-4.0351,-4.0351,-4.0082,-3.9916,-3.9933,-4.0224,-4.0576,-4.0954,-4.1834,-4.3047,-4.4461,-4.6709,-4.8093,-4.8756,-5.0112,-5.072,-5.0327,-5.083,-5.107,0.8011,0.6791,0.5533,0.4377,0.3426,0.2673,0.2465,0.2142,0.1951,0.1876,0.1836,0.1824,0.1854,0.1947,0.1805,0.1099,-0.1004,-0.3429,-0.5881,-0.6982,-0.7902,-0.8917,-1.0045,-1.0672,-1.0732,-1.0737,-1.0737,-1.107,-1.1736,-1.2038,-1.1977,-1.2795,-1.3322,-1.3397,-1.3569,-1.3971,-1.4623,-1.5547,-1.69,-1.8542,-1.9684,-2.1353,-2.3031,-2.372,-2.4407,-2.5104,-2.5538,0.0,-2.6049,-2.6327,-2.652,-2.6653,-2.6785,-2.6846,-2.6858,-2.6979,-2.7027,-2.7051,-2.7184,-2.7232,-2.7256,-2.7389,-2.7341,-2.7256,-2.7389,-2.7341,-2.7232,-2.7768,-2.8032,-2.8281,-2.9002,-2.9362,-2.9554,-2.9913,-2.9913,-2.9953,-3.0114,-3.0791,-3.1652,-3.2532,-3.4623,-3.6664,-3.8104,-3.9703,-4.1177,-4.2263,-4.2655,-4.2906,-4.273,-4.2407,-4.2031,-4.1852,-4.1142,-4.0803,-4.0803,-4.0387,-4.031,-4.031,-4.0669,-4.1075,-4.1622,-4.289,-4.4609,-4.6222,-4.8104,-4.9458,-5.0443,-5.1049,-5.1332,-5.1092,-5.1332,-5.1441,0.8267,0.7166,0.605,0.5023,0.3811,0.2918,0.2675,0.2208,0.1888,0.1802,0.1756,0.1742,0.1779,0.188,0.1748,0.1062,-0.084,-0.3081,-0.5654,-0.6949,-0.7906,-0.876,-0.9912,-1.0544,-1.0565,-1.057,-1.0904,-1.1403,-1.1902,0.0,-1.2401,-1.3072,-1.3403,-1.3403,-1.3431,-1.3686,-1.4168,-1.4834,-1.5855,-1.7058,-1.8252,-1.9902,-2.1811,-2.2675,-2.3742,-2.4671,-2.5275,0.0,0.0,-2.6426,-2.6665,-2.7027,-2.7027,-2.7027,-2.7027,-2.7027,-2.7063,-2.7148,-2.7353,-2.7461,-2.7534,-2.7739,-2.7667,-2.7534,-2.7679,-2.7582,-2.7585,-2.8074,-2.8458,-2.8835,-2.9182,-2.9554,-2.9913,-2.9913,-2.9967,-3.0074,-3.0496,-3.154,-3.2589,-3.3926,-3.6412,-3.8646,-3.9582,-4.1458,-4.2748,-4.2927,-4.3303,-4.3303,-4.2748,-4.2407,-4.2047,-4.1669,-4.1524,-4.136,-4.136,-4.0963,-4.0618,-4.0703,-4.0994,-4.1568,-4.2189,-4.3941,-4.5731,-4.7718,-4.9155,-5.0561,-5.196,-5.2102,-5.2097,-5.2097,-5.2009,-5.1944,0.8482,0.7671,0.669,0.5408,0.4305,0.3406,0.2796,0.2172,0.1831,0.1767,0.171,0.1688,0.1744,0.1831,0.1577,0.1044,-0.0274,-0.215,-0.482,-0.5887,-0.6821,-0.7778,-0.9188,-0.9958,-1.006,-1.057,-1.0904,-1.1403,-1.2235,0.0,-1.3231,-1.3403,-1.3403,-1.3403,-1.3539,-1.3675,-1.3817,-1.4492,-1.5177,-1.5858,-1.7271,-1.8846,-2.0761,-2.1638,-2.2967,-2.4406,-2.4845,0.0,0.0,-2.6159,-2.664,-2.7027,-2.7027,-2.7027,-2.7027,-2.7027,-2.7184,-2.7389,-2.7413,-2.7582,-2.7775,-2.7799,-2.7799,-2.7739,-2.7522,-2.7793,-2.8086,-2.8395,-2.8848,-2.9182,-2.9734,-2.9913,-2.9913,-2.9913,-3.0127,-3.0509,-3.0886,-3.2591,-3.4294,-3.5242,-3.7703,-3.9954,-4.086,-4.1994,-4.2945,-4.3321,-4.3499,-4.3124,-4.2209,-4.2263,-4.21,-4.0765,-4.0765,-4.0765,-4.0765,-4.0583,-4.0738,-4.1298,-4.1166,-4.1689,-4.2962,-4.4435,-4.6257,-4.8256,-4.999,-5.1392,-5.2434,-5.2929,-5.308,-5.308,-5.2621,-5.2424,0.9067,0.8171,0.7203,0.6178,0.4819,0.3514,0.2981,0.2257,0.1813,0.1716,0.1692,0.1695,0.1718,0.1812,0.1557,0.1006,0.0132,-0.1113,-0.3054,-0.4694,-0.5932,-0.7141,-0.8617,-0.9588,-0.9963,-1.0361,-1.107,-1.1736,0.0,0.0,-1.3403,-1.3403,-1.3403,-1.3403,-1.3553,-1.3695,-1.3838,-1.4167,-1.4667,-1.5352,-1.6049,-1.7455,-1.9021,-2.0375,-2.171,-2.3217,-2.4141,0.0,0.0,-2.6194,-2.6664,-2.7027,-2.7027,-2.7027,-2.7051,-2.7208,-2.7329,-2.7449,-2.7594,-2.7727,-2.7811,-2.7811,-2.7998,-2.8172,-2.7691,-2.7903,-2.8124,-2.8572,-2.8964,-2.9362,-2.9734,-2.9913,-2.9967,-3.014,-3.0455,-3.0995,-3.19,-3.364,-3.5532,-3.7002,-3.9175,-4.111,-4.2012,-4.2748,-4.3303,-4.3499,-4.3499,-4.3142,-4.2443,-4.2263,-4.1885,-4.0765,-4.0583,-4.0765,-4.0963,-4.1162,-4.15,-4.2049,-4.2294,-4.2962,-4.4448,-4.6167,-4.7935,-4.9954,-5.1298,-5.2405,-5.33,-5.3191,-5.3211,-5.3211,-5.3014,-5.2927,0.9239,0.8487,0.7536,0.6773,0.5269,0.3827,0.3272,0.2444,0.1896,0.1787,0.1774,0.1684,0.1701,0.1789,0.1649,0.1227,0.0517,-0.0408,-0.1421,-0.3265,-0.5063,-0.657,-0.8063,-0.9212,-0.9732,-1.0501,-1.1403,0.0,0.0,0.0,-1.3403,-1.3403,-1.3403,-1.3403,-1.3593,-1.3743,-1.3838,-1.4041,-1.4366,-1.4822,-1.5352,-1.6256,-1.7529,-1.8717,-2.0261,-2.165,-2.2861,0.0,0.0,-2.5491,-2.6106,-2.6845,-2.6845,-2.6893,-2.7172,-2.7353,-2.7473,-2.757,-2.7751,-2.7811,-2.7986,-2.7901,-2.8248,-2.8619,-2.8162,-2.8235,-2.8686,-2.8962,-2.9158,-2.9568,-3.002,-3.0047,-3.0127,-3.0421,-3.109,-3.1817,-3.2973,-3.4995,-3.6971,-3.8477,-4.0368,-4.2012,-4.2748,-4.3124,-4.3499,-4.3499,-4.3518,-4.3178,-4.2461,-4.2083,-4.1704,-4.0765,-4.0885,-4.1283,-4.136,-4.1646,-4.222,-4.2757,-4.3331,-4.4281,-4.5593,-4.7564,-4.938,-5.1207,-5.2355,-5.3271,-5.415,-5.38,-5.3647,-5.3647,-5.3495,-5.3342,0.9202,0.8599,0.7807,0.6804,0.5485,0.4285,0.344,0.2723,0.2167,0.2089,0.1842,0.1636,0.1696,0.1756,0.172,0.1834,0.0769,-0.0,-0.0,-0.19,-0.3915,-0.5627,-0.7369,-0.8644,-0.9235,-1.0997,-1.2235,0.0,0.0,0.0,-1.3403,-1.3403,-1.3403,-1.3403,-1.3688,-1.3838,-1.3838,-1.4143,-1.4299,-1.4299,-1.4822,-1.5602,-1.6635,-1.7178,-1.8271,0.0,0.0,0.0,0.0,-2.3903,-2.5012,-2.63,-2.63,-2.6818,-2.7413,-2.7425,-2.7582,-2.7811,-2.7811,-2.8185,-2.852,-2.8235,-2.8515,-2.8843,-2.8563,-2.9041,-2.9573,-2.9273,-2.9554,-2.998,-3.0274,-3.0354,-3.0434,-3.0715,-3.1737,-3.2887,-3.3998,-3.6451,-3.871,-3.964,-4.1471,-4.2748,-4.2748,-4.3124,-4.3499,-4.3499,-4.3573,-4.3215,-4.2047,-4.1938,-4.1611,-4.0782,-4.1709,-4.2179,-4.1594,-4.222,-4.2757,-4.3182,-4.4113,-4.5257,-4.656,-4.842,-5.0276,-5.175,-5.3209,-5.4099,-5.4652,-5.4652,-5.463,-5.463,-5.415,-5.3669,0.9238,0.8641,0.7928,0.7079,0.5843,0.4444,0.3681,0.2787,0.2159,0.2058,0.1845,0.166,0.17,0.144,0.1268,0.1785,0.0759,-0.0133,-0.0683,-0.2443,-0.4052,-0.5251,-0.7541,-0.9563,-1.0666,0.0,0.0,0.0,0.0,0.0,-1.3403,-1.3403,-1.3451,-1.3553,-1.3743,-1.3892,-1.3994,-1.4197,-1.4299,-1.4299,-1.4476,-1.4907,-1.5585,-1.6235,-1.7317,0.0,0.0,0.0,0.0,-2.3352,-2.4269,-2.5377,-2.6106,-2.6636,-2.7069,-2.7433,-2.7739,-2.7811,-2.8197,-2.8248,-2.8223,-2.8327,-2.8783,-2.9119,-2.9028,-2.9067,-2.9351,-2.9818,-3.0221,-3.0287,-3.0581,-3.0662,-3.0912,-3.1394,-3.2631,-3.4056,-3.5219,-3.7544,-3.964,-4.0549,-4.1832,-4.2927,-4.3303,-4.3303,-4.3499,-4.3499,-4.3142,-4.2784,-4.2029,-4.1933,-4.1744,-4.1178,-4.2259,-4.2697,-4.2291,-4.3158,-4.392,-4.5077,-4.576,-4.6928,-4.8643,-5.0297,-5.1569,-5.265,-5.3922,-5.4475,-5.4652,-5.4652,-5.4652,-5.4652,-5.4499,-5.4346,0.8886,0.8508,0.7724,0.7142,0.583,0.4606,0.3883,0.2932,0.2333,0.214,0.1949,0.1671,0.1701,0.1223,0.0695,0.0355,-0.0378,-0.1329,-0.2454,-0.3605,-0.4856,-0.6302,-0.8437,-1.0277,0.0,-1.2069,0.0,0.0,0.0,0.0,-1.3403,-1.3458,-1.3553,-1.3702,-1.3797,-1.3912,-1.4068,-1.4224,-1.4299,-1.4299,-1.4353,-1.4634,-1.4965,-1.5483,-1.6191,0.0,0.0,0.0,0.0,-2.1694,-2.2984,-2.4097,-2.5296,-2.6225,-2.7038,-2.7872,-2.8095,-2.8185,-2.8557,-2.8678,-2.8509,-2.8706,-2.9015,-2.9568,-2.9673,-2.9713,-2.9752,-3.0301,-3.0434,-3.0595,-3.0875,-3.1141,-3.1394,-3.2253,-3.3815,-3.5344,-3.6483,-3.8726,-4.0549,-4.1471,-4.2389,-4.3124,-4.3499,-4.3499,-4.3499,-4.3499,-4.3108,-4.2838,-4.2242,-4.2049,-4.1943,-4.1758,-4.283,-4.3324,-4.3426,-4.4028,-4.4837,-4.602,-4.689,-4.8003,-4.9748,-5.1207,-5.2492,-5.3387,-5.4298,-5.4652,-5.4652,-5.4652,-5.4652,-5.4652,-5.4652,-5.4652,0.0,0.7987,0.7453,0.679,0.5726,0.4665,0.394,0.3145,0.0,0.2427,0.2048,0.1671,0.1595,0.1112,0.0116,-0.1921,-0.2415,-0.3082,-0.475,-0.5152,-0.6058,-0.8371,-0.9907,-1.0941,-1.2056,0.0,0.0,0.0,0.0,0.0,-1.3403,-1.3546,-1.3695,-1.3838,-1.3851,-1.3933,-1.4089,-1.4231,-1.4299,-1.4299,-1.4441,-1.459,-1.4746,-1.4903,-1.5238,0.0,0.0,0.0,0.0,-1.9666,-2.114,-2.2637,-2.4529,-2.5887,-2.7274,-2.8491,-2.8805,-2.857,-2.9115,-2.9299,-2.9182,-2.9182,-2.9568,-2.9993,-3.0274,-3.0354,-3.0368,-3.0408,-3.0621,-3.0889,-3.1183,-3.1637,-3.2253,-3.3107,-3.4853,-3.6529,-3.7439,-3.964,-4.1471,-4.1849,-4.2766,-4.3499,-4.3499,-4.3499,-4.3499,-4.3536,-4.338,-4.3087,-4.2833,-4.2469,-4.2359,-4.2528,-4.3403,-4.4008,-4.4569,-4.5147,-4.5519,-4.6076,-4.7526,-4.8828,-5.0297,-5.1771,-5.303,-5.3943,-5.4475,-5.4652,-5.4652,-5.4652,-5.4652,-5.4652,-5.4652,-5.4652,0.7197,0.0,0.727,0.6532,0.5629,0.4778,0.0,0.2988,0.2468,0.2189,0.193,0.1671,0.1701,0.1223,0.0116,-0.1921,-0.3335,-0.4203,-0.4192,-0.5712,-0.7497,-0.9375,-1.0309,-1.1037,-1.2069,0.0,0.0,0.0,0.0,-1.3403,-1.3403,-1.3546,-1.3695,-1.3838,-1.3953,-1.4089,-1.4245,-1.4285,-1.4299,-1.4299,-1.4441,-1.459,-1.4746,-1.4903,-1.5052,0.0,0.0,0.0,-1.7242,-1.8727,-2.0214,-2.1714,-2.3788,-2.5701,-2.7274,-2.8491,-2.8993,-2.9115,-2.9685,-2.9495,-2.9182,-2.9554,-3.006,-3.0274,-3.0341,-3.0354,-3.0448,-3.0902,-3.1076,-3.1196,-3.149,-3.1935,-3.2514,-3.3525,-3.5212,-3.7069,-3.8007,-4.0203,-4.1849,-4.2029,-4.2766,-4.3499,-4.3499,-4.3499,-4.3807,-4.4355,-4.3724,-4.3505,-4.3776,-4.3599,-4.3456,-4.3456,-4.4186,-4.4796,-4.4984,-4.5379,-4.613,-4.7064,-4.842,-4.9931,-5.1388,-5.2851,-5.3922,-5.4475,-5.4652,-5.4652,-5.4652,-5.4652,-5.4652,-5.4652,-5.4652,-5.4652,0.6292,0.6508,0.6586,0.6037,0.5116,0.4226,0.341,0.273,0.2238,0.2075,0.1834,0.1585,0.1183,0.0679,-0.0119,-0.1471,-0.3017,-0.4343,-0.5034,-0.6704,-0.8271,-0.9788,-1.0865,-1.157,0.0,0.0,0.0,0.0,0.0,-1.3403,-1.3403,-1.3607,-1.3763,-1.3838,-1.4061,-1.4217,-1.4299,-1.4299,-1.4299,-1.4299,-1.4516,-1.4658,-1.4746,-1.4964,-1.5113,0.0,0.0,0.0,-1.6119,-1.7795,-1.9285,-2.0788,-2.3707,-2.5803,-2.7274,-2.9055,-2.9743,-2.9659,-3.0096,-2.9937,-2.9554,-2.9734,-3.0114,-3.0381,-3.0515,-3.0648,-3.0822,-3.1129,-3.133,-3.1463,-3.1623,-3.2232,-3.2974,-3.4103,-3.5771,-3.7439,-3.8559,-4.0385,-4.2012,-4.1814,-4.2748,-4.3499,-4.3499,-4.3646,-4.4046,-4.4304,-4.427,-4.4213,-4.4209,-4.4195,-4.424,-4.4428,-4.4814,-4.5129,-4.5506,-4.5883,-4.6635,-4.7755,-4.9197,-5.0661,-5.2132,-5.3209,-5.4207,-5.498,-5.4761,-5.4761,-5.498,-5.4761,-5.4652,-5.4652,-5.4652,-5.4652,0.5539,0.5517,0.5541,0.5275,0.4399,0.354,0.3081,0.2513,0.2028,0.199,0.1863,0.1403,0.0439,-0.0117,-0.0739,-0.1651,-0.2853,-0.4535,-0.648,-0.7911,-0.9188,-1.0211,-1.1403,0.0,0.0,0.0,0.0,0.0,0.0,-1.3403,-1.3403,-1.3682,-1.3838,-1.3838,-1.4136,-1.4299,-1.4299,-1.4299,-1.4312,-1.4333,-1.4611,-1.4753,-1.4787,-1.5059,-1.5181,-1.5181,0.0,0.0,-1.5368,-1.7242,-1.8727,-2.0055,-2.403,-2.6103,-2.7462,-2.9619,-3.0303,-3.0201,-3.0225,-3.0127,-2.9927,-2.9967,-3.0181,-3.0474,-3.0768,-3.1062,-3.1289,-3.1289,-3.1476,-3.1664,-3.1664,-3.2421,-3.354,-3.4478,-3.6328,-3.7991,-3.9109,-4.0748,-4.1832,-4.1779,-4.2784,-4.3609,-4.3591,-4.412,-4.4414,-4.447,-4.4727,-4.481,-4.4829,-4.4742,-4.475,-4.5129,-4.5129,-4.5318,-4.5883,-4.6447,-4.7177,-4.8088,-4.9564,-5.1207,-5.2851,-5.3566,-5.4515,-5.5373,-5.4914,-5.4893,-5.5395,-5.4893,-5.4652,-5.4652,-5.4652,-5.4696,0.4908,0.4369,0.3933,0.4079,0.3914,0.3467,0.2478,0.219,0.1999,0.1758,0.1719,0.1231,-0.0341,-0.1094,-0.1934,-0.385,-0.546,-0.6758,-0.794,-0.9097,-1.0086,-1.1053,0.0,0.0,0.0,0.0,0.0,0.0,0.0,0.0,-1.3403,-1.3682,-1.3838,-1.3838,-1.4136,-1.4299,-1.4299,-1.4299,-1.436,-1.4482,-1.4658,-1.4808,-1.4943,-1.5106,-1.5181,-1.5181,0.0,-1.5181,-1.5368,-1.6868,-1.8354,-2.0055,-2.3655,-2.6103,-2.801,-2.9807,-3.049,-3.0531,-3.0167,-2.9953,-2.9953,-3.0207,-3.0488,-3.0782,-3.1076,-3.137,-3.1597,-3.1597,-3.1637,-3.1664,-3.1664,-3.2421,-3.354,-3.504,-3.6514,-3.8175,-4.0021,-4.1093,-4.1796,-4.2551,-4.3631,-4.4448,-4.4212,-4.4562,-4.515,-4.5538,-4.5464,-4.5425,-4.5567,-4.5659,-4.5695,-4.5695,-4.5695,-4.5883,-4.5883,-4.6822,-4.7755,-4.8643,-5.0114,-5.193,-5.4298,-5.4475,-5.4893,-5.5373,-5.4914,-5.4893,-5.5395,-5.4893,-5.4652,-5.4652,-5.4652,-5.4871,0.4015,0.3446,0.3081,0.3023,0.2988,0.2804,0.2245,0.2072,0.188,0.174,0.1354,0.0706,-0.0361,-0.1525,-0.2969,-0.46,-0.6036,-0.7381,-0.8419,-0.9346,-1.0272,0.0,0.0,0.0,0.0,0.0,0.0,0.0,0.0,0.0,-1.3403,-1.3682,-1.3838,-1.3838,-1.4136,-1.4299,-1.4299,-1.4299,-1.4373,-1.4516,-1.4665,-1.4821,-1.4977,-1.512,-1.5181,-1.5181,0.0,-1.5563,-1.5744,-1.7795,-1.9345,-2.0955,-2.4635,-2.7122,-2.8756,-3.0065,-3.0531,-3.0287,-3.0007,-2.9913,-2.9967,-3.0261,-3.0555,-3.0849,-3.1142,-3.1436,-3.1664,-3.1664,-3.1664,-3.1664,-3.1664,-3.2408,-3.3121,-3.4175,-3.6298,-3.8408,-3.9556,-4.0843,-4.2065,-4.2838,-4.3796,-4.4396,-4.4617,-4.4985,-4.5298,-4.5519,-4.5517,-4.5682,-4.5865,-4.5883,-4.5883,-4.5883,-4.5883,-4.5883,-4.5883,-4.6822,-4.8293,-5.0297,-5.159,-5.2851,-5.4652,-5.4652,-5.5002,-5.5766,-5.5045,-5.5024,-5.5766,-5.5024,-5.4652,-5.4652,-5.4652,-5.4914,0.3282,0.2846,0.254,0.2254,0.2201,0.2232,0.2137,0.196,0.1761,0.1745,0.0959,0.0124,-0.051,-0.2268,-0.4254,-0.5526,-0.6744,-0.7823,-0.8716,-0.9758,-1.0634,-1.1392,0.0,0.0,0.0,0.0,0.0,0.0,0.0,0.0,0.0,0.0,-1.3858,-1.3892,-1.4156,-1.4299,-1.4299,-1.4299,-1.4387,-1.4563,-1.4685,-1.4841,-1.5025,-1.5133,-1.5181,-1.5368,-1.5751,-1.5938,-1.6501,-1.8727,-2.0508,-2.2211,-2.5803,-2.8108,-2.9581,-3.0426,-3.0368,-2.9913,-2.9913,-2.9967,-3.0074,-3.0368,-3.0662,-3.0942,-3.1236,-3.149,-3.1664,-3.1664,-3.1664,-3.1664,-3.1664,-3.2205,-3.2891,-3.3701,-3.6252,-3.8575,-3.9258,-4.0877,-4.2423,-4.3289,-4.407,-4.4691,-4.5004,-4.5372,-4.5443,-4.5443,-4.57,-4.5883,-4.5883,-4.5883,-4.5883,-4.5883,-4.5883,-4.6072,-4.6259,-4.7196,-4.9032,-5.1569,-5.2692,-5.3587,-5.4652,-5.4652,-5.5067,-5.5919,-5.5089,-5.5089,-5.5941,-5.5067,-5.4652,-5.4652,-5.4783,-5.5089,0.3028,0.2443,0.1995,0.2108,0.2241,0.2245,0.1947,0.1861,0.1889,0.1912,0.0777,-0.0526,-0.1468,-0.3956,-0.6155,-0.7268,-0.8358,-0.9107,-0.9717,0.0,0.0,0.0,0.0,0.0,0.0,0.0,0.0,0.0,0.0,0.0,0.0,0.0,-1.3905,-1.4048,-1.4211,-1.4299,-1.4299,-1.4299,-1.4441,-1.4726,-1.4733,-1.4889,-1.5167,-1.5174,-1.5375,-1.5938,-1.5938,-1.6501,-1.7437,-1.9099,-2.0872,-2.3127,-2.5989,-2.8557,-3.0597,-3.0501,-3.0194,-2.9913,-2.9913,-3.01,-3.0381,-3.0662,-3.0955,-3.1249,-3.1543,-3.165,-3.1664,-3.1664,-3.1664,-3.1664,-3.1664,-3.2205,-3.3079,-3.426,-3.6159,-3.8229,-4.0146,-4.181,-4.3307,-4.4105,-4.515,-4.5686,-4.526,-4.559,-4.5847,-4.5847,-4.5865,-4.5883,-4.5883,-4.5883,-4.5883,-4.5883,-4.5883,-4.6259,-4.7215,-4.8643,-5.0114,-5.175,-5.2692,-5.3587,-5.4652,-5.4652,-5.4893,-5.5417,-5.4914,-5.4914,-5.5439,-5.4914,-5.4652,-5.4674,-5.5111,-5.5592,0.2585,0.2142,0.1757,0.1871,0.1983,0.2076,0.1869,0.1927,0.1721,0.0812,0.0138,-0.0697,-0.2541,-0.4389,-0.6091,-0.7133,-0.8375,-0.9307,-0.9983,0.0,0.0,0.0,0.0,0.0,0.0,0.0,0.0,0.0,0.0,0.0,0.0,0.0,0.0,-1.4068,-1.4224,-1.4299,-1.4299,-1.4299,-1.4448,-1.474,-1.474,-1.4896,-1.5181,-1.5563,-1.5751,-1.5938,-1.6501,-1.7242,-1.7989,-2.0214,-2.2261,-2.448,-2.7932,-2.9827,-3.0755,-3.0474,-3.0167,-2.9913,-2.9913,-3.0114,-3.0408,-3.0702,-3.0982,-3.1276,-3.1583,-3.1664,-3.1664,-3.1664,-3.1664,-3.1664,-3.1664,-3.1975,-3.2432,-3.34,-3.6591,-4.0291,-4.3161,-4.3561,-4.3687,-4.5004,-4.5353,-4.5611,-4.5627,-4.5792,-4.5883,-4.5883,-4.5883,-4.5883,-4.5883,-4.5883,-4.5883,-4.5883,-4.6072,-4.6822,-4.7736,-4.9197,-5.0661,-5.2132,-5.303,-5.3943,-5.4652,-5.4652,-5.4893,-5.5373,-5.4914,-5.4893,-5.5395,-5.4893,-5.4805,-5.5111,-5.5308,-5.581,0.2364,0.1992,0.1689,0.1798,0.1783,0.1867,0.192,0.0799,-0.0554,-0.1563,-0.1878,-0.2341,-0.3999,-0.5265,-0.6312,-0.7497,-0.8554,-0.9322,0.0,0.0,0.0,0.0,0.0,0.0,0.0,0.0,0.0,0.0,0.0,0.0,0.0,0.0,0.0,0.0,-1.4245,-1.4299,-1.4299,-1.4299,-1.4448,-1.4922,-1.4922,-1.508,-1.5375,-1.5938,-1.6314,-1.6501,-1.7242,-1.8176,-1.9108,-2.114,-2.3613,-2.6302,-2.9318,-3.0597,-3.0742,-3.0368,-3.0087,-2.9927,-3.002,-3.0247,-3.0541,-3.0835,-3.1129,-3.1396,-3.161,-3.1664,-3.1664,-3.1664,-3.1664,-3.1664,-3.1853,-3.2164,-3.2418,-3.2971,-3.7191,-4.1848,-4.5185,-4.4891,-4.4325,-4.5649,-4.5648,-4.5572,-4.5847,-4.5883,-4.5883,-4.5883,-4.5883,-4.5883,-4.5883,-4.5883,-4.5883,-4.5883,-4.6259,-4.699,-4.8088,-4.9564,-5.1025,-5.2492,-5.3566,-5.4298,-5.4652,-5.4652,-5.4805,-5.5155,-5.4827,-5.4827,-5.5155,-5.4827,-5.4914,-5.5395,-5.5548,-5.6028,0.2374,0.1994,0.1685,0.1664,0.177,0.1884,0.1862,-0.167,-0.4913,-0.5037,-0.5412,-0.5777,-0.6145,-0.6469,-0.7325,-0.8875,-0.9088,-0.9485,0.0,0.0,0.0,0.0,0.0,0.0,0.0,0.0,0.0,0.0,0.0,0.0,0.0,0.0,0.0,0.0,-1.4299,-1.4299,-1.4299,-1.4299,-1.462,-1.5454,-1.5462,-1.5625,-1.5938,-1.6494,-1.6868,-1.7437,-1.7989,-1.9108,-2.0594,-2.2063,-2.5095,-2.8731,-3.0228,-3.0795,-3.0728,-3.0127,-2.9913,-2.9967,-3.0261,-3.0555,-3.0835,-3.1129,-3.1423,-3.1664,-3.1664,-3.1664,-3.1664,-3.1664,-3.1664,-3.1853,-3.2219,-3.296,-3.3628,-3.3358,-3.7743,-4.2779,-4.5386,-4.5498,-4.5261,-4.5723,-4.5869,-4.5883,-4.5883,-4.5883,-4.5883,-4.5883,-4.5883,-4.5883,-4.5883,-4.5883,-4.5883,-4.5883,-4.6259,-4.699,-4.8088,-4.9931,-5.1409,-5.2492,-5.3943,-5.4652,-5.4652,-5.4652,-5.4652,-5.4652,-5.4652,-5.4652,-5.4652,-5.4652,-5.4914,-5.5395,-5.5897,-5.6356,0.2243,0.1932,0.1701,0.1806,0.1522,0.1329,0.181,0.0857,-0.1172,-0.5156,-0.5819,-0.5819,-0.5787,-0.663,-0.769,-0.8473,-0.9264,0.0,0.0,0.0,0.0,0.0,0.0,0.0,0.0,0.0,0.0,0.0,0.0,0.0,0.0,0.0,0.0,0.0,-1.4299,-1.4299,-1.4299,-1.4646,-1.4921,-1.5305,-1.6137,-1.6551,-1.6494,-1.7055,-1.7429,-1.7989,-1.8557,-1.9666,-2.1714,-2.4988,-2.7642,-2.9672,-3.0412,-3.0795,-3.0728,-3.0127,-2.9913,-2.9967,-3.0261,-3.0555,-3.0835,-3.1129,-3.1423,-3.1664,-3.1664,-3.1664,-3.1664,-3.1664,-3.1664,-3.1664,-3.1799,-3.3309,-3.4995,-3.5434,-4.0327,-4.4801,-4.4654,-4.5225,-4.5705,-4.5869,-4.5828,-4.5883,-4.5883,-4.5883,-4.5883,-4.5883,-4.5883,-4.5883,-4.5883,-4.5883,-4.5883,-4.5883,-4.6635,-4.7736,-4.9012,-5.0661,-5.2111,-5.3387,-5.4298,-5.4652,-5.4652,-5.4652,-5.4652,-5.4652,-5.4652,-5.4652,-5.4652,-5.5002,-5.5417,-5.5897,-5.6378,-5.6858,0.2224,0.191,0.1785,0.1899,0.1599,0.0838,-0.1314,-0.0742,-0.0901,-0.4943,-0.5897,-0.6035,-0.6298,-0.6984,-0.7876,-0.8809,0.0,0.0,0.0,0.0,0.0,0.0,0.0,0.0,0.0,0.0,0.0,0.0,0.0,0.0,0.0,0.0,0.0,0.0,-1.4299,-1.4476,-1.4646,-1.4822,-1.5255,-1.5771,-1.6484,-1.7063,-1.7142,-1.7584,-1.7989,-1.8549,-2.0037,-2.1694,-2.3567,-2.6908,-2.8938,-2.986,-3.0438,-3.0621,-3.0568,-3.0087,-2.9913,-2.998,-3.0394,-3.0648,-3.0862,-3.1263,-3.1517,-3.1664,-3.1664,-3.1664,-3.1664,-3.1664,-3.1664,-3.1853,-3.1975,-3.3887,-3.6033,-3.7241,-4.0882,-4.4433,-4.4706,-4.526,-4.563,-4.5627,-4.5773,-4.5847,-4.5682,-4.5792,-4.5883,-4.5883,-4.5883,-4.5883,-4.5883,-4.5883,-4.5883,-4.5883,-4.6822,-4.7941,-4.9564,-5.1025,-5.2471,-5.3744,-5.4475,-5.4652,-5.4652,-5.4652,-5.4652,-5.4652,-5.4652,-5.4652,-5.4652,-5.5155,-5.5635,-5.6116,-5.6574,-5.7055,0.2161,0.1967,0.1726,0.144,0.1386,-0.0146,-0.6125,-0.51,-0.356,-0.5003,-0.5796,-0.6733,-0.7517,-0.7686,-0.8067,0.0,0.0,0.0,0.0,0.0,0.0,0.0,0.0,0.0,0.0,0.0,0.0,0.0,0.0,0.0,0.0,0.0,0.0,-1.4292,-1.4299,-1.4646,-1.4992,-1.4992,-1.5594,-1.6643,-1.6829,-1.7373,-1.79,-1.8087,-1.8549,-1.9302,-2.2248,-2.4269,-2.5753,-2.8037,-2.9247,-2.9795,-3.0172,-3.0354,-3.0327,-3.002,-2.9913,-3.0007,-3.0595,-3.0795,-3.0889,-3.1476,-3.1664,-3.1664,-3.1664,-3.1664,-3.1664,-3.1664,-3.1664,-3.1853,-3.2556,-3.4291,-3.6512,-3.8537,-4.0663,-4.275,-4.5333,-4.563,-4.5352,-4.5352,-4.5645,-4.5773,-4.5425,-4.5645,-4.5883,-4.5883,-4.5883,-4.5883,-4.5883,-4.5883,-4.5883,-4.5883,-4.6822,-4.7941,-4.9564,-5.1025,-5.2492,-5.3922,-5.4475,-5.4652,-5.4652,-5.4652,-5.4652,-5.4652,-5.4652,-5.4674,-5.4718,-5.522,-5.5701,-5.6181,-5.6662,-5.7099,0.1817,0.1824,0.1295,-0.0969,-0.2488,-0.3973,-0.6082,-0.7045,-0.7357,-0.7053,-0.7053,-0.7521,-0.8306,-0.8586,0.0,0.0,0.0,0.0,0.0,0.0,0.0,0.0,0.0,0.0,0.0,0.0,0.0,0.0,0.0,0.0,0.0,0.0,0.0,-1.4292,-1.4646,-1.4822,-1.4992,-1.5697,-1.6241,0.0,-1.7127,-1.7483,-1.7713,-1.803,-1.9099,-2.077,-2.3352,-2.5366,-2.6845,-2.8754,-2.9795,-3.0172,-3.0354,-3.0354,-3.0327,-3.002,-2.9913,-3.0007,-3.0595,-3.0795,-3.0889,-3.1476,-3.1664,-3.1664,-3.1664,-3.1664,-3.1664,-3.1664,-3.1664,-3.1853,-3.2556,-3.4435,-3.6823,-4.0124,-4.2336,-4.3784,-4.4702,-4.5366,-4.5755,-4.5755,-4.5828,-4.5865,-4.5773,-4.5828,-4.5883,-4.5883,-4.5883,-4.5883,-4.5883,-4.5883,-4.5883,-4.5883,-4.6822,-4.8127,-4.9931,-5.1207,-5.2671,-5.4475,-5.4652,-5.4652,-5.4652,-5.4652,-5.4652,-5.4652,-5.4652,-5.4849,-5.522,-5.5723,-5.6203,-5.6662,-5.7142,-5.7426,0.1361,0.1342,0.0785,-0.1871,-0.3468,-0.4645,-0.5799,-0.6911,-0.769,-0.8154,-0.8466,-0.8778,-0.9246,0.0,0.0,0.0,0.0,0.0,0.0,0.0,0.0,0.0,0.0,0.0,0.0,0.0,0.0,0.0,0.0,0.0,0.0,-1.4055,-1.4393,-1.4646,-1.4822,-1.5168,-1.5697,-1.6225,-1.6577,-1.6761,-1.721,-1.7788,-1.8143,-1.8971,-2.0214,-2.1879,-2.4441,-2.6276,-2.7377,-2.9158,-2.996,-3.0154,-3.0154,-3.0154,-3.0127,-2.9967,-2.9913,-3.0007,-3.0595,-3.0795,-3.0889,-3.1476,-3.1664,-3.1664,-3.1664,-3.1664,-3.1664,-3.1664,-3.1664,-3.1853,-3.2974,-3.5069,-3.7443,-4.0041,-4.1978,-4.3754,-4.4629,-4.5275,-4.5608,-4.5608,-4.5755,-4.5828,-4.5645,-4.5773,-4.5883,-4.5883,-4.5883,-4.5883,-4.5883,-4.5883,-4.5883,-4.5883,-4.6822,-4.8127,-5.0114,-5.1207,-5.2671,-5.4652,-5.4652,-5.4652,-5.4652,-5.4652,-5.4652,-5.4652,-5.4652,-5.4893,-5.5395,-5.5875,-5.6356,-5.6815,-5.7295,-5.7514,0.1106,0.085,0.0265,-0.1621,-0.2904,-0.3878,-0.517,-0.5805,-0.6744,-0.8466,-0.9407,-0.9874,0.0,0.0,0.0,0.0,0.0,0.0,0.0,0.0,0.0,0.0,0.0,0.0,0.0,0.0,0.0,0.0,0.0,0.0,-1.3878,-1.415,-1.4476,-1.4992,-1.4992,-1.5521,-1.6401,-1.6401,-1.6753,-1.7112,-1.7509,-1.8124,-1.8966,-2.0078,-2.1471,-2.2974,-2.5354,-2.7003,-2.8101,-2.9375,-2.9913,-2.9913,-2.9913,-2.9913,-2.9913,-2.9913,-2.9913,-3.0007,-3.0595,-3.0795,-3.0889,-3.1476,-3.1664,-3.1664,-3.1664,-3.1664,-3.1664,-3.1664,-3.1664,-3.2056,-3.3219,-3.5518,-3.7644,-3.9287,-4.1012,-4.2922,-4.491,-4.5297,-4.5315,-4.5388,-4.5663,-4.5792,-4.5462,-4.5682,-4.5883,-4.5883,-4.5883,-4.5883,-4.5883,-4.5883,-4.5883,-4.6072,-4.7009,-4.8293,-5.0297,-5.1388,-5.2671,-5.4652,-5.4652,-5.4652,-5.4652,-5.4652,-5.4696,-5.4783,-5.4696,-5.4936,-5.5504,-5.5919,-5.64,-5.6924,-5.7339,-5.7536,0.1504,0.0876,-0.0,-0.0296,-0.153,-0.2822,-0.3609,-0.4865,-0.6121,-0.7053,-0.831,0.0,0.0,0.0,0.0,0.0,0.0,0.0,0.0,0.0,0.0,0.0,0.0,0.0,0.0,0.0,0.0,0.0,0.0,0.0,-1.4034,-1.4204,-1.4476,-1.4992,-1.5352,-1.5873,-1.6401,-1.6753,-1.7112,-1.7112,-1.7811,-1.8725,-1.9671,-2.1326,-2.2607,-2.4064,-2.5537,-2.7365,-2.9002,-2.9734,-2.9913,-2.9913,-2.9913,-2.9913,-2.9913,-2.9913,-2.9913,-3.0007,-3.0595,-3.0795,-3.0889,-3.1476,-3.1664,-3.1664,-3.1664,-3.1664,-3.1664,-3.1664,-3.1664,-3.1853,-3.2988,-3.4853,-3.6715,-3.8775,-4.0635,-4.2601,-4.4855,-4.5297,-4.5407,-4.5737,-4.5847,-4.5865,-4.5828,-4.5847,-4.5883,-4.5883,-4.5883,-4.5883,-4.5883,-4.5883,-4.6072,-4.6447,-4.7364,-4.8828,-5.0661,-5.1771,-5.303,-5.4652,-5.4652,-5.4652,-5.4652,-5.4652,-5.4849,-5.5286,-5.4871,-5.5111,-5.6007,-5.6072,-5.6574,-5.7426,-5.7492,-5.7722,0.1711,0.087,-0.0,-0.0144,-0.0602,-0.1243,-0.2019,-0.3435,-0.4865,-0.6115,0.0,0.0,0.0,0.0,0.0,0.0,0.0,0.0,0.0,0.0,0.0,0.0,0.0,0.0,0.0,0.0,0.0,0.0,0.0,-1.3905,-1.4061,-1.4217,-1.4653,-1.5352,-1.5528,-1.6057,-1.6753,-1.6936,-1.7288,-1.7471,-1.7915,-1.8927,-2.0533,-2.181,-2.3295,-2.4777,-2.6233,-2.777,-2.9182,-2.9734,-2.9913,-2.9913,-2.9913,-2.9913,-2.9913,-2.9913,-2.9913,-2.998,-3.0408,-3.0555,-3.0621,-3.1248,-3.1597,-3.161,-3.1383,-3.149,-3.1638,-3.1423,-3.1543,-3.1853,-3.2988,-3.4651,-3.6668,-3.871,-4.0549,-4.2405,-4.427,-4.4801,-4.5132,-4.5773,-4.5883,-4.5883,-4.5883,-4.5883,-4.5883,-4.5883,-4.5883,-4.5883,-4.5883,-4.5883,-4.6072,-4.6635,-4.755,-4.8828,-5.0843,-5.1951,-5.3209,-5.4652,-5.4652,-5.4652,-5.4652,-5.4914,-5.5155,-5.5373,-5.5176,-5.5526,-5.6487,-5.6487,-5.6858,-5.7536,-5.7722,-5.8278,0.168,0.108,0.0398,-0.0139,-0.0146,-0.0152,-0.0766,-0.1858,-0.297,0.0,0.0,0.0,0.0,0.0,0.0,0.0,0.0,0.0,0.0,0.0,0.0,0.0,0.0,0.0,0.0,0.0,0.0,0.0,0.0,-1.3926,-1.4122,-1.4238,-1.4653,-1.5704,-1.5704,-1.6233,-1.7112,-1.7112,-1.7288,-1.7822,-1.8186,-1.9478,-2.1194,-2.2527,-2.4175,-2.5973,-2.6937,-2.8195,-2.9362,-2.9734,-2.9913,-2.9913,-2.9913,-2.9913,-2.9913,-2.9913,-2.9913,-2.9967,-3.0261,-3.055,-3.0603,-3.0899,-3.1205,-3.1218,-3.0795,-3.1141,-3.1356,-3.1196,-3.1383,-3.1759,-3.296,-3.4651,-3.6668,-3.871,-4.0549,-4.2334,-4.3942,-4.4545,-4.504,-4.5755,-4.5883,-4.5883,-4.5883,-4.5883,-4.5883,-4.5883,-4.5883,-4.5883,-4.5883,-4.5883,-4.6072,-4.6822,-4.7736,-4.9012,-5.1025,-5.2132,-5.323,-5.4652,-5.4783,-5.4849,-5.4849,-5.5308,-5.5613,-5.5744,-5.5744,-5.6094,-5.6793,-5.6793,-5.7055,-5.7514,-5.8093,-5.8647,0.1591,0.1669,0.1478,0.0261,-0.0,-0.0,-0.0,-0.0153,-0.0619,0.0,0.0,0.0,0.0,0.0,0.0,0.0,0.0,0.0,0.0,0.0,0.0,0.0,0.0,0.0,0.0,0.0,0.0,0.0,0.0,-1.3973,-1.4272,-1.4299,-1.4653,-1.5704,-1.5704,-1.6233,-1.7112,-1.7112,-1.7288,-1.7822,-1.8893,-2.0286,-2.2005,-2.3864,-2.5689,-2.7661,-2.7915,-2.873,-2.9913,-2.9913,-2.9913,-2.9913,-2.9913,-2.9913,-2.9913,-2.9913,-2.9913,-2.9967,-3.0442,-3.055,-3.0408,-3.0491,-3.0584,-3.0584,-3.0571,-3.0597,-3.0875,-3.1142,-3.1236,-3.1504,-3.2905,-3.4651,-3.6668,-3.871,-4.0549,-4.2423,-4.4289,-4.4966,-4.5388,-4.581,-4.5883,-4.5883,-4.5883,-4.5883,-4.5883,-4.5883,-4.5883,-4.5883,-4.5883,-4.5883,-4.6259,-4.7215,-4.8107,-4.9564,-5.1569,-5.2671,-5.3587,-5.4652,-5.5089,-5.5351,-5.5351,-5.581,-5.6269,-5.6706,-5.6727,-5.6749,-5.6793,-5.6793,-5.7055,-5.7514,-5.8093,-5.8809,0.1497,0.1656,0.1594,0.1347,0.0659,-0.0,-0.0,-0.0,-0.0459,0.0,0.0,0.0,0.0,0.0,0.0,0.0,0.0,0.0,0.0,0.0,0.0,0.0,0.0,0.0,0.0,0.0,0.0,0.0,0.0,0.0,-1.4292,-1.4646,-1.4999,-1.5704,-1.6057,-1.6401,-1.7112,-1.7463,-1.7989,-1.8689,-1.9803,-2.1363,-2.3365,-2.4743,-2.6399,-2.8173,-2.8811,-2.929,-2.9913,-2.9913,-2.9913,-2.9913,-2.9913,-2.9913,-2.9913,-2.9913,-2.9913,-2.9927,-3.0047,-3.0074,-3.01,-3.0194,-3.0039,-3.0039,-3.0039,-3.0501,-3.102,-3.0915,-3.1209,-3.1719,-3.296,-3.4651,-3.6853,-4.0186,-4.2029,-4.3269,-4.4178,-4.4618,-4.4948,-4.5077,-4.5113,-4.5187,-4.5462,-4.5297,-4.5278,-4.581,-4.5682,-4.5608,-4.5865,-4.5883,-4.6259,-4.7215,-4.8293,-4.9564,-5.1569,-5.2671,-5.3715,-5.5111,-5.5286,-5.5526,-5.5832,-5.629,-5.6618,-5.6793,-5.7099,-5.7273,-5.7273,-5.7273,-5.7546,-5.8093,-5.8463,-5.9543,0.1421,0.1546,0.1576,0.1821,0.1107,0.0263,-0.0,-0.0,-0.0299,0.0,0.0,0.0,0.0,0.0,0.0,0.0,0.0,0.0,0.0,0.0,0.0,0.0,0.0,0.0,0.0,0.0,0.0,0.0,0.0,0.0,-1.4646,-1.4822,-1.5344,-1.5881,-1.6401,-1.6753,-1.7112,-1.7647,-1.8339,-1.9204,-2.0414,-2.2147,-2.4235,-2.5784,-2.727,-2.871,-2.9282,-2.974,-2.9913,-2.9913,-2.9913,-2.9913,-2.9913,-2.9913,-2.9913,-2.9913,-2.9913,-2.9913,-2.9913,-2.9913,-2.9913,-2.9913,-2.9913,-2.9913,-2.9913,-3.0274,-3.0872,-3.0768,-3.1142,-3.1732,-3.296,-3.5197,-3.7959,-4.1291,-4.2766,-4.3573,-4.3829,-4.4196,-4.4508,-4.4636,-4.4673,-4.4765,-4.504,-4.4856,-4.4911,-4.559,-4.5462,-4.5443,-4.5847,-4.5883,-4.6259,-4.7215,-4.8293,-4.9624,-5.1796,-5.2903,-5.4015,-5.5592,-5.5766,-5.6007,-5.6334,-5.6793,-5.7033,-5.7033,-5.7361,-5.7536,-5.7722,-5.7722,-5.7907,-5.83,-5.9199,-6.0794,0.0,0.0,0.0,0.1569,0.1249,0.0857,0.013,-0.0,-0.0,0.0,0.0,0.0,0.0,0.0,0.0,0.0,0.0,0.0,0.0,0.0,0.0,0.0,0.0,0.0,0.0,0.0,0.0,0.0,0.0,-1.4311,-1.5168,-1.4992,-1.5521,-1.6401,-1.6928,-1.7112,-1.7112,-1.7463,-1.8339,-1.9204,-2.1108,-2.2998,-2.4749,-2.6835,-2.816,-2.9085,-2.9659,-2.9913,-2.9913,-2.9913,-2.9913,-2.9913,-2.9913,-2.9913,-2.9913,-2.9913,-2.9913,-2.9913,-2.9913,-2.9913,-2.9913,-2.9913,-2.9913,-2.9913,-2.9927,-3.014,-3.0434,-3.0728,-3.1009,-3.149,-3.2905,-3.6127,-3.964,-4.1471,-4.2766,-4.3499,-4.3499,-4.3793,-4.4178,-4.4563,-4.4636,-4.4636,-4.4655,-4.4655,-4.4801,-4.5242,-4.5297,-4.5443,-4.5847,-4.5883,-4.6259,-4.7215,-4.8312,-4.9762,-5.2229,-5.3366,-5.4508,-5.6094,-5.6553,-5.6793,-5.6815,-5.7273,-5.7514,-5.7514,-5.7514,-5.7722,-5.8278,-5.8278,-5.8278,-5.8463,-5.9909,-6.2564,0.1341,0.0,0.0,0.0,0.0,0.0,0.0248,0.0,0.0,0.0,0.0,0.0,0.0,0.0,0.0,0.0,0.0,0.0,0.0,0.0,0.0,0.0,0.0,0.0,0.0,0.0,0.0,0.0,-1.415,-1.4245,-1.4625,-1.5154,-1.5858,-1.6928,-1.7112,-1.7112,-1.7112,-1.7255,-1.8305,-2.0424,-2.232,-2.4132,-2.6056,-2.7457,-2.8627,-2.9379,-2.9753,-2.9913,-2.9913,-2.9913,-2.9913,-2.9913,-2.9913,-2.9913,-2.9913,-2.9913,-2.9913,-2.9913,-2.9913,-2.9913,-2.9913,-2.9913,-2.9913,-2.9953,-3.0167,-3.0448,-3.0742,-3.1022,-3.1316,-3.2123,-3.4622,-3.7223,-3.964,-4.1471,-4.2766,-4.3499,-4.3499,-4.3573,-4.3683,-4.3793,-4.3829,-4.3903,-4.4196,-4.4251,-4.449,-4.5205,-4.5297,-4.5443,-4.5847,-4.5883,-4.6259,-4.7215,-4.8935,-5.0635,-5.2433,-5.4026,-5.5527,-5.6574,-5.6727,-5.6946,-5.7295,-5.7448,-5.7514,-5.7514,-5.7514,-5.7722,-5.8278,-5.8278,-5.8647,-5.9383,-6.185,-6.4454,0.1365,0.1333,0.1388,0.1169,0.0,0.0,0.0235,0.0,0.0,0.0,0.0,0.0,0.0,0.0,0.0,0.0,0.0,0.0,0.0,0.0,0.0,0.0,0.0,0.0,0.0,0.0,0.0,-1.4235,-1.4217,-1.4469,-1.4808,-1.5682,-1.6569,-1.7112,-1.7112,-1.7112,-1.7463,-1.7789,-1.8819,-2.0385,-2.2622,-2.443,-2.6142,-2.7849,-2.8857,-2.9501,-2.9606,-2.9806,-2.9913,-2.9913,-2.9913,-2.9913,-2.9913,-2.9913,-2.9913,-2.9913,-2.9913,-2.9913,-2.9913,-2.9913,-2.9913,-2.9913,-2.9913,-2.9967,-3.0274,-3.0568,-3.0849,-3.1142,-3.1813,-3.2974,-3.5383,-3.7591,-3.964,-4.1471,-4.2766,-4.3499,-4.3499,-4.3499,-4.3499,-4.3499,-4.3499,-4.3628,-4.4013,-4.4086,-4.4361,-4.5187,-4.5297,-4.5443,-4.5847,-4.6072,-4.6691,-4.7816,-4.9522,-5.1287,-5.3156,-5.474,-5.6046,-5.7077,-5.7099,-5.723,-5.7514,-5.7514,-5.7514,-5.7514,-5.7722,-5.8093,-5.8831,-5.8647,-5.9383,-6.0998,-6.345,-6.5692,0.1423,0.1448,0.128,0.0854,0.1,0.0,0.0221,0.0,0.0,0.0,0.0,0.0,0.0,0.0,0.0,0.0,0.0,0.0,0.0,0.0,0.0,0.0,0.0,0.0,0.0,-1.3783,-1.3912,-1.4082,-1.4217,-1.4829,-1.5881,-1.6585,-1.7112,-1.7112,-1.7112,-1.7288,-1.7822,-1.8873,-1.9709,-2.0519,-2.2761,-2.4496,-2.575,-2.7774,-2.8977,-2.93,-2.9555,-2.9646,-2.9913,-2.9913,-2.9913,-2.9913,-2.9913,-2.9913,-2.9913,-2.9913,-2.9913,-2.9913,-2.9913,-2.9913,-2.9913,-2.9913,-2.994,-3.002,-3.0314,-3.0608,-3.0902,-3.1196,-3.2203,-3.3728,-3.5569,-3.7607,-3.964,-4.1471,-4.2766,-4.3499,-4.3499,-4.3499,-4.3499,-4.3499,-4.3536,-4.3664,-4.4031,-4.416,-4.4471,-4.5187,-4.5333,-4.5498,-4.5847,-4.6296,-4.7216,-4.8684,-5.0298,-5.2168,-5.4485,-5.5729,-5.6707,-5.7492,-5.7514,-5.7514,-5.7514,-5.7514,-5.7514,-5.7536,-5.8093,-5.8831,-5.9749,-5.9383,-6.0454,-6.279,-6.4677,-6.6404,0.1504,0.143,0.1354,0.1267,0.0713,0.0,-0.0,-0.0,0.0,0.0,0.0,0.0,0.0,0.0,0.0,0.0,0.0,0.0,0.0,0.0,0.0,0.0,0.0,0.0,0.0,-1.3899,-1.3953,-1.4238,-1.4801,-1.5521,-1.6777,-1.6944,-1.7112,-1.7112,-1.7112,-1.7471,-1.8374,-1.9987,-2.1731,-2.3615,-2.5163,-2.6264,-2.7285,-2.8234,-2.8898,-2.9392,-2.9662,-2.9851,-2.9913,-2.9913,-2.9913,-2.9913,-2.9913,-2.9913,-2.9913,-2.9913,-2.9913,-2.9913,-2.9913,-2.9913,-2.9913,-2.9913,-3.0074,-3.0327,-3.0621,-3.0915,-3.1196,-3.1503,-3.2556,-3.4103,-3.5756,-3.7791,-4.0004,-4.1669,-4.2766,-4.3499,-4.3499,-4.3499,-4.3499,-4.3499,-4.3756,-4.3995,-4.4068,-4.4636,-4.5113,-4.5278,-4.5572,-4.581,-4.5883,-4.6555,-4.7705,-4.9266,-5.1397,-5.3405,-5.5108,-5.6401,-5.724,-5.7514,-5.7514,-5.7514,-5.7514,-5.7514,-5.7722,-5.8093,-5.9016,-5.9749,-6.0296,-6.0659,-6.1538,-6.3298,-6.5,-6.6891,0.1813,0.1414,0.1008,0.1099,0.0512,0.0,0.0,-0.0,-0.0,-0.0,0.0,0.0,0.0,0.0,0.0,0.0,0.0,0.0,0.0,0.0,0.0,0.0,0.0,0.0,0.0,0.0,-1.3831,-1.4402,-1.501,-1.5715,-1.6506,-1.676,-1.6982,-1.6982,-1.7156,-1.7721,-1.8882,-2.0472,-2.221,-2.4109,-2.5653,-2.6923,-2.8063,-2.839,-2.8698,-2.907,-2.9259,-2.9513,-2.9913,-2.9913,-2.9913,-2.9913,-2.9913,-2.9913,-2.9913,-2.9913,-2.9913,-2.9913,-2.9913,-2.9913,-2.9913,-2.9913,-3.0114,-3.0421,-3.0702,-3.1102,-3.1476,-3.2002,-3.2974,-3.4276,-3.6127,-3.8159,-4.0186,-4.1669,-4.2766,-4.3499,-4.3499,-4.3499,-4.3554,-4.3756,-4.4105,-4.438,-4.438,-4.4893,-4.537,-4.5572,-4.5755,-4.6145,-4.6537,-4.7498,-4.8707,-5.0625,-5.276,-5.4466,-5.6029,-5.7011,-5.7514,-5.7514,-5.7514,-5.7514,-5.7514,-5.7722,-5.8278,-5.9016,-5.9749,-6.0296,-6.084,-6.1718,-6.279,-6.4002,-6.5864,-6.7594,0.2048,0.1489,0.0833,0.0618,0.0311,-0.0,0.0,0.0,0.0,0.0,0.0,0.0,0.0,0.0,0.0,0.0,0.0,0.0,0.0,0.0,0.0,0.0,0.0,0.0,0.0,0.0,-1.383,-1.4429,-1.513,-1.5683,-1.6018,-1.6559,-1.6852,-1.6852,-1.719,-1.7966,-1.9204,-2.0761,-2.2309,-2.3858,-2.5592,-2.6991,-2.8217,-2.8163,-2.847,-2.9045,-2.8857,-2.9189,-2.9913,-2.9913,-2.9913,-2.9913,-2.9913,-2.9913,-2.9913,-2.9913,-2.9913,-2.9913,-2.9913,-2.9913,-2.9913,-2.9913,-3.0154,-3.0515,-3.0862,-3.1289,-3.1853,-3.2232,-3.3351,-3.4651,-3.6514,-3.8526,-4.0368,-4.1832,-4.2766,-4.3499,-4.3499,-4.3554,-4.3701,-4.4013,-4.4471,-4.4801,-4.4801,-4.5132,-4.5517,-4.5847,-4.5957,-4.6311,-4.7213,-4.831,-5.0,-5.2208,-5.3882,-5.5404,-5.6746,-5.7349,-5.7514,-5.7514,-5.7514,-5.7536,-5.7722,-5.8278,-5.9016,-5.9749,-6.0296,-6.0998,-6.1562,-6.2967,-6.4026,-6.4876,-6.6746,-6.8293,0.1824,0.1765,0.1388,0.0325,-0.0,-0.0,-0.0,0.0,-0.0,-0.0,0.0,0.0,-0.1357,0.0,0.0,0.0,0.0,0.0,0.0,0.0,0.0,0.0,0.0,0.0,0.0,0.0,0.0,-1.4614,-1.5071,-1.5686,-1.6173,-1.6665,-1.6852,-1.6852,-1.719,-1.7966,-1.9204,-2.0935,-2.2826,-2.4543,-2.6103,-2.7304,-2.815,-2.815,-2.8654,-2.9246,-2.9246,-2.9568,-2.9913,-2.9913,-2.9913,-2.9913,-2.9913,-2.9913,-2.9913,-2.9913,-2.9913,-2.9913,-2.9913,-2.9913,-2.9913,-2.9913,-3.0287,-3.0849,-3.141,-3.1623,-3.1853,-3.2232,-3.3728,-3.56,-3.7069,-3.9275,-4.1471,-4.2389,-4.3124,-4.3499,-4.3499,-4.3774,-4.4031,-4.4068,-4.471,-4.5223,-4.5223,-4.5553,-4.5828,-4.5883,-4.6195,-4.6624,-4.725,-4.8843,-5.0664,-5.2836,-5.4361,-5.5765,-5.7328,-5.7514,-5.7514,-5.7514,-5.7514,-5.7722,-5.8093,-5.9016,-5.9749,-6.0477,-6.084,-6.1742,-6.2991,-6.4002,-6.4876,-6.5372,-6.7256,-6.8769,0.2182,0.175,0.1229,0.1125,0.0544,-0.0,-0.0,-0.0,-0.0,-0.0,0.0,0.0,0.0,0.0,0.0,0.0,-0.3449,0.0,0.0,0.0,0.0,0.0,0.0,0.0,0.0,0.0,0.0,0.0,0.0,-1.5401,-1.6154,-1.66,-1.6852,-1.7198,-1.7871,-1.8995,-2.0414,-2.232,-2.3869,-2.558,-2.6613,-2.7643,-2.815,-2.8323,-2.8644,-2.9045,-2.9219,-2.9526,-2.9913,-2.9913,-2.9913,-2.9913,-2.9913,-2.9913,-2.9913,-2.9913,-2.9913,-2.9913,-2.9913,-2.9913,-2.9967,-3.0314,-3.0702,-3.1129,-3.1543,-3.1664,-3.1853,-3.2974,-3.4291,-3.5786,-3.8007,-3.9822,-4.1524,-4.2874,-4.3469,-4.3903,-4.4123,-4.4306,-4.4508,-4.4746,-4.5077,-4.537,-4.5608,-4.5773,-4.5883,-4.5883,-4.6232,-4.6944,-4.7967,-4.9818,-5.1626,-5.3793,-5.5325,-5.658,-5.7328,-5.7514,-5.7514,-5.7514,-5.7722,-5.8278,-5.8647,-5.9566,-6.0477,-6.084,-6.1538,-6.2434,-6.3346,-6.4552,-6.5742,-6.6916,-6.8267,-6.9459,0.2307,0.1846,0.1173,0.1291,0.0668,-0.0,-0.0,-0.0,-0.0,-0.0,-0.0935,0.0,0.0,0.0,-0.2451,-0.2879,0.0,-0.4689,0.0,-0.7065,0.0,0.0,0.0,0.0,0.0,0.0,0.0,0.0,0.0,0.0,-1.5967,-1.6535,-1.7025,-1.7535,-1.8388,-1.9675,-2.1445,-2.3354,-2.4909,-2.6273,-2.7304,-2.7812,-2.815,-2.847,-2.8579,-2.8857,-2.9163,-2.9633,-2.9913,-2.9913,-2.9913,-2.9913,-2.9913,-2.9913,-2.9913,-2.9913,-2.9913,-2.9913,-2.9913,-2.9967,-3.0127,-3.0635,-3.0982,-3.1276,-3.1583,-3.1853,-3.2232,-3.354,-3.4853,-3.6328,-3.8742,-4.0385,-4.1938,-4.3271,-4.3905,-4.4196,-4.4581,-4.4765,-4.493,-4.5242,-4.5388,-4.5553,-4.5847,-4.5883,-4.592,-4.603,-4.6587,-4.7357,-4.8938,-5.0683,-5.2781,-5.4461,-5.6017,-5.6976,-5.7536,-5.7514,-5.7514,-5.7514,-5.8093,-5.8647,-5.9016,-6.0114,-6.084,-6.1382,-6.2255,-6.2967,-6.3675,-6.5075,-6.6601,-6.8293,-6.9128,-6.998,0.2016,0.1934,0.1479,0.037,-0.0,-0.0,-0.0,-0.0,-0.0,-0.0,-0.0936,-0.1813,-0.1813,-0.2025,-0.2451,-0.2879,-0.3943,0.0,0.0,0.0,0.0,0.0,0.0,0.0,0.0,0.0,0.0,0.0,0.0,0.0,-1.578,-1.6462,-1.7025,-1.7535,-1.8388,-1.9847,-2.1964,-2.3686,-2.5409,-2.6783,-2.7799,-2.815,-2.815,-2.847,-2.8764,-2.9058,-2.9352,-2.9646,-2.9913,-2.9913,-2.9913,-2.9913,-2.9913,-2.9913,-2.9913,-2.9913,-2.9913,-2.9913,-2.9913,-3.01,-3.0394,-3.0702,-3.0982,-3.1276,-3.1583,-3.2043,-3.2597,-3.354,-3.5398,-3.7238,-3.9275,-4.0929,-4.2316,-4.3796,-4.4086,-4.4196,-4.4581,-4.4985,-4.5278,-4.5297,-4.5608,-4.5865,-4.5883,-4.5883,-4.6012,-4.6397,-4.7184,-4.8362,-4.9742,-5.1691,-5.3508,-5.5052,-5.6226,-5.6976,-5.7536,-5.7514,-5.7514,-5.7514,-5.8463,-5.9016,-5.9016,-6.0477,-6.1382,-6.1921,-6.2255,-6.3298,-6.4702,-6.6086,-6.7451,-6.8795,-6.9293,-7.0144,0.0,0.0,0.1677,0.0387,-0.0,-0.0,-0.0,-0.0,-0.0212,-0.1189,-0.1325,-0.1347,-0.1795,-0.2224,-0.2736,-0.3316,-0.4421,-0.5417,0.0,-0.7382,0.0,0.0,0.0,0.0,0.0,0.0,0.0,0.0,0.0,0.0,0.0,-1.6633,-1.7372,-1.807,-1.9442,-2.1028,-2.2826,-2.4714,-2.6103,-2.7304,-2.7981,-2.8243,-2.8457,-2.8764,-2.9058,-2.9352,-2.9646,-2.982,-2.9913,-2.9913,-2.9913,-2.9913,-2.9913,-2.9913,-2.9913,-2.9913,-2.9913,-2.994,-3.014,-3.0408,-3.0702,-3.0982,-3.1276,-3.153,-3.1637,-3.2043,-3.2786,-3.4478,-3.6143,-3.7791,-4.0186,-4.1845,-4.3253,-4.4197,-4.4691,-4.5003,-4.5388,-4.559,-4.57,-4.57,-4.5792,-4.5975,-4.6232,-4.6287,-4.6324,-4.6452,-4.7202,-4.8573,-5.0319,-5.2288,-5.4081,-5.564,-5.658,-5.7349,-5.7536,-5.7514,-5.7722,-5.8093,-5.8647,-5.9199,-5.9383,-6.084,-6.1742,-6.1921,-6.2967,-6.4026,-6.5248,-6.6601,-6.7957,-6.9293,-6.9581,-7.0422,0.1315,0.1416,0.0,0.027,-0.0,0.0,-0.0,-0.0459,-0.1012,-0.1966,-0.1757,-0.1416,-0.1889,-0.2319,-0.293,-0.3571,-0.4759,-0.5901,0.0,-0.7909,0.0,0.0,0.0,0.0,0.0,0.0,0.0,0.0,0.0,0.0,0.0,0.0,-1.7364,-1.8409,-1.9855,-2.1618,-2.3514,-2.5239,-2.6613,-2.7812,-2.7981,-2.831,-2.8617,-2.8911,-2.9205,-2.9499,-2.9793,-2.9913,-2.9913,-2.9913,-2.9913,-2.9913,-2.9913,-2.9913,-2.9913,-2.9913,-2.9913,-2.9967,-3.0261,-3.0555,-3.0835,-3.1129,-3.1423,-3.1664,-3.1664,-3.2232,-3.2974,-3.4853,-3.6514,-3.8391,-4.0903,-4.2437,-4.3687,-4.4581,-4.5095,-4.5407,-4.581,-4.5883,-4.5883,-4.5883,-4.5883,-4.6012,-4.6415,-4.6679,-4.6962,-4.7258,-4.8095,-4.9358,-5.1322,-5.3134,-5.4862,-5.6226,-5.6976,-5.7514,-5.7514,-5.7514,-5.7722,-5.8278,-5.8647,-5.9383,-5.9931,-6.1202,-6.1921,-6.21,-6.3322,-6.4377,-6.5421,-6.6942,-6.819,-6.9169,-6.9776,-7.0475]},{"header":{"parameterUnit":"m.s-1","parameterCategory":1,"la1":30.6,"la2":29.2853,"lo1":-89.7004,"lo2":-87.6739,"dx":0.0162,"dy":0.0183,"nx":112,"ny":82,"refTime":"2023-01-01T18:00:00:Z","depth":0,"parameterNumber":3,"parameterNumberName":"V-component_of_WINDS"},"data":[0.0,0.0,0.0,0.0,0.0,0.0,0.0,0.0,0.0,0.0,0.0,0.0,0.0,0.0,0.0,0.0,0.0,0.0,0.0,0.0,0.0,0.0,0.0,0.0,0.0,0.0,0.0,0.0,0.0,0.0,0.0,0.0,0.0,0.0,0.0,0.0,0.0,0.0,0.0,0.0,0.0,0.0,0.0,0.0,0.0,0.0,0.0,0.0,0.0,0.0,0.0,0.0,0.0,0.0,0.0,0.0,0.0,0.0,0.0,0.0,0.0,0.0,0.0,0.0,0.0,0.0,0.0,0.0,0.0,0.0,0.0,0.0,0.0,0.0,0.0,0.0,0.0,0.0,0.0,0.0,0.0,0.0,0.0,0.0,0.0,0.0,0.0,0.0,0.0,0.0,-3.9852,-4.3742,-4.5942,-4.6725,-4.5823,-4.5061,-4.3642,-4.1181,0.0,0.0,0.0,0.0,0.0,0.0,0.0,0.0,0.0,0.0,0.0,0.0,0.0,0.0,0.0,0.0,0.0,0.0,0.0,0.0,0.0,0.0,0.0,0.0,0.0,0.0,0.0,0.0,0.0,0.0,0.0,0.0,0.0,0.0,0.0,0.0,0.0,0.0,0.0,0.0,0.0,0.0,0.0,0.0,0.0,0.0,0.0,0.0,0.0,0.0,0.0,0.0,0.0,0.0,0.0,0.0,0.0,0.0,0.0,0.0,0.0,0.0,0.0,0.0,0.0,0.0,0.0,0.0,0.0,0.0,0.0,0.0,0.0,0.0,0.0,0.0,0.0,0.0,0.0,0.0,0.0,0.0,0.0,0.0,0.0,0.0,0.0,0.0,0.0,0.0,0.0,0.0,0.0,0.0,0.0,0.0,0.0,0.0,0.0,0.0,0.0,0.0,0.0,0.0,-4.1726,-4.5909,-4.7084,-4.7306,-4.6493,-4.5699,-4.4251,-4.1974,0.0,0.0,0.0,0.0,0.0,0.0,0.0,0.0,0.0,0.0,0.0,0.0,0.0,0.0,0.0,0.0,0.0,0.0,0.0,0.0,0.0,0.0,0.0,0.0,0.0,0.0,0.0,0.0,0.0,0.0,0.0,0.0,0.0,0.0,0.0,0.0,0.0,0.0,0.0,0.0,0.0,0.0,0.0,0.0,0.0,0.0,0.0,0.0,0.0,0.0,0.0,0.0,0.0,0.0,0.0,0.0,0.0,0.0,0.0,0.0,0.0,0.0,0.0,0.0,0.0,0.0,0.0,0.0,0.0,0.0,0.0,0.0,0.0,0.0,0.0,0.0,0.0,0.0,0.0,0.0,0.0,0.0,0.0,0.0,0.0,0.0,0.0,0.0,0.0,0.0,0.0,0.0,0.0,0.0,0.0,0.0,0.0,0.0,0.0,0.0,0.0,0.0,0.0,-4.185,-4.4725,-4.7731,-4.828,-4.8294,-4.7838,-4.6734,-4.5251,-4.3354,-3.9868,0.0,0.0,0.0,0.0,0.0,0.0,0.0,0.0,0.0,0.0,0.0,0.0,0.0,0.0,0.0,0.0,0.0,0.0,0.0,0.0,0.0,0.0,0.0,0.0,0.0,0.0,0.0,0.0,0.0,0.0,0.0,0.0,0.0,0.0,0.0,0.0,0.0,0.0,0.0,0.0,0.0,0.0,0.0,0.0,0.0,0.0,0.0,0.0,0.0,0.0,0.0,0.0,0.0,0.0,0.0,0.0,0.0,0.0,0.0,0.0,0.0,0.0,0.0,0.0,0.0,0.0,0.0,0.0,0.0,0.0,0.0,0.0,0.0,0.0,0.0,0.0,0.0,0.0,0.0,0.0,0.0,0.0,0.0,0.0,0.0,0.0,0.0,0.0,0.0,0.0,0.0,0.0,0.0,0.0,0.0,0.0,0.0,0.0,0.0,0.0,0.0,0.0,-4.5176,-4.7226,-4.902,-4.9292,-4.9214,-4.8838,-4.7631,-4.6148,-4.4389,-4.0638,0.0,0.0,0.0,0.0,0.0,0.0,0.0,0.0,0.0,0.0,0.0,0.0,0.0,0.0,0.0,0.0,0.0,0.0,0.0,0.0,0.0,0.0,0.0,0.0,0.0,0.0,0.0,0.0,0.0,0.0,0.0,0.0,0.0,0.0,0.0,0.0,0.0,0.0,0.0,0.0,0.0,0.0,0.0,0.0,0.0,0.0,0.0,0.0,0.0,0.0,0.0,0.0,0.0,0.0,0.0,0.0,0.0,0.0,0.0,0.0,0.0,0.0,0.0,0.0,0.0,0.0,0.0,0.0,0.0,0.0,0.0,0.0,0.0,0.0,0.0,0.0,0.0,0.0,0.0,0.0,0.0,0.0,0.0,0.0,0.0,0.0,0.0,0.0,0.0,0.0,0.0,0.0,0.0,0.0,0.0,0.0,0.0,0.0,0.0,0.0,0.0,0.0,-4.596,-4.8076,-4.9326,-4.9855,-4.9768,-4.8872,-4.8114,-4.6665,-4.4423,-4.0638,0.0,0.0,0.0,0.0,0.0,0.0,0.0,0.0,0.0,0.0,0.0,0.0,0.0,0.0,0.0,0.0,0.0,0.0,0.0,0.0,0.0,0.0,0.0,0.0,0.0,0.0,0.0,0.0,0.0,0.0,0.0,0.0,0.0,0.0,0.0,0.0,0.0,0.0,0.0,0.0,0.0,0.0,0.0,0.0,0.0,0.0,0.0,0.0,0.0,0.0,0.0,0.0,0.0,0.0,0.0,0.0,0.0,0.0,0.0,0.0,0.0,0.0,0.0,0.0,0.0,0.0,0.0,0.0,0.0,0.0,0.0,0.0,0.0,0.0,0.0,0.0,0.0,0.0,0.0,0.0,0.0,0.0,0.0,0.0,0.0,0.0,0.0,0.0,0.0,0.0,0.0,0.0,0.0,0.0,0.0,0.0,0.0,0.0,0.0,0.0,0.0,0.0,-4.6742,-4.9129,-5.0579,-5.1315,-5.1546,-5.0976,-4.939,-4.7631,-4.5837,0.0,0.0,0.0,0.0,0.0,0.0,0.0,0.0,0.0,0.0,0.0,0.0,0.0,0.0,0.0,0.0,0.0,0.0,0.0,0.0,0.0,0.0,0.0,0.0,0.0,0.0,0.0,0.0,0.0,0.0,0.0,0.0,0.0,0.0,0.0,0.0,0.0,0.0,0.0,0.0,0.0,0.0,0.0,0.0,0.0,0.0,0.0,0.0,0.0,0.0,0.0,0.0,0.0,0.0,0.0,0.0,0.0,0.0,0.0,0.0,0.0,0.0,0.0,0.0,0.0,0.0,0.0,0.0,0.0,0.0,0.0,0.0,0.0,0.0,0.0,0.0,0.0,0.0,0.0,0.0,0.0,0.0,0.0,0.0,0.0,0.0,0.0,0.0,0.0,0.0,0.0,0.0,0.0,0.0,0.0,0.0,0.0,0.0,0.0,0.0,0.0,0.0,-4.4378,-4.7654,-5.0201,-5.1934,-5.2439,-5.2612,-5.2278,-5.0149,-4.8183,-4.67,0.0,0.0,0.0,0.0,0.0,0.0,0.0,0.0,0.0,0.0,0.0,0.0,0.0,0.0,0.0,0.0,0.0,0.0,0.0,0.0,0.0,0.0,0.0,0.0,0.0,0.0,0.0,0.0,0.0,0.0,0.0,0.0,0.0,0.0,0.0,0.0,0.0,0.0,0.0,0.0,0.0,0.0,0.0,0.0,0.0,0.0,0.0,0.0,0.0,0.0,0.0,0.0,0.0,0.0,0.0,0.0,0.0,0.0,0.0,0.0,0.0,0.0,0.0,0.0,0.0,0.0,0.0,0.0,0.0,0.0,0.0,0.0,0.0,0.0,0.0,0.0,0.0,0.0,0.0,0.0,0.0,0.0,0.0,0.0,0.0,0.0,0.0,0.0,0.0,0.0,0.0,0.0,0.0,0.0,0.0,0.0,0.0,0.0,0.0,0.0,0.0,0.0,-4.5575,-4.8672,-5.1185,-5.3188,-5.3019,-5.2671,-5.2528,-5.0207,-4.8217,0.0,0.0,0.0,0.0,0.0,0.0,0.0,0.0,0.0,0.0,0.0,0.0,0.0,0.0,0.0,0.0,0.0,0.0,0.0,0.0,0.0,0.0,0.0,0.0,0.0,0.0,0.0,0.0,0.0,0.0,0.0,0.0,0.0,0.0,0.0,0.0,0.0,0.0,0.0,0.0,0.0,0.0,0.0,0.0,0.0,0.0,0.0,0.0,0.0,0.0,0.0,0.0,0.0,0.0,0.0,0.0,0.0,0.0,0.0,0.0,0.0,0.0,0.0,0.0,0.0,0.0,0.0,0.0,0.0,0.0,0.0,0.0,0.0,0.0,0.0,0.0,0.0,0.0,0.0,0.0,0.0,0.0,0.0,0.0,0.0,0.0,0.0,0.0,0.0,0.0,0.0,0.0,0.0,0.0,0.0,0.0,0.0,0.0,0.0,0.0,0.0,0.0,0.0,-4.6262,-4.9901,-5.2555,-5.3901,-5.422,-5.427,-5.4121,-5.1889,-4.9769,-4.8252,0.0,0.0,0.0,0.0,0.0,0.0,0.0,0.0,0.0,0.0,0.0,0.0,0.0,0.0,0.0,0.0,0.0,0.0,0.0,0.0,0.0,0.0,0.0,0.0,0.0,0.0,0.0,0.0,0.0,0.0,0.0,0.0,0.0,0.0,0.0,0.0,0.0,0.0,0.0,0.0,0.0,0.0,0.0,0.0,0.0,0.0,0.0,0.0,0.0,0.0,0.0,0.0,0.0,0.0,0.0,0.0,0.0,0.0,0.0,0.0,0.0,0.0,0.0,0.0,0.0,0.0,0.0,0.0,0.0,0.0,0.0,0.0,0.0,0.0,0.0,0.0,0.0,0.0,0.0,0.0,0.0,0.0,0.0,0.0,0.0,0.0,0.0,0.0,0.0,0.0,0.0,0.0,0.0,0.0,0.0,0.0,0.0,0.0,0.0,0.0,0.0,0.0,-4.7088,-5.0651,-5.3353,-5.479,-5.4954,-5.4992,-5.4904,-5.2823,-5.0907,-4.939,0.0,0.0,0.0,0.0,0.0,0.0,0.0,0.0,0.0,0.0,0.0,0.0,0.0,0.0,0.0,0.0,0.0,0.0,0.0,0.0,0.0,0.0,0.0,0.0,0.0,0.0,0.0,0.0,0.0,0.0,0.0,0.0,0.0,0.0,0.0,0.0,0.0,0.0,0.0,0.0,0.0,0.0,0.0,0.0,0.0,0.0,0.0,0.0,0.0,0.0,0.0,0.0,0.0,0.0,0.0,0.0,0.0,0.0,0.0,0.0,0.0,0.0,0.0,0.0,0.0,0.0,0.0,0.0,0.0,0.0,0.0,0.0,0.0,0.0,0.0,0.0,0.0,0.0,0.0,0.0,0.0,0.0,0.0,0.0,0.0,0.0,0.0,0.0,0.0,0.0,0.0,0.0,0.0,0.0,0.0,0.0,0.0,0.0,0.0,0.0,0.0,0.0,-4.8191,-5.1321,-5.3851,-5.5865,-5.5624,-5.5262,-5.5201,-5.3541,-5.1908,-5.0424,0.0,0.0,0.0,0.0,0.0,0.0,0.0,0.0,0.0,0.0,0.0,0.0,0.0,0.0,0.0,0.0,0.0,0.0,0.0,0.0,0.0,0.0,0.0,0.0,0.0,0.0,0.0,0.0,0.0,0.0,0.0,0.0,0.0,0.0,0.0,0.0,0.0,0.0,0.0,0.0,0.0,0.0,0.0,0.0,0.0,0.0,0.0,0.0,0.0,0.0,0.0,0.0,0.0,0.0,0.0,0.0,0.0,0.0,0.0,0.0,-4.197,0.0,0.0,0.0,0.0,0.0,0.0,0.0,0.0,0.0,0.0,0.0,0.0,0.0,0.0,0.0,0.0,0.0,0.0,0.0,0.0,0.0,0.0,0.0,0.0,0.0,0.0,0.0,0.0,0.0,0.0,0.0,0.0,0.0,0.0,0.0,0.0,0.0,0.0,0.0,0.0,0.0,-5.0731,-5.339,-5.5633,-5.7588,-5.7419,-5.7114,-5.6802,-5.5778,-5.4378,-5.277,-4.9493,0.0,0.0,0.0,0.0,0.0,0.0,0.0,0.0,0.0,0.0,0.0,0.0,0.0,0.0,0.0,0.0,0.0,0.0,0.0,0.0,0.0,0.0,0.0,0.0,0.0,0.0,0.0,0.0,0.0,0.0,0.0,0.0,0.0,0.0,0.0,0.0,0.0,0.0,0.0,0.0,0.0,0.0,0.0,0.0,0.0,0.0,0.0,0.0,0.0,0.0,0.0,0.0,0.0,0.0,0.0,0.0,0.0,0.0,0.0,0.0,-4.4778,0.0,0.0,0.0,0.0,0.0,0.0,0.0,0.0,0.0,0.0,0.0,0.0,0.0,0.0,0.0,0.0,0.0,0.0,0.0,0.0,0.0,0.0,0.0,0.0,0.0,0.0,0.0,0.0,0.0,0.0,0.0,0.0,0.0,0.0,0.0,0.0,0.0,0.0,0.0,0.0,-5.17,-5.4424,-5.658,-5.8236,-5.7998,-5.7631,-5.7289,-5.6715,-5.5859,-5.4529,-5.2287,0.0,0.0,0.0,0.0,0.0,0.0,0.0,0.0,0.0,0.0,0.0,0.0,0.0,0.0,0.0,0.0,0.0,0.0,0.0,0.0,0.0,0.0,0.0,0.0,0.0,0.0,0.0,0.0,0.0,0.0,0.0,0.0,0.0,0.0,0.0,0.0,0.0,0.0,0.0,0.0,0.0,0.0,0.0,0.0,0.0,0.0,0.0,0.0,0.0,0.0,0.0,0.0,0.0,-5.1085,-5.2165,-5.3664,-5.4528,-5.4912,-5.4699,-5.1316,-4.9202,-4.8049,-4.6281,0.0,0.0,0.0,0.0,0.0,0.0,0.0,0.0,0.0,0.0,0.0,0.0,0.0,0.0,0.0,0.0,0.0,0.0,0.0,0.0,0.0,0.0,0.0,0.0,-5.3571,-5.1974,-4.6513,0.0,0.0,0.0,0.0,0.0,0.0,0.0,0.0,0.0,0.0,0.0,-5.2707,-5.5512,-5.7603,-5.8837,-5.8567,-5.8176,-5.7834,-5.7543,-5.7036,-5.6146,-5.4736,-5.3046,0.0,0.0,0.0,0.0,0.0,0.0,0.0,0.0,0.0,0.0,0.0,0.0,0.0,0.0,0.0,0.0,0.0,0.0,0.0,0.0,0.0,0.0,0.0,0.0,0.0,0.0,0.0,0.0,0.0,0.0,0.0,0.0,-3.558,-3.6557,0.0,0.0,0.0,0.0,0.0,0.0,0.0,0.0,0.0,0.0,0.0,0.0,0.0,-4.8153,-4.9834,-5.0689,-5.2061,-5.3918,-5.3995,-5.4475,-5.5395,-5.6214,-5.6552,-5.6482,-5.6587,0.0,-5.3107,-5.1354,0.0,0.0,0.0,0.0,0.0,0.0,0.0,0.0,0.0,0.0,0.0,0.0,0.0,0.0,0.0,0.0,0.0,0.0,0.0,0.0,0.0,0.0,-5.4946,-5.7323,-5.736,-5.6617,0.0,-5.2085,-4.8296,-4.5955,-4.4712,0.0,0.0,0.0,0.0,0.0,0.0,0.0,-5.6332,-5.8268,-5.9637,-6.0791,-6.0618,-6.0194,-5.9791,-5.9404,-5.8863,-5.7933,-5.6905,-5.5632,-5.3977,-5.1632,0.0,0.0,0.0,0.0,0.0,0.0,0.0,0.0,0.0,0.0,0.0,0.0,0.0,0.0,0.0,0.0,0.0,0.0,0.0,0.0,0.0,0.0,0.0,0.0,0.0,0.0,0.0,0.0,0.0,-3.6249,-3.8589,-3.9953,-3.9809,-3.9061,0.0,0.0,0.0,0.0,0.0,0.0,0.0,0.0,0.0,-4.8269,-5.0671,-5.2562,-5.3746,-5.4514,-5.5769,-5.7426,-5.7345,-5.7742,-5.8504,-5.8856,-5.8911,-5.8769,-5.9043,-5.8435,-5.7101,-5.4611,-5.287,-5.1547,0.0,0.0,0.0,0.0,-4.9332,-5.066,-5.1353,-5.218,0.0,-5.2785,0.0,0.0,0.0,0.0,0.0,0.0,0.0,0.0,0.0,0.0,-6.0221,-6.1781,-6.1856,-6.1596,-6.1596,-5.9552,-5.6432,0.0,-5.0083,-4.8642,-4.7126,0.0,0.0,0.0,0.0,-5.3997,-5.7898,-5.9496,-6.0594,-6.1436,-6.151,-6.1309,-6.0931,-6.0897,-6.0667,-6.0116,-5.9633,-5.884,-5.7736,-5.5529,-5.3253,0.0,0.0,0.0,0.0,0.0,0.0,0.0,0.0,0.0,0.0,0.0,0.0,0.0,0.0,0.0,0.0,0.0,0.0,0.0,0.0,0.0,0.0,0.0,0.0,0.0,0.0,0.0,0.0,-3.9413,-4.1423,-4.3188,-4.3397,-4.29,0.0,0.0,0.0,0.0,0.0,0.0,-4.7012,-4.9795,-5.1784,-5.2569,-5.4779,-5.6252,-5.685,-5.7657,-5.8693,-5.9926,-6.005,-6.0441,-6.0942,-6.1069,-6.1009,-6.073,-6.0646,-6.0421,-5.9955,-5.7111,-5.5852,-5.5473,-5.3399,-5.2855,-5.3365,-5.3527,-5.4409,-5.5583,-5.6519,-5.7338,-5.8084,-5.8266,-5.7264,-5.5771,-5.435,0.0,0.0,0.0,0.0,-5.7918,-5.9552,-6.193,-6.4122,-6.4939,-6.5311,-6.5459,-6.5459,-6.5125,-6.323,0.0,-5.531,-5.382,-5.256,0.0,0.0,0.0,0.0,-5.6868,-5.9908,-6.1251,-6.2041,-6.2421,-6.2462,-6.2373,-6.2025,-6.1972,-6.1883,-6.171,-6.143,-6.1047,-6.0496,-5.8668,-5.6771,-5.4874,0.0,0.0,0.0,0.0,0.0,0.0,0.0,0.0,0.0,0.0,0.0,0.0,0.0,0.0,0.0,0.0,0.0,0.0,0.0,0.0,0.0,0.0,0.0,0.0,0.0,0.0,0.0,0.0,0.0,-4.5898,-4.6089,0.0,0.0,0.0,0.0,-4.8044,-4.9765,-5.145,-5.3053,-5.4768,-5.6054,-5.685,-5.8508,-5.937,-5.9408,-6.0211,-6.0666,-6.0742,-6.1516,-6.1799,-6.1666,-6.2298,-6.2357,-6.2022,-6.1916,-6.177,-6.1314,-5.9058,-5.8041,-5.7788,-5.6851,-5.6478,-5.6481,-5.7305,-5.8013,-5.8825,-6.0427,-6.1544,-6.2364,-6.314,-6.2332,-6.0886,-6.0028,-5.9089,0.0,0.0,-6.0269,-6.1336,-6.2933,-6.4048,-6.4976,-6.5831,-6.6611,-6.7168,-6.7168,-6.7763,-6.6797,0.0,-6.0098,-5.864,-5.6108,0.0,-5.5926,-5.7446,-5.9061,-6.1006,-6.3539,-6.4412,-6.4855,-6.4658,-6.4137,-6.3645,-6.3341,-6.2551,-6.2053,-6.1883,-6.1535,-6.1289,-6.1254,-6.0461,-5.9633,-5.8737,-5.5736,0.0,0.0,0.0,0.0,0.0,0.0,0.0,0.0,0.0,0.0,0.0,0.0,0.0,0.0,0.0,0.0,0.0,0.0,0.0,0.0,0.0,0.0,0.0,0.0,0.0,0.0,0.0,0.0,-4.839,-4.874,0.0,-5.0176,-5.0763,-5.153,-5.2602,-5.4178,-5.5335,-5.5946,-5.7468,-5.8431,-5.8718,-6.0349,-6.1212,-6.1212,-6.195,-6.2323,-6.2273,-6.2448,-6.2424,-6.2277,-6.2292,-6.2208,-6.1957,-6.1808,-6.1612,-6.1371,-6.0556,-6.0222,-6.0222,-5.9923,-5.9811,-5.9921,-6.1266,-6.1852,-6.2252,-6.3891,-6.4629,-6.4874,-6.5225,-6.4935,-6.4345,-6.3649,-6.3121,-6.296,-6.3817,-6.4919,-6.6165,-6.7243,-6.8134,-6.8803,-6.9137,-6.9434,-6.962,-6.962,-7.0289,-7.0029,-6.7243,-6.5477,-6.4012,-6.2466,-6.1698,-6.1408,-6.19,-6.2401,-6.3282,-6.4677,-6.5014,-6.5091,-6.5001,-6.483,-6.4591,-6.4312,-6.3983,-6.3693,-6.352,-6.3203,-6.2952,-6.2952,-6.1636,-6.1013,-6.1254,-5.8254,-5.6556,0.0,0.0,0.0,0.0,0.0,0.0,0.0,0.0,0.0,0.0,0.0,0.0,0.0,0.0,0.0,0.0,0.0,0.0,0.0,0.0,0.0,0.0,0.0,0.0,0.0,-4.4911,-4.7879,-5.1025,-5.16,-5.2378,-5.4077,-5.4711,-5.5463,-5.6474,-5.7533,-5.8237,-5.8491,-5.9759,-6.0465,-6.0465,-6.1766,-6.2512,-6.2488,-6.2913,-6.3104,-6.2995,-6.3092,-6.3023,-6.2796,-6.2856,-6.2749,-6.2516,-6.2432,-6.2375,-6.2464,-6.2464,-6.2693,-6.2966,-6.2109,-6.2146,-6.2742,-6.3823,-6.4376,-6.477,-6.611,-6.6695,-6.6945,-6.73,-6.7374,-6.7347,-6.717,-6.7058,-6.7077,-6.7635,-6.8517,-6.9434,-6.9992,-7.0735,-7.1329,-7.1329,-7.1775,-7.2146,-7.2146,-7.2815,-7.3075,-7.1961,-6.9942,-6.7975,-6.6753,-6.5989,-6.558,-6.572,-6.5705,-6.5999,-6.6806,-6.6863,-6.6699,-6.6443,-6.6178,-6.5826,-6.5356,-6.4994,-6.4706,-6.4393,-6.4317,-6.417,-6.3927,-6.2948,-6.2565,-6.2841,-6.0497,-5.8938,-5.8403,0.0,0.0,0.0,0.0,0.0,0.0,0.0,0.0,0.0,0.0,0.0,0.0,0.0,0.0,0.0,0.0,0.0,0.0,0.0,0.0,0.0,0.0,0.0,-4.5154,-4.807,-5.1136,-5.3666,-5.4614,-5.5773,-5.7483,-5.7624,-5.818,-5.9725,-5.9862,-6.0169,-6.0911,-6.1713,-6.2127,-6.2127,-6.2935,-6.3309,-6.3258,-6.318,-6.3072,-6.2862,-6.348,-6.3596,-6.3239,-6.4029,-6.4203,-6.3817,-6.3854,-6.4212,-6.4865,-6.4865,-6.5348,-6.5868,-6.3453,-6.349,-6.4865,-6.4865,-6.5459,-6.6314,-6.7094,-6.7911,-6.8729,-6.9509,-6.9769,-6.988,-7.066,-7.092,-7.092,-7.0958,-7.0995,-7.0995,-7.1032,-7.1663,-7.2295,-7.2295,-7.3484,-7.4635,-7.4635,-7.5267,-7.5824,-7.5787,-7.3261,-7.0485,-6.8601,-6.8254,-6.8409,-6.8916,-6.8972,0.0,-7.0,-7.011,-6.9816,-6.9009,-6.8299,-6.7463,-6.6305,-6.551,-6.4878,-6.4463,-6.4804,-6.4689,-6.3962,-6.4364,-6.4324,-6.36,-6.2543,-6.0909,-5.8581,0.0,0.0,0.0,0.0,0.0,0.0,0.0,0.0,0.0,0.0,0.0,0.0,0.0,0.0,0.0,0.0,0.0,0.0,0.0,0.0,0.0,-4.7379,-5.0153,-4.8897,-5.1096,-5.3565,-5.5408,-5.6394,-5.7521,-5.9087,-5.9265,-5.9624,-6.0597,-6.1193,-6.1593,-6.1758,-6.2536,-6.2974,-6.2974,-6.377,-6.4142,-6.4063,-6.4441,-6.4496,-6.4267,-6.4251,-6.4105,-6.3869,-6.4524,-6.4769,-6.4711,-6.5254,-6.558,-6.5756,-6.5756,-6.5905,-6.6054,-6.5348,-6.5348,-6.5831,-6.6425,-6.7503,-6.8766,-6.8989,-6.9583,-7.0289,-7.0512,-7.0586,-7.0623,-7.0846,-7.092,-7.1032,-7.1663,-7.2258,-7.2852,-7.341,-7.419,-7.4784,-7.4784,-7.5156,-7.5453,-7.5453,-7.6121,-7.653,-7.5899,-7.5456,-7.4606,-7.2852,-7.2022,-7.1397,-7.0753,-7.0146,0.0,-7.0073,-7.011,-6.9944,-6.9648,-6.9018,-6.811,-6.7043,-6.6297,-6.5476,-6.4672,-6.502,-6.4908,-6.4143,-6.4027,-6.3811,-6.3577,-6.4072,-6.4072,0.0,0.0,0.0,0.0,0.0,0.0,0.0,0.0,0.0,0.0,0.0,0.0,0.0,0.0,0.0,0.0,0.0,0.0,0.0,0.0,0.0,0.0,-5.113,-5.3783,-5.3816,-5.4765,-5.6046,-5.7703,-5.8284,-5.9041,-6.03,-6.0747,-6.1118,-6.1484,-6.2292,-6.269,-6.2598,-6.3383,-6.3858,-6.3858,-6.4629,-6.4972,-6.4862,-6.5429,-6.5589,-6.5309,-6.5349,-6.5257,-6.5047,-6.5359,-6.5485,-6.5477,-6.5914,-6.6314,-6.6611,-6.6611,-6.6797,0.0,0.0,0.0,0.0,0.0,-6.9397,-7.0215,-7.0215,-7.0512,-7.0958,-7.1329,-7.1663,-7.1998,-7.2369,-7.2704,-7.3075,-7.3558,-7.4041,-7.4487,-7.497,-7.5713,-7.6344,-7.6344,-7.6604,-7.6827,-7.6827,-7.7236,-7.7422,-7.6939,-7.7089,0.0,-7.592,-7.4699,-7.3627,-7.2899,-7.2129,-7.1615,-7.1615,-7.1264,-7.082,-7.0339,-6.9636,-6.875,-6.7676,-6.6911,0.0,0.0,0.0,-6.5947,-6.5422,-6.4853,0.0,0.0,0.0,0.0,0.0,0.0,0.0,0.0,-5.9318,-5.9539,0.0,0.0,0.0,0.0,0.0,0.0,0.0,0.0,0.0,0.0,0.0,0.0,0.0,0.0,0.0,0.0,-5.4099,-5.6627,-5.8849,-5.8498,-5.8557,-5.9931,-6.0049,-6.0377,-6.125,-6.1988,-6.2394,-6.2369,-6.3158,-6.3615,-6.3435,0.0,0.0,0.0,0.0,-6.5827,-6.5647,-6.6211,-6.6398,-6.6107,-6.651,-6.6555,-6.6374,-6.6358,-6.6296,-6.6239,-6.6351,-6.6797,-6.7465,-6.754,-6.806,-6.8617,-6.7094,-6.7428,-6.8951,-7.04,-7.0958,-7.1069,-7.1069,0.0,0.0,-7.2221,-7.3001,-7.3781,-7.4524,-7.523,-7.5787,-7.5787,-7.5861,-7.5936,-7.5936,-7.6567,-7.7236,-7.7236,-7.7756,-7.8276,-7.8276,-7.8276,-7.8276,-7.8276,-7.8071,-7.7957,-7.782,-7.6412,-7.5206,-7.5028,-7.4368,-7.3817,-7.3707,-7.2907,-7.1961,-7.0943,0.0,0.0,-6.8235,-6.7482,-6.695,-6.6663,-6.6954,-6.7142,-6.698,-6.629,-6.6305,-6.7128,-6.76,-6.818,-6.8784,-6.9025,-6.8831,-6.813,-6.4891,-6.3835,0.0,0.0,0.0,0.0,0.0,0.0,0.0,0.0,0.0,0.0,0.0,0.0,0.0,0.0,0.0,-5.431,-5.7265,-5.9546,-5.9988,-6.0378,-6.0514,-6.007,-6.0544,-6.1289,-6.2104,-6.2317,-6.2665,-6.3261,-6.4106,-6.4502,-6.4431,-6.5191,-6.5628,-6.5628,-6.6304,-6.6615,-6.6566,-6.7055,-6.7123,-6.6823,0.0,0.0,-6.6284,-6.6854,-6.7057,-6.7094,-6.7763,-6.8134,-6.832,-6.8989,-6.9732,-7.0363,-6.9397,-6.962,-7.0475,-7.0809,-7.1329,-7.1923,-7.1923,-7.2778,-7.3892,-7.4078,-7.4673,-7.5341,-7.5527,-7.5676,0.0,-7.5787,-7.6307,-7.6827,-7.6827,-7.7459,-7.8053,-7.8053,-7.8165,-7.8276,-7.8276,-7.8276,-7.8276,-7.8071,-7.7957,-7.782,-7.7643,-7.6774,-7.6052,-7.5873,-7.5175,-7.4382,-7.364,-7.3106,-7.2362,-7.125,-7.036,-6.9423,-6.8469,-6.7791,-6.7178,-6.6477,-6.6358,-6.6554,-6.6945,-6.629,-6.6512,-6.7857,-6.8941,-7.0045,-7.1273,-7.1814,-7.1843,-7.0994,-6.8388,-6.7232,0.0,0.0,0.0,0.0,0.0,0.0,0.0,0.0,0.0,0.0,0.0,-4.9192,-5.0555,0.0,-5.5747,-5.7022,-5.9023,-6.0518,-6.0885,-6.1596,-6.1707,-6.0763,-6.1324,-6.1949,-6.2356,-6.3207,-6.3845,-6.4209,-6.4955,-6.5411,-6.5341,-6.5716,-6.609,-6.6474,-6.6792,-6.7103,-6.7408,-6.7926,-6.8032,-6.7731,-6.7781,-6.7703,-6.7597,-6.823,-6.8506,-6.858,-6.936,-6.9732,-6.9732,-7.014,-7.1032,-7.2109,-7.1701,-7.1812,-7.2221,-7.2592,-7.3261,-7.4004,-7.4004,-7.4524,-7.5193,-7.5193,-7.575,-7.6456,-7.6456,-7.6716,-7.705,-7.705,-7.7347,-7.7682,-7.7682,-7.7979,-7.8276,-7.8276,-7.8276,-7.8276,-7.8276,-7.8221,-7.8127,-7.8014,-7.7842,-7.7791,-7.8136,-7.7818,-7.7353,-7.679,-7.5996,-7.5214,-7.4591,-7.3416,-7.2315,-7.1524,-7.0344,-6.9421,-6.8744,-6.8299,-6.778,-6.7288,-6.7211,-6.7446,-6.8137,-6.7826,-6.8319,-6.9792,-7.0521,-7.1295,-7.2069,-7.2295,-7.2124,-7.1389,-6.9917,-6.9166,0.0,0.0,0.0,0.0,0.0,0.0,0.0,-4.6171,-4.8958,-5.0532,-5.2375,-5.4136,-5.5534,-5.6666,-5.7804,-5.9218,-6.0113,-6.0948,-6.1703,-6.2335,-6.2471,-6.1857,-6.2296,-6.2704,-6.2897,-6.4174,-6.5043,-6.5157,-6.5672,-6.599,-6.5982,-6.5947,-6.6282,-6.7051,-6.7203,-6.7582,-6.828,-6.8869,-6.9127,-6.9019,-6.9176,-6.9319,-6.9407,-6.9755,-6.9955,-6.9992,-7.0623,-7.1032,-7.118,-7.1329,-7.2258,-7.3632,-7.3781,-7.3967,-7.4153,-7.4635,-7.523,-7.5787,-7.5787,-7.5899,-7.6047,-7.6047,-7.6604,-7.731,-7.731,-7.7793,-7.8276,-7.8276,-7.8276,-7.8276,-7.8276,-7.8276,-7.8276,-7.8276,-7.8276,-7.8351,-7.8443,-7.8387,-7.8311,-7.8401,-7.8205,-7.8283,-7.8885,-7.8872,-7.8552,-7.7708,-7.6924,-7.6188,-7.5571,-7.3856,-7.2391,-7.1694,-7.0554,-6.9687,-6.931,-6.9003,-6.869,-6.8532,-6.8532,-6.8853,-6.9496,-6.953,-7.0198,-7.1515,-7.1862,-7.2099,-7.2399,-7.2038,-7.1478,-7.0825,-7.0497,-7.0215,-4.3369,-4.349,-4.3674,-4.3778,-4.53,-4.7006,0.0,-5.0175,-5.2377,-5.3353,-5.5584,-5.7383,-5.7578,-5.8906,-6.0039,-6.0234,-6.0973,-6.1807,-6.2552,-6.2674,-6.2899,-6.3447,-6.3553,-6.3864,-6.4638,-6.487,-6.5296,-6.5992,-6.6041,-6.6013,-6.599,-6.5933,-6.6282,-6.7051,-6.7779,-6.8503,-6.9251,-6.9813,-7.0378,-7.08,-7.0432,-7.0533,-7.105,-7.0834,-7.0772,-7.0772,-7.0883,-7.1329,-7.2109,-7.2815,-7.3632,-7.4524,-7.523,-7.5973,-7.6567,-7.5899,-7.5713,-7.5787,-7.5787,-7.6307,-7.6939,-7.6939,-7.7496,-7.8165,-7.8165,-7.8202,-7.8276,-7.8276,-7.8276,-7.8276,-7.8276,-7.8276,-7.8276,-7.8276,-7.8276,-7.8443,-7.9072,-7.9163,-7.9268,-7.9731,-7.9756,-7.9731,-7.968,-7.9653,-7.9396,-7.8589,-7.8244,-7.7304,-7.5393,-7.4323,-7.3226,-7.2003,-7.1105,-7.0521,-7.028,-7.0199,-7.0118,-7.0118,-7.0118,-7.0199,-7.0246,-7.043,-7.0982,-7.1812,-7.2046,-7.2359,-7.2671,-7.2124,-7.1389,-7.0549,-7.0714,-7.0394,-4.5858,-4.6317,-4.6921,-4.705,-4.9166,-5.1458,-5.2381,-5.4584,-5.6666,-5.7537,-5.8984,-6.0117,-6.0117,-6.1094,-6.1914,-6.1914,-6.2652,-6.3291,-6.3526,-6.3881,-6.4259,-6.4532,-6.5354,-6.5682,-6.5064,-6.5876,-6.6572,-6.692,-6.7316,-6.7286,-6.6785,-6.7127,-6.7513,-6.7859,-6.8679,-6.9442,-7.0133,-7.0795,-7.1096,-7.1065,-7.1148,-7.1208,-7.1312,-7.1541,-7.1923,-7.2332,-7.2332,-7.2815,-7.3595,-7.393,-7.4858,-7.6084,-7.6419,-7.705,-7.7682,-7.6865,-7.6827,-7.7236,-7.7236,-7.7496,-7.7793,-7.7793,-7.8016,-7.8276,-7.8276,-7.8276,-7.8388,-7.8871,-7.8982,-7.9094,-7.9576,-7.9688,-7.9688,-7.9688,-7.9688,-7.9743,-7.9941,-7.9919,-7.9852,-7.994,-7.9952,-7.9974,-8.0424,-8.0498,-8.0324,-7.9893,-7.8792,-7.7589,-7.6497,-7.4726,-7.2996,-7.1385,-7.0764,-7.0476,-7.0394,-7.0394,-7.0394,-7.0394,-7.0394,-7.0579,-7.1053,-7.1238,-7.1722,-7.2538,-7.3055,-7.315,-7.2862,-7.2688,-7.2161,-7.1313,-7.116,-7.0865,-4.8309,-4.9276,-5.0381,-5.0766,-5.3117,-5.5522,-5.6172,-5.7977,-5.9624,-6.027,-6.1093,-6.1719,-6.1719,-6.2422,-6.3008,-6.3008,-6.3746,-6.4423,-6.4773,-6.5244,-6.5698,-6.6084,-6.7174,-6.7384,-6.6185,-6.7152,-6.7849,-6.7849,-6.8088,-6.8058,-6.7672,-6.7898,-6.8282,-6.8744,-6.936,-7.0151,-7.1083,-7.151,-7.1738,-7.1825,-7.1982,-7.1995,-7.2022,-7.2373,-7.2852,-7.341,-7.3632,-7.4041,-7.4635,-7.5081,-7.5973,-7.7087,-7.731,-7.7793,-7.8202,-7.7645,-7.7793,-7.8276,-7.8276,-7.8276,-7.8276,-7.8276,-7.8276,-7.8313,-7.8536,-7.8611,-7.8796,-7.9576,-7.9837,-7.9948,-8.0542,-8.0691,-8.0691,-8.0691,-8.0634,-8.065,-8.0733,-8.0651,-8.0506,-8.0577,-8.0525,-8.0645,-8.1232,-8.1277,-8.1175,-8.0874,-7.9371,-7.7981,-7.7449,-7.5395,-7.337,-7.1723,-7.1408,-7.1256,-7.105,-7.1015,-7.1097,-7.1097,-7.1097,-7.1421,-7.1987,-7.2441,-7.2927,-7.3402,-7.4038,-7.3999,-7.3174,-7.3114,-7.2534,-7.1623,-7.1486,-7.1313,-5.1493,-5.3352,-5.5024,-5.6012,-5.7616,-5.8928,-5.8983,-5.969,-6.0358,-6.0373,-6.109,-6.1719,-6.1719,-6.2422,-6.3008,-6.3008,-6.3746,-6.4848,-6.641,-6.6528,-6.7058,-6.8605,-6.8761,-6.8738,-6.87,-6.8738,-6.8777,-6.8777,-6.7856,-6.7711,-6.8521,-6.7667,-6.7898,-6.9629,-6.9706,-7.0486,-7.2016,-7.181,-7.2383,-7.3611,-7.3113,-7.3157,-7.374,-7.349,-7.3372,-7.341,-7.419,-7.4561,-7.471,-7.6344,-7.705,-7.7162,-7.7942,-7.8276,-7.8276,-7.8239,-7.8276,-7.8276,-7.8276,-7.8276,-7.8276,-7.8276,-7.8276,-7.8425,-7.9205,-7.9465,-7.9614,-8.0431,-8.0654,-8.0654,-8.0691,-8.0691,-8.0691,-8.0691,-8.0613,-8.0659,-8.1292,-8.1317,-8.135,-8.2031,-8.2113,-8.2113,-8.215,-8.2018,-8.1715,-8.1336,-8.0153,-7.8926,-7.7916,-7.6473,-7.5011,-7.386,-7.3671,-7.3395,-7.2671,-7.2602,-7.2686,-7.2936,-7.2936,-7.2991,-7.3253,-7.4169,-7.4647,-7.4441,-7.4945,-7.4756,-7.3708,-7.3036,-7.2211,-7.1123,-7.1569,-7.1584,-5.1763,-5.3934,-5.5958,-5.6402,-5.824,-5.9948,-5.9959,-6.0627,-6.1252,-6.1256,-6.1499,-6.1707,-6.1718,-6.289,-6.4062,-6.4648,-6.5894,-6.7195,-6.8281,-6.8292,-6.8394,-6.8837,-6.9303,-6.9589,-6.9589,-6.9589,-6.9589,-6.9589,-6.9749,-6.9717,-6.9485,-6.9554,-6.9667,-6.9706,-7.0783,-7.1535,-7.1965,-7.2887,-7.3453,-7.3646,-7.3537,-7.3516,-7.3527,-7.3424,-7.367,-7.419,-7.445,-7.523,-7.627,-7.6865,-7.7385,-7.7905,-7.8165,-7.8276,-7.8276,-7.8276,-7.8276,-7.8276,-7.8276,-7.8276,-7.8276,-7.8276,-7.8276,-7.8425,-7.9242,-7.9502,-7.9762,-8.1174,-8.1545,-8.1694,-8.2214,-8.2267,-8.2149,-8.2149,-8.2029,-8.1957,-8.2091,-8.2065,-8.2049,-8.2215,-8.2186,-8.2186,-8.2186,-8.2361,-8.2284,-8.1722,-7.9792,-7.7944,-7.6729,-7.5847,-7.5188,-7.4568,-7.4533,-7.443,-7.4154,-7.4154,-7.4274,-7.453,-7.4564,-7.4614,-7.4796,-7.5288,-7.5497,-7.5234,-7.5759,-7.5461,-7.4246,-7.3994,-7.3343,-7.2287,-7.2827,-7.2972,-5.2624,-5.4893,-5.6864,-5.7307,-5.915,-6.0851,-6.0861,-6.1291,-6.172,-6.172,-6.1447,-6.1338,-6.1633,-6.285,-6.4219,-6.539,-6.7027,-6.8484,-6.9577,-6.9616,-6.9755,-7.0195,-7.0388,-7.0595,-7.0905,-7.0634,-7.044,-7.044,-7.0599,-7.0566,-7.0334,-7.0439,-7.0514,-7.0591,-7.1629,-7.2419,-7.2847,-7.3767,-7.4029,-7.3775,-7.3804,-7.3814,-7.3818,-7.3818,-7.4264,-7.5044,-7.5341,-7.6084,-7.7087,-7.7385,-7.783,-7.8276,-7.8276,-7.8276,-7.8313,-7.8611,-7.8722,-7.8685,-7.8388,-7.8462,-7.8722,-7.8722,-7.8908,-7.9316,-8.0134,-8.0394,-8.0654,-8.2028,-8.24,-8.2549,-8.3069,-8.3024,-8.2904,-8.2904,-8.2721,-8.2571,-8.2407,-8.2343,-8.2279,-8.2186,-8.2443,-8.2627,-8.2561,-8.264,-8.2499,-8.1835,-8.0058,-7.8328,-7.7089,-7.6678,-7.621,-7.5395,-7.5361,-7.5223,-7.4912,-7.4999,-7.512,-7.5377,-7.5497,-7.5596,-7.5837,-7.6304,-7.6384,-7.6018,-7.6383,-7.5891,-7.4647,-7.4339,-7.3698,-7.2721,-7.3361,-7.3577,-5.408,-5.6188,-5.7907,-5.885,-6.0411,-6.172,-6.172,-6.172,-6.1681,-6.1642,-6.0978,-6.0666,-6.1486,-6.2373,-6.3593,-6.539,-6.7066,-6.8718,-7.0357,-7.0512,-7.1038,-7.2521,-7.1897,-7.1717,-7.2568,-7.191,-7.1446,-7.1446,0.0,-7.0295,-7.1144,-7.0324,-7.0591,-7.2206,-7.2322,-7.3063,-7.4589,-7.4341,-7.4181,-7.416,-7.395,-7.415,-7.4635,-7.4635,-7.5081,-7.5899,-7.6716,-7.7087,-7.7199,-7.7979,-7.8276,-7.8276,-7.8351,-7.8351,-7.8462,-7.9242,-7.9539,-7.9428,-7.8685,-7.8908,-7.9539,-7.9539,-8.0059,-8.084,-8.1731,-8.1991,-8.2177,-8.2957,-8.318,-8.318,-8.318,-8.3024,-8.2904,-8.2904,-8.2659,-8.2407,-8.2407,-8.2316,-8.2186,-8.2186,-8.281,-8.3294,-8.3093,-8.2684,-8.2227,-8.1568,-8.0753,-7.9892,-7.8826,-7.8722,-7.8079,-7.6326,-7.6189,-7.5878,-7.5119,-7.5345,-7.5551,-7.5805,-7.6043,-7.6327,-7.6538,-7.7205,-7.7398,-7.6937,-7.6906,-7.6216,-7.4935,-7.4171,-7.3351,-7.2508,-7.3285,-7.3642,-5.4429,-5.6654,-5.8647,-5.9006,-6.0411,-6.172,-6.172,-6.172,-6.1525,-6.0861,-6.0549,-6.0471,-6.0705,-6.1963,-6.3777,-6.6172,-6.7965,-6.9616,-7.1253,-7.1368,-7.1661,-7.2599,-7.244,-7.2607,-7.3496,-7.338,-7.3226,-7.3226,-7.1719,-7.1183,-7.2032,-7.1749,-7.2052,-7.3129,-7.3745,-7.4226,-7.4535,-7.4635,-7.4809,-7.5098,-7.481,-7.497,-7.549,-7.549,-7.5936,-7.6753,-7.6976,-7.7422,-7.7979,-7.8202,-7.8276,-7.8351,-7.8945,-7.9168,-7.9279,-8.0097,-8.0394,-8.0357,-8.0134,-8.0208,-8.0394,-8.0394,-8.0505,-8.084,-8.1731,-8.1991,-8.2177,-8.2957,-8.318,-8.318,-8.3024,-8.2843,-8.2696,-8.2597,-8.2343,-8.2251,-8.2251,-8.2251,-8.2186,-8.2186,-8.2201,-8.2262,-8.2178,-8.1878,-8.1604,-8.1645,-8.1294,-8.0483,-7.8895,-7.8542,-7.8107,-7.7051,-7.7125,-7.7144,-7.6937,-7.7685,-7.8172,-7.8431,-7.9042,-7.9565,-7.9733,-7.967,-7.9459,-7.9069,-7.822,-7.6995,-7.5406,-7.4625,-7.3632,-7.2541,-7.3771,-7.4322,-5.5203,-5.712,-5.8919,-5.9084,-6.0411,-6.1603,-6.1213,-6.0822,-6.0315,-5.9456,-5.8675,-5.8402,-5.9104,-6.0666,-6.2826,-6.5855,-6.8043,-6.9952,-7.1565,-7.2017,-7.2446,-7.3181,-7.3214,-7.3496,-7.4347,-7.4115,-7.3883,-7.3883,-7.2877,-7.2456,-7.2958,-7.2827,-7.3168,-7.4014,-7.4476,-7.4811,-7.4976,-7.536,-7.5532,-7.5539,-7.5641,-7.5981,-7.6452,-7.6452,-7.6882,-7.7608,0.0,-7.8053,-7.8833,-7.8833,-7.9019,-7.9391,-7.9837,-8.0022,-8.0134,-8.0951,-8.1248,-8.1323,-8.1657,-8.1806,-8.1731,-8.1397,-8.1508,-8.188,-8.2363,-8.2511,-8.2623,-8.3069,-8.3121,-8.3024,-8.2964,-8.2721,-8.2571,-8.2407,-8.2316,-8.2186,-8.2186,-8.2186,-8.2296,-8.2495,-8.2591,-8.2611,-8.2749,-8.2528,-8.2253,-8.2225,-8.1917,-8.1135,-7.9683,-7.9453,-7.9086,-7.8292,-7.8404,-7.8618,-7.8563,-7.9355,-7.9775,-7.9932,-8.0474,-8.0771,-8.0875,-8.0561,-8.0081,-7.9614,-7.8422,-7.7244,-7.59,-7.5069,-7.4235,-7.3447,-7.4548,-7.5099,-5.604,-5.7457,-5.8909,-5.9038,-6.0405,-6.1481,-6.0588,-5.9651,-5.8636,-5.766,-5.6216,-5.5591,-5.7192,-5.8987,-6.1417,-6.5026,-6.765,-6.9809,-7.1555,-7.2419,-7.3168,-7.3918,-7.4027,-7.4386,-7.5198,-7.4657,-7.4231,-7.4231,-7.4113,-7.3999,-7.3884,-7.3752,-7.4053,-7.4861,-7.4832,-7.5165,-7.5786,-7.6197,-7.6306,-7.6073,-7.6554,-7.7005,-7.7452,-7.7452,-7.7808,-7.8313,-7.8388,0.0,-7.9502,-7.9614,-8.0059,-8.0691,-8.084,-8.0877,-8.0988,-8.1843,-8.214,-8.2251,-8.2957,-8.318,-8.3069,-8.2363,-8.2623,-8.318,-8.318,-8.318,-8.318,-8.318,-8.3024,-8.2904,-8.2843,-8.2597,-8.2407,-8.2343,-8.2316,-8.2186,-8.2186,-8.226,-8.2488,-8.2983,-8.3264,-8.3405,-8.3666,-8.3425,-8.3068,-8.2641,-8.2222,-8.1678,-8.0938,-8.0672,-8.0327,-7.9603,-7.9775,-7.9991,-7.9969,-8.0542,-8.0789,-8.0752,-8.1069,-8.1156,-8.1139,-8.0717,-8.0233,-7.9648,-7.8243,-7.7211,-7.6352,-7.5537,-7.4962,-7.4613,-7.5358,-7.5714,-5.6007,-5.7377,-5.8838,-5.8983,-6.0353,-6.147,-6.0588,-5.9183,-5.7582,-5.6059,-5.4927,-5.4537,-5.5552,-5.7699,-6.0714,-6.4912,-6.7143,-6.9139,-7.1485,-7.2429,-7.3168,-7.3918,-7.453,-7.5237,-7.6088,-7.6049,-7.5972,-7.5972,-7.5851,-7.5465,-7.4732,-7.456,-7.4899,-7.5745,-7.5725,-7.6018,-7.6766,-7.6573,-7.6997,-7.7993,-7.7832,-7.7978,-7.8432,-7.8325,-7.8292,-7.8313,-7.8982,0.0,-7.9539,-8.0208,-8.058,-8.0765,-8.1471,-8.1768,-8.1843,-8.2697,-8.2994,-8.2994,-8.3143,-8.318,-8.318,-8.3032,-8.3069,-8.318,-8.318,-8.318,-8.318,-8.2964,-8.2964,-8.2843,-8.2597,-8.2471,-8.2343,-8.2251,-8.2186,-8.2186,-8.2186,-8.2568,-8.2947,-8.2851,-8.3012,-8.2922,-8.2326,-8.1851,-8.1488,-8.1353,-8.1182,-8.139,-8.1782,-8.1263,-8.0697,-7.9935,-8.0225,-8.0491,-8.0491,-8.1279,-8.1839,-8.1874,-8.2471,-8.2734,-8.2591,-8.2105,-8.1387,-8.0624,-7.9297,-7.8098,-7.6901,-7.6071,-7.5196,-7.4613,-7.5358,-7.5714,-5.6111,-5.7373,-5.8803,-5.89,-6.0332,-6.1231,-5.9441,-5.7734,-5.5864,-5.3717,-5.2585,-5.2234,-5.3093,-5.5747,-5.9074,-6.2959,-6.5734,-6.8273,-7.0772,-7.2516,-7.364,-7.3956,-7.5034,-7.5933,-7.6359,-7.6397,-7.6397,-7.635,-7.625,-7.6006,-7.562,-7.5446,-7.5553,-7.5976,-7.5985,-7.631,-7.7022,-7.728,-7.7835,-7.8745,-7.895,-7.9001,-7.9016,-7.8812,-7.8602,-7.8424,-7.9187,0.0,-8.0171,-8.1025,-8.162,-8.2028,-8.2437,-8.2623,-8.266,-8.3032,-8.318,-8.3254,-8.3663,-8.3812,-8.3886,-8.4295,-8.4146,-8.3886,-8.4295,-8.4146,-8.3812,-8.3595,-8.3176,-8.2721,-8.2471,-8.2343,-8.2316,-8.2186,-8.2186,-8.2296,-8.2737,-8.2904,-8.2997,-8.3118,-8.3074,-8.2834,-8.2182,-8.1856,-8.1693,-8.1621,-8.1505,-8.155,-8.2083,-8.1898,-8.1609,-8.1262,-8.1624,-8.1837,-8.1837,-8.2348,-8.2647,-8.2647,-8.3384,-8.3751,-8.348,-8.3276,-8.2589,-8.1698,-8.0058,-7.8767,-7.7675,-7.6762,-7.6103,-7.5747,-7.6103,-7.6265,-5.6152,-5.7327,-5.8791,-5.8888,-6.0153,-6.075,-5.8337,-5.6207,-5.4068,-5.1609,-5.0282,-4.9891,-5.0945,-5.3834,-5.72,-6.085,-6.4135,-6.7195,-6.9889,-7.2166,-7.3678,-7.4014,-7.5288,-7.6227,-7.6382,-7.6421,-7.6374,-7.6301,-7.6225,0.0,-7.6145,-7.6072,-7.6015,-7.6015,-7.6169,-7.6639,-7.7385,-7.8135,-7.8811,-7.9399,-7.9854,-7.9822,-7.9321,-7.9079,-7.8887,-7.8847,-7.9558,0.0,0.0,-8.1938,-8.2681,-8.318,-8.318,-8.318,-8.318,-8.318,-8.3292,-8.3552,-8.4183,-8.4518,-8.474,-8.5372,-8.5149,-8.474,-8.5186,-8.4889,-8.4272,-8.3904,-8.3238,-8.2571,-8.2407,-8.2316,-8.2186,-8.2186,-8.2333,-8.2627,-8.3221,-8.3249,-8.3264,-8.3445,-8.3244,-8.2877,-8.2521,-8.2252,-8.2118,-8.2024,-8.1871,-8.1871,-8.2118,-8.2338,-8.2522,-8.267,-8.2831,-8.2956,-8.2956,-8.3066,-8.3279,-8.3454,-8.4051,-8.4292,-8.4158,-8.3962,-8.3357,-8.2236,-8.0608,-7.9364,-7.8502,-7.7609,-7.7236,-7.7236,-7.7107,-7.701,-5.5923,-5.7301,-5.8722,-5.8853,-5.9689,-5.9981,-5.8214,-5.527,-5.2429,-5.0594,-4.8954,-4.833,-4.993,-5.2429,-5.5602,-5.9834,-6.2773,-6.5668,-6.8933,-7.0849,-7.2492,-7.4006,-7.4829,-7.5636,-7.6411,-7.6421,-7.6374,-7.6301,-7.6172,0.0,-7.6005,-7.6015,-7.6015,-7.6015,-7.6784,-7.7553,-7.8361,-7.9153,-7.9939,-8.0643,-8.0392,-8.0037,-7.9562,-7.9369,-7.9442,-7.9829,-8.0634,0.0,0.0,-8.2966,-8.3223,-8.318,-8.318,-8.318,-8.318,-8.318,-8.3663,-8.4295,-8.4369,-8.4889,-8.5483,-8.5558,-8.5558,-8.5372,-8.4703,-8.4286,-8.3941,-8.3053,-8.2608,-8.2407,-8.2251,-8.2186,-8.2186,-8.2186,-8.2774,-8.3258,-8.316,-8.3808,-8.435,-8.4043,-8.3697,-8.3296,-8.2855,-8.2418,-8.2059,-8.1905,-8.181,-8.1965,-8.2396,-8.25,-8.2627,-8.312,-8.312,-8.312,-8.312,-8.3208,-8.3524,-8.4207,-8.4402,-8.4537,-8.4774,-8.4011,-8.3022,-8.1922,-8.0783,-7.9899,-7.9219,-7.8842,-7.8694,-7.8694,-7.8014,-7.7722,-5.5673,-5.7232,-5.8661,-5.8778,-5.9571,-5.9584,-5.6875,-5.4406,-5.1921,-4.915,-4.8447,-4.8525,-4.9189,-5.1882,-5.49,-5.7647,-6.0703,-6.374,-6.661,-6.9294,-7.1394,-7.2501,-7.4189,-7.5369,-7.5675,-7.6134,-7.635,-7.625,0.0,0.0,-7.6015,-7.6015,-7.6015,-7.6015,-7.6861,-7.7669,-7.8477,-7.9331,-8.0114,-8.086,-8.0685,-8.0392,-7.9996,-8.0226,-8.0321,-8.0305,-8.1499,0.0,0.0,-8.3077,-8.3297,-8.318,-8.318,-8.318,-8.3254,-8.3737,-8.4109,-8.448,-8.4926,-8.5335,-8.5595,-8.5595,-8.5534,-8.5436,-8.5223,-8.4619,-8.4052,-8.3571,-8.294,-8.2343,-8.2251,-8.2186,-8.2333,-8.281,-8.3111,-8.3453,-8.4199,-8.4318,-8.4217,-8.4094,-8.3536,-8.2906,-8.2453,-8.2118,-8.1871,-8.181,-8.181,-8.1999,-8.2408,-8.25,-8.2649,-8.312,-8.3208,-8.312,-8.3066,-8.3011,-8.3236,-8.3878,-8.4367,-8.4774,-8.4931,-8.4588,-8.3869,-8.2728,-8.1302,-8.0313,-7.9769,-7.9231,-7.8888,-7.8888,-7.8596,-7.8467,-5.5209,-5.6791,-5.8225,-5.8319,-5.8748,-5.839,-5.5489,-5.3303,-5.1098,-4.817,-4.7819,-4.8213,-4.872,-5.1219,-5.3959,-5.6236,-5.9255,-6.2303,-6.5102,-6.7968,-7.0208,-7.1496,-7.3622,-7.5022,-7.5193,-7.5918,-7.6301,0.0,0.0,0.0,-7.6015,-7.6015,-7.6015,-7.6015,-7.7092,-7.7938,-7.8477,-7.9631,-8.0446,-8.0959,-8.086,-8.0803,-8.0736,-8.107,-8.1262,-8.1509,-8.2435,0.0,0.0,-8.3378,-8.3433,-8.3239,-8.3239,-8.3388,-8.3626,-8.4183,-8.4555,-8.4852,-8.5409,-8.5595,-8.5497,-8.5237,-8.504,-8.4916,-8.4781,-8.4386,-8.3903,-8.3519,-8.2913,-8.2353,-8.248,-8.2553,-8.2774,-8.3581,-8.371,-8.3979,-8.4791,-8.4484,-8.4023,-8.3945,-8.3227,-8.2453,-8.2118,-8.1965,-8.181,-8.181,-8.1845,-8.2069,-8.2442,-8.2592,-8.274,-8.312,-8.3365,-8.3256,-8.2956,-8.3075,-8.3311,-8.3915,-8.4586,-8.5063,-8.5298,-8.4932,-8.4251,-8.3154,-8.1787,-8.0866,-8.028,-7.9762,-7.9536,-7.9536,-7.9309,-7.9082,-5.4264,-5.5865,-5.7362,-5.7489,-5.6963,-5.6008,-5.4305,-5.196,-4.964,-4.7845,-4.6878,-4.6846,-4.8564,-5.0282,-5.255,-5.6025,-5.8745,-6.1601,-6.5039,-6.6965,-6.8951,-7.1497,-7.3184,-7.4421,-7.5216,-7.5847,-7.6172,0.0,0.0,0.0,-7.6015,-7.6015,-7.6015,-7.6015,-7.763,-7.8477,-7.8477,-8.0208,-8.1093,-8.1093,-8.0959,-8.121,-8.1762,-8.169,-8.2413,0.0,0.0,0.0,0.0,-8.405,-8.3767,-8.3413,-8.3413,-8.3781,-8.4369,-8.4406,-8.4889,-8.5595,-8.5595,-8.5473,-8.5238,-8.4386,-8.4003,-8.3767,-8.2954,-8.3161,-8.3512,-8.2665,-8.2316,-8.237,-8.3177,-8.3398,-8.3618,-8.4389,-8.4886,-8.5117,-8.468,-8.4334,-8.3968,-8.3576,-8.2726,-8.2118,-8.2118,-8.1965,-8.181,-8.181,-8.1948,-8.2138,-8.2522,-8.2753,-8.3005,-8.3155,-8.3655,-8.3682,-8.297,-8.3311,-8.3915,-8.475,-8.5194,-8.5565,-8.5753,-8.4717,-8.3674,-8.2817,-8.1934,-8.1349,-8.1025,-8.1025,-8.0993,-8.0993,-8.028,-7.9568,-5.3069,-5.4554,-5.5531,-5.5645,-5.5592,-5.4938,-5.2645,-5.1057,-4.9445,-4.7142,-4.6956,-4.7549,-4.8681,-5.0761,-5.2836,-5.4541,-5.7964,-6.0976,-6.2652,-6.5853,-6.8709,-7.0664,-7.3285,-7.5175,-7.5895,0.0,0.0,0.0,0.0,0.0,-7.6015,-7.6015,-7.6284,-7.6861,-7.7938,-7.8784,-7.9361,-8.0516,-8.1093,-8.1093,-8.1061,-8.142,-8.2088,-8.2559,-8.3257,0.0,0.0,0.0,0.0,-8.4205,-8.3945,-8.3657,-8.3433,-8.3839,-8.4562,-8.5061,-8.5372,-8.5595,-8.551,-8.504,-8.4349,-8.3448,-8.3003,-8.2802,-8.2544,-8.2655,-8.2886,-8.3051,-8.303,-8.3214,-8.4022,-8.4242,-8.4358,-8.5097,-8.5007,-8.4825,-8.5026,-8.4324,-8.3576,-8.3138,-8.2544,-8.2024,-8.1871,-8.1871,-8.181,-8.181,-8.1999,-8.2187,-8.2488,-8.3193,-8.3725,-8.3961,-8.4297,-8.4252,-8.345,-8.3797,-8.437,-8.4777,-8.472,-8.466,-8.4679,-8.3708,-8.293,-8.2248,-8.1467,-8.1144,-8.1025,-8.1025,-8.1025,-8.1025,-8.0799,-8.0572,-5.0394,-5.2241,-5.3271,-5.3352,-5.3236,-5.265,-5.075,-4.9718,-4.8577,-4.667,-4.6991,-4.7861,-4.872,-5.0962,-5.3081,-5.4296,-5.7811,-6.0923,-6.2452,-6.6034,-6.944,-7.2029,-7.4052,-7.5515,0.0,-7.6198,0.0,0.0,0.0,0.0,-7.6015,-7.6322,-7.6861,-7.7707,-7.8246,-7.89,-7.9785,-8.0669,-8.1093,-8.1093,-8.14,-8.1946,-8.2759,-8.3538,-8.4279,0.0,0.0,0.0,0.0,-8.4647,-8.4306,-8.4035,-8.4049,-8.4459,-8.5105,-8.5781,-8.5831,-8.5473,-8.5349,-8.4484,-8.3386,-8.2781,-8.2508,-8.2353,-8.2647,-8.2757,-8.2867,-8.3251,-8.3618,-8.4058,-8.4829,-8.4982,-8.5097,-8.5694,-8.5299,-8.4804,-8.4916,-8.4003,-8.3138,-8.2726,-8.2303,-8.1965,-8.181,-8.181,-8.181,-8.181,-8.237,-8.2731,-8.2905,-8.3878,-8.4586,-8.4677,-8.4972,-8.5028,-8.4318,-8.4578,-8.4771,-8.4758,-8.4592,-8.4415,-8.4035,-8.3154,-8.2395,-8.1818,-8.1263,-8.1025,-8.1025,-8.1025,-8.1025,-8.1025,-8.1025,-8.1025,0.0,-4.9041,-5.0626,-5.0719,-5.0261,-4.9586,-4.8708,-4.7983,0.0,-4.6304,-4.6908,-4.7861,-4.8724,-5.0964,-5.3281,-5.5005,-5.8231,-6.1368,-6.3925,-6.7342,-7.1031,-7.4924,-7.5249,-7.5461,-7.6121,0.0,0.0,0.0,0.0,0.0,-7.6015,-7.6823,-7.7669,-7.8477,-7.8554,-7.9015,-7.99,-8.0708,-8.1093,-8.1093,-8.19,-8.2747,-8.3632,-8.4516,-8.533,0.0,0.0,0.0,0.0,-8.5181,-8.4787,-8.4481,-8.4845,-8.5339,-8.585,-8.64,-8.609,-8.5386,-8.516,-8.3898,-8.2407,-8.2407,-8.2353,-8.2406,-8.3177,-8.3398,-8.3434,-8.3544,-8.4132,-8.4866,-8.5673,-8.5756,-8.5694,-8.6247,-8.5725,-8.5024,-8.4585,-8.3576,-8.2726,-8.2579,-8.2152,-8.181,-8.181,-8.181,-8.181,-8.1879,-8.2889,-8.3658,-8.3612,-8.4716,-8.5426,-8.5298,-8.5645,-8.5907,-8.5617,-8.5358,-8.516,-8.4861,-8.4864,-8.4573,-8.3708,-8.285,-8.205,-8.1499,-8.1144,-8.1025,-8.1025,-8.1025,-8.1025,-8.1025,-8.1025,-8.1025,-4.1886,0.0,-4.7928,-4.7995,-4.8463,-4.8515,0.0,-4.7171,-4.7084,-4.5572,-4.6522,-4.7861,-4.872,-5.0962,-5.3281,-5.5005,-5.8733,-6.2045,-6.3964,-6.8747,-7.2857,-7.5002,-7.5747,-7.6118,-7.6198,0.0,0.0,0.0,0.0,-7.6015,-7.6015,-7.6823,-7.7669,-7.8477,-7.9131,-7.99,-8.0785,-8.1016,-8.1093,-8.1093,-8.19,-8.2747,-8.3632,-8.4516,-8.5363,0.0,0.0,0.0,-8.5704,-8.5352,-8.5013,-8.4722,-8.5056,-8.5396,-8.585,-8.64,-8.6027,-8.516,-8.5005,-8.3871,-8.2407,-8.2316,-8.259,-8.3177,-8.3361,-8.3398,-8.3654,-8.4903,-8.538,-8.571,-8.6518,-8.6563,-8.6388,-8.6211,-8.5536,-8.4747,-8.4373,-8.335,-8.2579,-8.2488,-8.2152,-8.181,-8.181,-8.181,-8.1956,-8.2549,-8.3106,-8.3573,-8.4093,-8.5107,-8.575,-8.575,-8.6255,-8.6512,-8.6414,-8.6252,-8.5852,-8.5344,-8.4717,-8.3926,-8.3042,-8.2165,-8.1467,-8.1144,-8.1025,-8.1025,-8.1025,-8.1025,-8.1025,-8.1025,-8.1025,-8.1025,-4.0293,-4.2908,-4.5423,-4.5854,-4.6713,-4.7115,-4.5889,-4.6287,-4.6587,-4.5265,-4.6683,-4.8411,-4.9283,-5.187,-5.4453,-5.6192,-6.008,-6.4111,-6.7743,-7.1248,-7.4031,-7.5619,-7.6103,-7.6276,0.0,0.0,0.0,0.0,0.0,-7.6015,-7.6015,-7.7169,-7.8054,-7.8477,-7.9746,-8.0631,-8.1093,-8.1093,-8.1093,-8.1093,-8.2324,-8.3131,-8.3632,-8.4863,-8.5709,0.0,0.0,0.0,-8.5923,-8.5552,-8.5228,-8.4954,-8.5484,-8.5732,-8.585,-8.6212,-8.577,-8.4931,-8.4404,-8.3382,-8.2316,-8.2251,-8.2737,-8.3471,-8.3838,-8.4205,-8.4682,-8.5527,-8.6077,-8.6444,-8.6885,-8.6786,-8.6465,-8.6026,-8.5303,-8.4585,-8.4123,-8.3262,-8.2453,-8.2509,-8.2118,-8.181,-8.181,-8.2086,-8.2404,-8.2887,-8.3701,-8.4481,-8.4924,-8.5811,-8.6359,-8.6262,-8.6547,-8.6691,-8.6494,-8.6294,-8.589,-8.5273,-8.4359,-8.3487,-8.2623,-8.1934,-8.1511,-8.1511,-8.1187,-8.1187,-8.1511,-8.1187,-8.1025,-8.1025,-8.1025,-8.1025,-4.0048,-4.1904,-4.3555,-4.4572,-4.5687,-4.6271,-4.5482,-4.6025,-4.644,-4.5581,-4.7424,-4.9472,-5.035,-5.3437,-5.644,-5.818,-6.2239,-6.6956,-7.2249,-7.3717,-7.4829,-7.6273,-7.6301,0.0,0.0,0.0,0.0,0.0,0.0,-7.6015,-7.6015,-7.7592,-7.8477,-7.8477,-8.0169,-8.1093,-8.1093,-8.1093,-8.117,-8.1285,-8.2862,-8.367,-8.3862,-8.5401,-8.6094,-8.6094,0.0,0.0,-8.606,-8.5704,-8.5352,-8.517,-8.5921,-8.605,-8.579,-8.602,-8.5574,-8.4698,-8.361,-8.2774,-8.2223,-8.2333,-8.292,-8.3728,-8.4535,-8.5343,-8.5967,-8.5967,-8.6481,-8.6995,-8.6995,-8.6715,-8.6247,-8.5876,-8.5067,-8.4338,-8.3869,-8.3085,-8.2544,-8.244,-8.2187,-8.2017,-8.1983,-8.2542,-8.3093,-8.3197,-8.4564,-8.5624,-8.5658,-8.6408,-8.6887,-8.6691,-8.6691,-8.6593,-8.6294,-8.5992,-8.5549,-8.4995,-8.4143,-8.3154,-8.2165,-8.1701,-8.1588,-8.2094,-8.1414,-8.1382,-8.2126,-8.1382,-8.1025,-8.1025,-8.1025,-8.109,-3.9265,-4.1568,-4.3847,-4.5481,-4.7103,-4.8078,-4.7279,-4.7762,-4.8201,-4.7389,-4.9228,-5.1274,-5.2147,-5.5692,-5.907,-6.0776,-6.5711,-7.0183,-7.2496,-7.4092,-7.5343,-7.6234,0.0,0.0,0.0,0.0,0.0,0.0,0.0,0.0,-7.6015,-7.7592,-7.8477,-7.8477,-8.0169,-8.1093,-8.1093,-8.1093,-8.1439,-8.2131,-8.3131,-8.3978,-8.4747,-8.567,-8.6094,-8.6094,0.0,-8.6094,-8.606,-8.5779,-8.5433,-8.517,-8.6026,-8.605,-8.5571,-8.5955,-8.5508,-8.4455,-8.2884,-8.2296,-8.2296,-8.2994,-8.3765,-8.4572,-8.538,-8.6187,-8.6811,-8.6811,-8.6921,-8.6995,-8.6995,-8.6715,-8.6247,-8.5648,-8.4988,-8.4255,-8.3437,-8.2871,-8.2474,-8.2176,-8.2492,-8.2721,-8.2714,-8.3369,-8.4029,-8.4751,-8.5057,-8.5432,-8.6152,-8.6325,-8.6394,-8.6394,-8.6394,-8.6294,-8.6294,-8.5788,-8.5273,-8.4679,-8.3817,-8.2704,-8.1263,-8.1144,-8.1382,-8.2094,-8.1414,-8.1382,-8.2126,-8.1382,-8.1025,-8.1025,-8.1025,-8.1349,-3.9876,-4.2595,-4.5482,-4.7717,-4.8854,-4.9373,-4.8972,-4.9957,-5.0668,-4.9813,-5.1701,-5.3902,-5.5194,-5.8222,-6.1804,-6.5777,-6.8994,-7.173,-7.3897,-7.477,-7.5476,0.0,0.0,0.0,0.0,0.0,0.0,0.0,0.0,0.0,-7.6015,-7.7592,-7.8477,-7.8477,-8.0169,-8.1093,-8.1093,-8.1093,-8.1516,-8.2324,-8.317,-8.4055,-8.4939,-8.5747,-8.6094,-8.6094,0.0,-8.6065,-8.5992,-8.5552,-8.5495,-8.5637,-8.5913,-8.6021,-8.5942,-8.5492,-8.4455,-8.3214,-8.2443,-8.2186,-8.2333,-8.3141,-8.3948,-8.4756,-8.5563,-8.6371,-8.6995,-8.6995,-8.6995,-8.6995,-8.6995,-8.6679,-8.6283,-8.5661,-8.4996,-8.4278,-8.3399,-8.282,-8.2557,-8.2731,-8.2803,-8.3059,-8.3472,-8.4161,-8.4747,-8.516,-8.5604,-8.5915,-8.626,-8.6294,-8.6294,-8.6294,-8.6294,-8.6294,-8.6294,-8.5788,-8.4924,-8.3708,-8.2963,-8.2165,-8.1025,-8.1025,-8.1543,-8.2677,-8.1608,-8.1576,-8.2677,-8.1576,-8.1025,-8.1025,-8.1025,-8.1414,-4.057,-4.3422,-4.6532,-4.9167,-5.0421,-5.1123,-5.1518,-5.2815,-5.3799,-5.3292,-5.4952,-5.6953,-5.8435,-6.113,-6.49,-7.0212,-7.1675,-7.2902,-7.5042,-7.5387,-7.5662,-7.6224,0.0,0.0,0.0,0.0,0.0,0.0,0.0,0.0,0.0,0.0,-7.8592,-7.8784,-8.0285,-8.1093,-8.1093,-8.1093,-8.1593,-8.2593,-8.3285,-8.417,-8.5209,-8.5824,-8.6094,-8.606,-8.6031,-8.5996,-8.589,-8.5352,-8.5424,-8.5885,-8.5732,-8.5868,-8.5909,-8.4742,-8.3434,-8.2186,-8.2186,-8.2333,-8.2627,-8.3434,-8.4242,-8.5013,-8.582,-8.6518,-8.6995,-8.6995,-8.6995,-8.6995,-8.6995,-8.6712,-8.6246,-8.5555,-8.4888,-8.4158,-8.3238,-8.289,-8.2813,-8.3157,-8.3321,-8.361,-8.4196,-8.4885,-8.5466,-8.5466,-8.5949,-8.6294,-8.6294,-8.6294,-8.6294,-8.6294,-8.6294,-8.6194,-8.6093,-8.5583,-8.45,-8.293,-8.2313,-8.1734,-8.1025,-8.1025,-8.1641,-8.2904,-8.1673,-8.1673,-8.2936,-8.1641,-8.1025,-8.1025,-8.122,-8.1673,-4.0747,-4.3017,-4.5699,-4.8274,-5.1318,-5.4133,-5.5747,-5.6844,-5.7703,-5.8406,-5.9331,-6.031,-6.1154,-6.4684,-6.8631,-7.2174,-7.3353,-7.4169,-7.5077,0.0,0.0,0.0,0.0,0.0,0.0,0.0,0.0,0.0,0.0,0.0,0.0,0.0,-7.8861,-7.9669,-8.0592,-8.1093,-8.1093,-8.1093,-8.19,-8.3516,-8.3555,-8.4439,-8.6017,-8.6055,-8.6099,-8.5996,-8.5996,-8.589,-8.5705,-8.527,-8.5296,-8.5562,-8.5676,-8.5349,-8.4639,-8.3801,-8.2957,-8.2186,-8.2186,-8.27,-8.3471,-8.4242,-8.5049,-8.5857,-8.6664,-8.6958,-8.6995,-8.6995,-8.6995,-8.6995,-8.6995,-8.6712,-8.6174,-8.5332,-8.4672,-8.3887,-8.277,-8.2949,-8.3192,-8.2949,-8.4029,-8.5026,-8.5121,-8.5742,-8.6225,-8.6225,-8.626,-8.6294,-8.6294,-8.6294,-8.6294,-8.6294,-8.6294,-8.6093,-8.5618,-8.4679,-8.3817,-8.2817,-8.2313,-8.1734,-8.1025,-8.1025,-8.1382,-8.2159,-8.1414,-8.1414,-8.2191,-8.1414,-8.1025,-8.1058,-8.1705,-8.2418,-4.2265,-4.4597,-4.735,-5.0434,-5.344,-5.5938,-5.7079,-5.8875,-6.0679,-6.2065,-6.3047,-6.3863,-6.4677,-6.6966,-6.9617,-7.2423,-7.3509,-7.4459,-7.583,0.0,0.0,0.0,0.0,0.0,0.0,0.0,0.0,0.0,0.0,0.0,0.0,0.0,0.0,-7.9785,-8.0669,-8.1093,-8.1093,-8.1093,-8.1939,-8.3593,-8.3593,-8.4478,-8.6094,-8.6065,-8.6031,-8.5996,-8.589,-8.5704,-8.5551,-8.5013,-8.5307,-8.6079,-8.5966,-8.541,-8.4499,-8.3728,-8.2884,-8.2186,-8.2186,-8.2737,-8.3544,-8.4352,-8.5123,-8.593,-8.6775,-8.6995,-8.6995,-8.6995,-8.6995,-8.6995,-8.6995,-8.6673,-8.6169,-8.5337,-8.4657,-8.4001,-8.3355,-8.3235,-8.3478,-8.4196,-8.485,-8.5333,-8.5811,-8.6122,-8.6294,-8.6294,-8.6294,-8.6294,-8.6294,-8.6294,-8.6294,-8.6294,-8.6194,-8.5788,-8.5239,-8.4359,-8.3487,-8.2623,-8.205,-8.1499,-8.1025,-8.1025,-8.1382,-8.2094,-8.1414,-8.1382,-8.2126,-8.1382,-8.1252,-8.1705,-8.1997,-8.2742,-4.3295,-4.562,-4.8369,-5.1492,-5.4463,-5.704,-5.864,-6.1049,-6.3435,-6.5137,-6.6184,-6.7029,-6.7812,-6.8822,-7.0381,-7.2857,-7.3645,-7.4576,0.0,0.0,0.0,0.0,0.0,0.0,0.0,0.0,0.0,0.0,0.0,0.0,0.0,0.0,0.0,0.0,-8.0785,-8.1093,-8.1093,-8.1093,-8.1939,-8.3561,-8.3561,-8.4445,-8.6099,-8.5996,-8.5926,-8.589,-8.5704,-8.5511,-8.5308,-8.4787,-8.5146,-8.603,-8.5752,-8.522,-8.4462,-8.3434,-8.2663,-8.2223,-8.248,-8.3104,-8.3911,-8.4719,-8.5527,-8.6261,-8.6848,-8.6995,-8.6995,-8.6995,-8.6995,-8.6995,-8.6925,-8.6603,-8.6132,-8.5336,-8.4523,-8.3935,-8.3655,-8.3547,-8.3804,-8.4958,-8.5401,-8.5708,-8.6225,-8.6294,-8.6294,-8.6294,-8.6294,-8.6294,-8.6294,-8.6294,-8.6294,-8.6294,-8.6093,-8.5652,-8.4995,-8.4143,-8.3265,-8.2395,-8.1701,-8.1263,-8.1025,-8.1025,-8.1252,-8.177,-8.1284,-8.1284,-8.177,-8.1284,-8.1414,-8.2126,-8.2353,-8.3065,-4.349,-4.566,-4.8252,-5.0832,-5.4072,-5.7547,-6.0948,-6.3767,-6.6107,-6.7782,-6.8772,-6.9526,-7.0239,-7.0406,-7.1186,-7.3607,-7.4014,-7.4555,0.0,0.0,0.0,0.0,0.0,0.0,0.0,0.0,0.0,0.0,0.0,0.0,0.0,0.0,0.0,0.0,-8.1093,-8.1093,-8.1093,-8.1093,-8.1869,-8.3384,-8.3423,-8.4306,-8.5996,-8.5852,-8.5779,-8.5705,-8.5551,-8.5308,-8.4961,-8.4551,-8.4721,-8.5249,-8.4772,-8.4609,-8.4425,-8.2774,-8.2186,-8.2333,-8.3141,-8.3948,-8.4719,-8.5527,-8.6334,-8.6995,-8.6995,-8.6995,-8.6995,-8.6995,-8.6995,-8.6925,-8.6749,-8.6428,-8.5919,-8.5228,-8.4278,-8.3508,-8.359,-8.3796,-8.4235,-8.5095,-8.5815,-8.6294,-8.6294,-8.6294,-8.6294,-8.6294,-8.6294,-8.6294,-8.6294,-8.6294,-8.6294,-8.6294,-8.6093,-8.5652,-8.4995,-8.3926,-8.3075,-8.2395,-8.1499,-8.1025,-8.1025,-8.1025,-8.1025,-8.1025,-8.1025,-8.1025,-8.1025,-8.1025,-8.1414,-8.2126,-8.2871,-8.3551,-4.6704,-4.9181,-5.1964,-5.5166,-5.8105,-6.0923,-6.3802,-6.5502,-6.7138,-6.9379,-7.0032,-7.0032,-6.9643,-7.047,-7.1659,-7.2947,-7.4111,0.0,0.0,0.0,0.0,0.0,0.0,0.0,0.0,0.0,0.0,0.0,0.0,0.0,0.0,0.0,0.0,0.0,-8.1093,-8.1093,-8.1093,-8.0991,-8.1497,-8.2578,-8.3016,-8.4169,-8.5852,-8.5742,-8.5667,-8.5551,-8.5469,-8.5181,-8.4722,-8.5037,-8.5075,-8.4968,-8.4706,-8.4609,-8.4425,-8.2774,-8.2186,-8.2333,-8.3141,-8.3948,-8.4719,-8.5527,-8.6334,-8.6995,-8.6995,-8.6995,-8.6995,-8.6995,-8.6995,-8.6995,-8.6779,-8.6211,-8.554,-8.5021,-8.4547,-8.4259,-8.4426,-8.4609,-8.5061,-8.5815,-8.6191,-8.6294,-8.6294,-8.6294,-8.6294,-8.6294,-8.6294,-8.6294,-8.6294,-8.6294,-8.6294,-8.6294,-8.589,-8.5239,-8.4466,-8.3487,-8.259,-8.1818,-8.1263,-8.1025,-8.1025,-8.1025,-8.1025,-8.1025,-8.1025,-8.1025,-8.1025,-8.1543,-8.2159,-8.2871,-8.3584,-8.4296,-4.8504,-5.1488,-5.4541,-5.8016,-6.1073,-6.4018,-6.6901,-6.8004,-6.8861,-7.0687,-7.0966,-7.0759,-7.0226,-7.0907,-7.1914,-7.3064,0.0,0.0,0.0,0.0,0.0,0.0,0.0,0.0,0.0,0.0,0.0,0.0,0.0,0.0,0.0,0.0,0.0,0.0,-8.1093,-8.1061,-8.0991,-8.0959,-8.1316,-8.2092,-8.2868,-8.3868,-8.5207,-8.5475,-8.5551,-8.5431,-8.5094,-8.4647,-8.4266,-8.4695,-8.4643,-8.4322,-8.4198,-8.4132,-8.3985,-8.2663,-8.2186,-8.237,-8.3508,-8.4205,-8.4792,-8.5894,-8.6591,-8.6995,-8.6995,-8.6995,-8.6995,-8.6995,-8.6995,-8.6925,-8.6673,-8.6027,-8.5405,-8.5141,-8.4757,-8.4454,-8.4972,-8.5121,-8.5367,-8.5811,-8.6087,-8.6225,-8.5915,-8.6122,-8.6294,-8.6294,-8.6294,-8.6294,-8.6294,-8.6294,-8.6294,-8.6294,-8.5788,-8.5168,-8.4143,-8.3265,-8.2362,-8.1584,-8.1144,-8.1025,-8.1025,-8.1025,-8.1025,-8.1025,-8.1025,-8.1025,-8.1025,-8.177,-8.2483,-8.3195,-8.3875,-8.4588,-4.9484,-5.301,-5.6497,-5.9983,-6.35,-6.6875,-7.0006,-7.0715,-7.0887,-7.1544,-7.1641,-7.1559,-7.152,-7.162,-7.2207,0.0,0.0,0.0,0.0,0.0,0.0,0.0,0.0,0.0,0.0,0.0,0.0,0.0,0.0,0.0,0.0,0.0,0.0,-8.1054,-8.1093,-8.0991,-8.0888,-8.0888,-8.1172,-8.1801,-8.2719,-8.3525,-8.4212,-8.5091,-8.5431,-8.5304,-8.4503,-8.3945,-8.3583,-8.3793,-8.3751,-8.3558,-8.3464,-8.3398,-8.3324,-8.248,-8.2186,-8.2443,-8.4058,-8.4609,-8.4866,-8.6481,-8.6995,-8.6995,-8.6995,-8.6995,-8.6995,-8.6995,-8.6995,-8.6925,-8.6498,-8.5951,-8.5499,-8.5549,-8.4775,-8.4356,-8.5259,-8.5367,-8.5294,-8.5294,-8.5846,-8.6087,-8.5432,-8.5846,-8.6294,-8.6294,-8.6294,-8.6294,-8.6294,-8.6294,-8.6294,-8.6294,-8.5788,-8.5168,-8.4143,-8.3265,-8.2395,-8.1467,-8.1144,-8.1025,-8.1025,-8.1025,-8.1025,-8.1025,-8.1025,-8.1058,-8.1122,-8.1867,-8.258,-8.3292,-8.4005,-8.4652,-5.2038,-5.5712,-5.9361,-6.3469,-6.7063,-6.9965,-7.1303,-7.1529,-7.1497,-7.1606,-7.1606,-7.1559,-7.1511,-7.254,0.0,0.0,0.0,0.0,0.0,0.0,0.0,0.0,0.0,0.0,0.0,0.0,0.0,0.0,0.0,0.0,0.0,0.0,0.0,-8.1054,-8.0991,-8.0959,-8.0888,-8.0754,-8.0726,0.0,-8.2339,-8.3142,-8.3333,-8.4824,-8.527,-8.4878,-8.4205,-8.362,-8.3239,-8.3508,-8.3558,-8.3464,-8.3398,-8.3398,-8.3324,-8.248,-8.2186,-8.2443,-8.4058,-8.4609,-8.4866,-8.6481,-8.6995,-8.6995,-8.6995,-8.6995,-8.6995,-8.6995,-8.6995,-8.6925,-8.6498,-8.5767,-8.5195,-8.5075,-8.4914,-8.5012,-8.5416,-8.5772,-8.6053,-8.6053,-8.6191,-8.626,-8.6087,-8.6191,-8.6294,-8.6294,-8.6294,-8.6294,-8.6294,-8.6294,-8.6294,-8.6294,-8.5788,-8.5063,-8.3926,-8.3154,-8.228,-8.1144,-8.1025,-8.1025,-8.1025,-8.1025,-8.1025,-8.1025,-8.1025,-8.1317,-8.1867,-8.2612,-8.3325,-8.4005,-8.4717,-8.5138,-5.1974,-5.5921,-5.9995,-6.595,-6.9053,-7.0863,-7.168,-7.1777,-7.1659,-7.1568,-7.1532,-7.1494,-7.1435,0.0,0.0,0.0,0.0,0.0,0.0,0.0,0.0,0.0,0.0,0.0,0.0,0.0,0.0,0.0,0.0,0.0,0.0,-7.9708,-8.06,-8.0991,-8.0959,-8.0855,-8.0754,-8.065,-8.0578,-8.058,-8.1843,-8.2798,-8.3561,-8.4698,-8.5013,-8.4599,-8.3854,-8.3338,-8.3024,-8.2913,-8.2876,-8.2847,-8.2847,-8.2847,-8.2774,-8.2333,-8.2186,-8.2443,-8.4058,-8.4609,-8.4866,-8.6481,-8.6995,-8.6995,-8.6995,-8.6995,-8.6995,-8.6995,-8.6995,-8.6925,-8.6465,-8.5721,-8.5095,-8.4898,-8.4656,-8.45,-8.5277,-8.56,-8.5777,-8.5777,-8.6053,-8.6191,-8.5846,-8.6087,-8.6294,-8.6294,-8.6294,-8.6294,-8.6294,-8.6294,-8.6294,-8.6294,-8.5788,-8.5063,-8.3817,-8.3154,-8.228,-8.1025,-8.1025,-8.1025,-8.1025,-8.1025,-8.1025,-8.1025,-8.1025,-8.1382,-8.2126,-8.2839,-8.3551,-8.4231,-8.4944,-8.5268,-5.0691,-5.5657,-6.082,-6.7519,-7.0018,-7.1027,-7.1689,-7.1758,-7.1675,-7.1532,-7.1454,-7.139,0.0,0.0,0.0,0.0,0.0,0.0,0.0,0.0,0.0,0.0,0.0,0.0,0.0,0.0,0.0,0.0,0.0,0.0,-7.8707,-8.0246,-8.1061,-8.0888,-8.0888,-8.0788,-8.0614,-8.0614,-8.0542,-8.0506,-8.15,-8.2605,-8.3818,-8.4442,-8.4542,-8.4268,-8.3583,-8.3106,-8.2782,-8.238,-8.2186,-8.2186,-8.2186,-8.2186,-8.2186,-8.2186,-8.2186,-8.2443,-8.4058,-8.4609,-8.4866,-8.6481,-8.6995,-8.6995,-8.6995,-8.6995,-8.6995,-8.6995,-8.6995,-8.6892,-8.6538,-8.5747,-8.5049,-8.4733,-8.4086,-8.3786,-8.4909,-8.519,-8.5225,-8.5363,-8.588,-8.6122,-8.5501,-8.5915,-8.6294,-8.6294,-8.6294,-8.6294,-8.6294,-8.6294,-8.6294,-8.6194,-8.5686,-8.4924,-8.3708,-8.3042,-8.228,-8.1025,-8.1025,-8.1025,-8.1025,-8.1025,-8.109,-8.122,-8.109,-8.1446,-8.2288,-8.2904,-8.3616,-8.4393,-8.5009,-8.53,-4.9235,-5.7376,-6.5195,-6.7734,-7.01,-7.1819,-7.1862,-7.1827,-7.1771,-7.1606,-7.155,0.0,0.0,0.0,0.0,0.0,0.0,0.0,0.0,0.0,0.0,0.0,0.0,0.0,0.0,0.0,0.0,0.0,0.0,0.0,-7.9592,-8.0554,-8.1061,-8.0888,-8.086,-8.072,-8.0614,-8.0542,-8.0506,-8.0506,-8.2034,-8.2752,-8.2732,-8.3209,-8.3639,-8.3922,-8.3527,-8.2987,-8.2471,-8.2251,-8.2186,-8.2186,-8.2186,-8.2186,-8.2186,-8.2186,-8.2186,-8.2443,-8.4058,-8.4609,-8.4866,-8.6481,-8.6995,-8.6995,-8.6995,-8.6995,-8.6995,-8.6995,-8.6995,-8.6925,-8.6501,-8.5725,-8.4944,-8.4109,-8.3314,-8.316,-8.4806,-8.519,-8.5397,-8.6018,-8.6225,-8.626,-8.6191,-8.6225,-8.6294,-8.6294,-8.6294,-8.6294,-8.6294,-8.6294,-8.6194,-8.5992,-8.5446,-8.4573,-8.3487,-8.285,-8.205,-8.1025,-8.1025,-8.1025,-8.1025,-8.1025,-8.1317,-8.1964,-8.1349,-8.1705,-8.3033,-8.313,-8.3875,-8.5138,-8.5235,-8.5174,-4.8993,-5.6985,-6.3945,-6.6172,-6.9021,-7.1239,-7.1182,-7.1519,-7.1827,-7.1693,0.0,0.0,0.0,0.0,0.0,0.0,0.0,0.0,0.0,0.0,0.0,0.0,0.0,0.0,0.0,0.0,0.0,0.0,0.0,-7.8861,-7.9746,-8.0631,-8.1029,-8.086,-8.0826,-8.0723,-8.0542,-8.0543,-8.0468,-8.0469,-8.1651,-8.1984,-8.1596,-8.2114,-8.2598,-8.2981,-8.2573,-8.2399,-8.2407,-8.2251,-8.2186,-8.2186,-8.2186,-8.2186,-8.2186,-8.2186,-8.2186,-8.237,-8.3544,-8.3948,-8.4132,-8.5275,-8.5646,-8.5683,-8.5642,-8.5935,-8.6339,-8.6334,-8.6664,-8.6925,-8.6501,-8.5764,-8.4836,-8.3968,-8.3138,-8.2778,-8.3701,-8.4259,-8.488,-8.6087,-8.6294,-8.6294,-8.6294,-8.6294,-8.6294,-8.6294,-8.6294,-8.6294,-8.6294,-8.6294,-8.6194,-8.589,-8.5343,-8.4573,-8.3377,-8.2737,-8.1934,-8.1025,-8.1025,-8.1025,-8.1025,-8.1414,-8.177,-8.2094,-8.1802,-8.2321,-8.3746,-8.3746,-8.4296,-8.53,-8.5174,-8.4795,-4.8096,-5.4989,-6.0741,-6.3554,-6.7031,-6.9843,-7.0191,-7.0952,-7.1618,0.0,0.0,0.0,0.0,0.0,0.0,0.0,0.0,0.0,0.0,0.0,0.0,0.0,0.0,0.0,0.0,0.0,0.0,0.0,0.0,-7.8977,-8.0092,-8.0746,-8.1029,-8.0792,-8.0792,-8.0688,-8.0506,-8.0506,-8.0468,-8.0392,-8.1191,-8.1132,-8.0499,-8.1231,-8.1612,-8.1754,-8.1689,-8.1883,-8.2343,-8.2251,-8.2186,-8.2186,-8.2186,-8.2186,-8.2186,-8.2186,-8.2186,-8.2333,-8.3141,-8.3368,-8.3514,-8.4321,-8.4584,-8.462,-8.4609,-8.4982,-8.5568,-8.571,-8.6224,-8.6669,-8.6428,-8.5764,-8.4836,-8.3968,-8.3138,-8.2639,-8.3079,-8.3776,-8.4708,-8.6053,-8.6294,-8.6294,-8.6294,-8.6294,-8.6294,-8.6294,-8.6294,-8.6294,-8.6294,-8.6294,-8.6194,-8.5788,-8.5239,-8.4466,-8.3265,-8.2623,-8.1967,-8.1025,-8.122,-8.1317,-8.1317,-8.1997,-8.245,-8.2644,-8.2644,-8.3163,-8.4199,-8.4199,-8.4588,-8.5268,-8.4922,-8.454,-4.5558,-5.0988,-5.6426,-5.9843,-6.3906,-6.75,-6.9101,-7.0156,-7.0974,0.0,0.0,0.0,0.0,0.0,0.0,0.0,0.0,0.0,0.0,0.0,0.0,0.0,0.0,0.0,0.0,0.0,0.0,0.0,0.0,-7.9246,-8.0939,-8.1093,-8.1029,-8.0792,-8.0792,-8.0688,-8.0506,-8.0506,-8.0468,-8.0392,-8.1029,-8.0612,-7.9349,-8.0563,-8.0861,-8.0332,-8.1071,-8.1697,-8.2186,-8.2186,-8.2186,-8.2186,-8.2186,-8.2186,-8.2186,-8.2186,-8.2186,-8.2333,-8.3074,-8.3368,-8.3544,-8.4345,-8.4602,-8.4602,-8.4566,-8.4639,-8.4829,-8.5563,-8.582,-8.5972,-8.6282,-8.5764,-8.4836,-8.3968,-8.3138,-8.2813,-8.3735,-8.457,-8.5363,-8.6156,-8.6294,-8.6294,-8.6294,-8.6294,-8.6294,-8.6294,-8.6294,-8.6294,-8.6294,-8.6294,-8.6093,-8.5618,-8.5029,-8.4143,-8.293,-8.228,-8.1734,-8.1025,-8.1673,-8.2062,-8.2062,-8.2742,-8.3422,-8.4069,-8.4102,-8.4134,-8.4199,-8.4199,-8.4588,-8.5268,-8.4922,-8.4379,-4.2864,-4.7432,-5.2163,-5.6117,-6.0387,-6.414,-6.6445,-6.8476,-7.0116,0.0,0.0,0.0,0.0,0.0,0.0,0.0,0.0,0.0,0.0,0.0,0.0,0.0,0.0,0.0,0.0,0.0,0.0,0.0,0.0,0.0,-8.1054,-8.0991,-8.0926,-8.0792,-8.0723,-8.0614,-8.0506,-8.0431,-8.0314,-8.0154,-8.0168,-7.9726,-7.8878,-7.9684,-8.0056,-8.0112,-8.0798,-8.1581,-8.2186,-8.2186,-8.2186,-8.2186,-8.2186,-8.2186,-8.2186,-8.2186,-8.2186,-8.2223,-8.2553,-8.2627,-8.27,-8.2957,-8.3096,-8.3096,-8.3096,-8.3801,-8.4651,-8.4939,-8.5747,-8.6559,-8.6428,-8.5764,-8.4756,-8.3314,-8.2488,-8.2241,-8.3087,-8.3914,-8.4535,-8.4777,-8.4846,-8.4984,-8.5501,-8.519,-8.5156,-8.6156,-8.5915,-8.5777,-8.626,-8.6294,-8.6093,-8.5618,-8.4924,-8.4143,-8.293,-8.228,-8.193,-8.1705,-8.1964,-8.2321,-8.2774,-8.3454,-8.394,-8.4199,-8.4652,-8.4911,-8.4911,-8.4911,-8.4916,-8.4922,-8.4667,-8.3863,-4.0678,-4.427,-4.8138,-5.2156,-5.6395,-6.0312,-6.3203,-6.6055,-6.8515,0.0,0.0,0.0,0.0,0.0,0.0,0.0,0.0,0.0,0.0,0.0,0.0,0.0,0.0,0.0,0.0,0.0,0.0,0.0,0.0,0.0,-8.0991,-8.0959,-8.0822,-8.0758,-8.0614,-8.0542,-8.0506,-8.043,-8.0235,-7.9992,-7.9652,-7.9188,-7.8655,-7.9354,-7.9764,-7.9963,-8.1002,-8.1709,-8.2186,-8.2186,-8.2186,-8.2186,-8.2186,-8.2186,-8.2186,-8.2186,-8.2186,-8.2186,-8.2186,-8.2186,-8.2186,-8.2186,-8.2186,-8.2186,-8.2186,-8.3177,-8.4248,-8.4535,-8.5563,-8.6595,-8.6428,-8.55,-8.4267,-8.2816,-8.2152,-8.1948,-8.2431,-8.3121,-8.3707,-8.3949,-8.4018,-8.419,-8.4708,-8.4363,-8.4466,-8.5742,-8.5501,-8.5466,-8.6225,-8.6294,-8.6093,-8.5618,-8.4924,-8.4244,-8.3295,-8.2642,-8.2387,-8.2418,-8.2677,-8.3033,-8.3519,-8.4199,-8.4555,-8.4555,-8.5041,-8.53,-8.5174,-8.5174,-8.5048,-8.4827,-8.4154,-8.2912,0.0,0.0,0.0,-4.7943,-5.2016,-5.6087,-5.9492,-6.3008,-6.625,0.0,0.0,0.0,0.0,0.0,0.0,0.0,0.0,0.0,0.0,0.0,0.0,0.0,0.0,0.0,0.0,0.0,0.0,0.0,0.0,-8.0138,-8.0855,-8.0888,-8.0788,-8.0614,-8.0505,-8.0506,-8.0506,-8.0431,-8.0235,-7.9992,-7.9471,-7.8904,-7.8495,-7.9623,-8.0076,-7.991,-8.1489,-8.2186,-8.2186,-8.2186,-8.2186,-8.2186,-8.2186,-8.2186,-8.2186,-8.2186,-8.2186,-8.2186,-8.2186,-8.2186,-8.2186,-8.2186,-8.2186,-8.2186,-8.2223,-8.281,-8.3618,-8.4425,-8.5196,-8.5935,-8.6282,-8.5111,-8.3576,-8.2726,-8.2152,-8.181,-8.181,-8.2362,-8.3087,-8.3811,-8.3949,-8.3949,-8.3983,-8.3983,-8.4259,-8.5087,-8.519,-8.5466,-8.6225,-8.6294,-8.6093,-8.5618,-8.4958,-8.448,-8.3991,-8.3366,-8.3138,-8.3163,-8.3843,-8.4199,-8.4231,-8.4911,-8.5268,-8.5268,-8.5268,-8.5174,-8.4795,-8.4795,-8.4795,-8.4667,-8.3602,-8.1535,-3.8414,0.0,0.0,0.0,0.0,0.0,-5.6874,0.0,0.0,0.0,0.0,0.0,0.0,0.0,0.0,0.0,0.0,0.0,0.0,0.0,0.0,0.0,0.0,0.0,0.0,0.0,0.0,0.0,-8.0246,-8.0785,-8.0876,-8.0778,-8.0643,-8.0505,-8.0506,-8.0506,-8.0506,-8.0316,-8.0083,-7.969,-7.9139,-7.8932,-7.9018,-7.9741,-8.0283,-8.0718,-8.1746,-8.2186,-8.2186,-8.2186,-8.2186,-8.2186,-8.2186,-8.2186,-8.2186,-8.2186,-8.2186,-8.2186,-8.2186,-8.2186,-8.2186,-8.2186,-8.2186,-8.2296,-8.2884,-8.3654,-8.4462,-8.5233,-8.604,-8.6493,-8.5692,-8.4595,-8.3576,-8.2726,-8.2152,-8.181,-8.181,-8.1948,-8.2155,-8.2362,-8.2431,-8.2569,-8.3121,-8.3225,-8.3673,-8.5018,-8.519,-8.5466,-8.6225,-8.6294,-8.6093,-8.5618,-8.5187,-8.4689,-8.391,-8.3592,-8.3495,-8.3875,-8.4102,-8.4426,-8.4944,-8.517,-8.5268,-8.5268,-8.5268,-8.5174,-8.4795,-8.4795,-8.454,-8.4025,-8.2078,-7.995,-3.9078,-4.072,-4.2399,-4.4633,0.0,0.0,-5.3749,0.0,0.0,0.0,0.0,0.0,0.0,0.0,0.0,0.0,0.0,0.0,0.0,0.0,0.0,0.0,0.0,0.0,0.0,0.0,0.0,-7.9715,-8.0631,-8.1023,-8.0882,-8.0677,-8.054,-8.0506,-8.0506,-8.0506,-8.0431,-8.0239,-7.9923,-7.9538,-7.8891,-7.8677,-7.8701,-7.9191,-7.9827,-8.0507,-8.1342,-8.1893,-8.2186,-8.2186,-8.2186,-8.2186,-8.2186,-8.2186,-8.2186,-8.2186,-8.2186,-8.2186,-8.2186,-8.2186,-8.2186,-8.2186,-8.2186,-8.2333,-8.3177,-8.3985,-8.4756,-8.5563,-8.6233,-8.6465,-8.5423,-8.4431,-8.3576,-8.2726,-8.2152,-8.181,-8.181,-8.181,-8.181,-8.181,-8.181,-8.2052,-8.2776,-8.2914,-8.3431,-8.4984,-8.519,-8.5466,-8.6225,-8.6194,-8.5993,-8.582,-8.5344,-8.4935,-8.4656,-8.4293,-8.4276,-8.462,-8.4652,-8.4847,-8.5268,-8.5268,-8.5268,-8.5268,-8.5174,-8.4922,-8.4411,-8.454,-8.4025,-8.2811,-8.0848,-7.8986,-4.0756,-4.1459,-4.1894,-4.3468,-4.5809,0.0,-5.0742,0.0,0.0,0.0,0.0,0.0,0.0,0.0,0.0,0.0,0.0,0.0,0.0,0.0,0.0,0.0,0.0,0.0,0.0,-7.8169,-7.89,-7.9862,-8.0631,-8.0997,-8.0758,-8.0616,-8.0506,-8.0506,-8.0506,-8.0468,-8.0392,-8.0152,-7.9789,-7.9343,-7.8729,-7.8288,-7.809,-7.8431,-7.9077,-7.9957,-8.0654,-8.1452,-8.2186,-8.2186,-8.2186,-8.2186,-8.2186,-8.2186,-8.2186,-8.2186,-8.2186,-8.2186,-8.2186,-8.2186,-8.2186,-8.2186,-8.226,-8.248,-8.3287,-8.4095,-8.4903,-8.571,-8.613,-8.6174,-8.5345,-8.4467,-8.3576,-8.2726,-8.2152,-8.181,-8.181,-8.181,-8.181,-8.181,-8.1879,-8.2121,-8.2811,-8.3052,-8.3638,-8.4984,-8.5259,-8.557,-8.6225,-8.6162,-8.6063,-8.6049,-8.5389,-8.5131,-8.5525,-8.5,-8.4868,-8.5235,-8.5268,-8.5268,-8.5268,-8.5268,-8.5268,-8.53,-8.4922,-8.4411,-8.3765,-8.4025,-8.3208,-8.1461,-7.987,-7.844,-4.306,-4.3687,-4.4315,-4.4669,-4.6713,0.0,-5.0156,-5.3633,0.0,0.0,0.0,0.0,0.0,0.0,0.0,0.0,0.0,0.0,0.0,0.0,0.0,0.0,0.0,0.0,0.0,-7.8823,-7.9131,-8.0746,-8.0844,-8.0788,-8.0656,-8.0581,-8.0506,-8.0506,-8.0506,-8.0469,-8.0388,-8.0163,-7.9708,-7.9089,-7.861,-7.8496,-7.8684,-7.8639,-7.9396,-8.0755,-8.0947,-8.1461,-8.2186,-8.2186,-8.2186,-8.2186,-8.2186,-8.2186,-8.2186,-8.2186,-8.2186,-8.2186,-8.2186,-8.2186,-8.2186,-8.2186,-8.2627,-8.3324,-8.4132,-8.4939,-8.571,-8.6554,-8.6498,-8.6026,-8.5267,-8.4385,-8.3402,-8.267,-8.2152,-8.181,-8.181,-8.181,-8.181,-8.181,-8.2293,-8.2742,-8.288,-8.3949,-8.4846,-8.5156,-8.5708,-8.6156,-8.6294,-8.6644,-8.6507,-8.5763,-8.5963,-8.5882,-8.5265,-8.5213,-8.5263,-8.5268,-8.5268,-8.5268,-8.5268,-8.5268,-8.5174,-8.4922,-8.4283,-8.3765,-8.3372,-8.3108,-8.241,-8.1017,-7.9557,-7.7974,-4.6136,-4.6267,-4.62,-4.5768,-4.695,0.0,0.0,-5.0898,-5.3242,-5.4961,0.0,0.0,0.0,0.0,0.0,0.0,0.0,0.0,0.0,0.0,0.0,0.0,0.0,0.0,0.0,0.0,-7.8438,-7.9646,-8.001,-7.9915,-7.9356,-7.9702,-7.9895,-7.9895,-7.9857,-7.9934,-8.019,-7.9879,-7.9413,-7.8858,-7.8369,-7.819,-7.8162,-7.8002,-7.8846,-8.0414,-8.0388,-8.1085,-8.2186,-8.2186,-8.2186,-8.2186,-8.2186,-8.2186,-8.2186,-8.2186,-8.2186,-8.2186,-8.2186,-8.2186,-8.2186,-8.2186,-8.2737,-8.3581,-8.4352,-8.5453,-8.6481,-8.6746,-8.6465,-8.5915,-8.5111,-8.4219,-8.3314,-8.267,-8.2152,-8.181,-8.181,-8.181,-8.1914,-8.2293,-8.2949,-8.3466,-8.3466,-8.4432,-8.5328,-8.5708,-8.6053,-8.6332,-8.6609,-8.6577,-8.653,-8.6374,-8.6096,-8.5908,-8.5458,-8.5323,-8.5268,-8.5268,-8.5268,-8.5268,-8.5268,-8.5174,-8.4795,-8.4283,-8.3765,-8.3372,-8.2975,-8.2276,-8.1461,-8.0462,-7.8843,-7.7417,-4.9371,-4.8727,-4.7727,-4.7183,-4.746,-4.7812,0.0,0.0,0.0,0.0,0.0,0.0,0.0,0.0,0.0,0.0,0.0,0.0,0.0,0.0,0.0,0.0,0.0,0.0,0.0,0.0,-7.7447,-7.7854,-7.8755,-7.8846,-7.7861,-7.8746,-7.9283,-7.9283,-7.9171,-7.9399,-7.9992,-7.9562,-7.9102,-7.8648,-7.8183,-7.7836,-7.7524,-7.7378,-7.8222,-7.98,-7.9827,-8.0745,-8.2186,-8.2186,-8.2186,-8.2186,-8.2186,-8.2186,-8.2186,-8.2186,-8.2186,-8.2186,-8.2186,-8.2186,-8.2186,-8.2186,-8.2847,-8.3838,-8.4792,-8.5967,-8.6925,-8.6786,-8.632,-8.5764,-8.4988,-8.4052,-8.3227,-8.2544,-8.2152,-8.181,-8.181,-8.1914,-8.219,-8.2776,-8.3638,-8.4259,-8.4259,-8.488,-8.5604,-8.6225,-8.6432,-8.6642,-8.6955,-8.6707,-8.6602,-8.6888,-8.6229,-8.5724,-8.5734,-8.5425,-8.5268,-8.5268,-8.5268,-8.53,-8.5174,-8.4795,-8.4283,-8.3765,-8.3372,-8.2811,-8.2441,-8.1323,-8.0492,-7.9759,-7.8149,-7.6853,-5.2234,-5.0555,-4.8926,-4.9608,-4.9258,-4.8555,-4.7773,0.0,-4.9883,-4.9297,0.0,0.0,-5.1818,0.0,0.0,0.0,0.0,0.0,0.0,0.0,0.0,0.0,0.0,0.0,0.0,0.0,0.0,-7.607,-7.7533,-7.7969,-7.6912,-7.8404,-7.9283,-7.9283,-7.9171,-7.9399,-7.9992,-7.9517,-7.8954,-7.8437,-7.8014,-7.7643,-7.7341,-7.7341,-7.8196,-7.981,-7.981,-8.069,-8.2186,-8.2186,-8.2186,-8.2186,-8.2186,-8.2186,-8.2186,-8.2186,-8.2186,-8.2186,-8.2186,-8.2186,-8.2186,-8.2186,-8.3214,-8.4756,-8.6297,-8.6885,-8.6925,-8.6786,-8.6174,-8.5417,-8.4747,-8.3748,-8.2726,-8.2303,-8.1965,-8.181,-8.181,-8.2328,-8.2811,-8.288,-8.4087,-8.5052,-8.5052,-8.5673,-8.6191,-8.6294,-8.688,-8.7227,-8.7023,-8.7663,-8.7753,-8.6645,-8.6574,-8.6282,-8.5393,-8.5268,-8.5268,-8.5268,-8.5268,-8.5174,-8.4922,-8.4283,-8.3765,-8.324,-8.2975,-8.2307,-8.1354,-8.0462,-7.9759,-7.9302,-7.7711,-7.6375,-5.5543,-5.3448,-5.1196,-5.155,-4.988,-4.8047,-4.7695,-4.7383,-4.7383,-4.8008,0.0,0.0,0.0,0.0,0.0,0.0,-5.2621,0.0,0.0,0.0,0.0,0.0,0.0,0.0,0.0,0.0,0.0,0.0,0.0,-7.6552,-7.5997,-7.8099,-7.9283,-7.9209,-7.898,-7.9119,-7.9652,-7.9139,-7.8686,-7.8146,-7.7842,-7.7524,-7.7341,-7.7818,-7.8699,-7.98,-8.0277,-8.1122,-8.2186,-8.2186,-8.2186,-8.2186,-8.2186,-8.2186,-8.2186,-8.2186,-8.2186,-8.2186,-8.2186,-8.2186,-8.2333,-8.3287,-8.4352,-8.5527,-8.6664,-8.6995,-8.6925,-8.6465,-8.5951,-8.5339,-8.4373,-8.3489,-8.2831,-8.28,-8.2622,-8.2569,-8.2983,-8.3328,-8.3707,-8.4156,-8.4777,-8.5328,-8.5777,-8.6087,-8.6294,-8.6294,-8.6949,-8.7366,-8.7433,-8.7607,-8.7644,-8.6928,-8.6426,-8.589,-8.5393,-8.5268,-8.5268,-8.5268,-8.5174,-8.4795,-8.454,-8.3895,-8.324,-8.2975,-8.241,-8.1734,-8.1079,-8.0072,-7.9046,-7.8004,-7.6824,-7.5801,-5.8705,-5.6376,-5.3776,-5.3773,-5.1011,-4.8203,-4.7695,-4.6601,-4.6016,-4.7031,-4.7608,0.0,0.0,0.0,-4.8806,-4.8821,0.0,-5.1035,0.0,-5.2771,0.0,0.0,0.0,0.0,0.0,0.0,0.0,0.0,0.0,0.0,-7.5119,-7.7793,-7.9246,-7.9095,-7.8861,-7.8912,-7.934,-7.884,-7.8404,-7.7957,-7.7643,-7.7463,-7.7341,-7.8222,-7.9055,-7.9827,-8.0672,-8.1415,-8.2186,-8.2186,-8.2186,-8.2186,-8.2186,-8.2186,-8.2186,-8.2186,-8.2186,-8.2186,-8.2186,-8.2333,-8.2774,-8.4168,-8.5123,-8.593,-8.6775,-8.6925,-8.6786,-8.6247,-8.5725,-8.5067,-8.4039,-8.3262,-8.2753,-8.3122,-8.301,-8.3121,-8.3845,-8.419,-8.4501,-8.5087,-8.5363,-8.5673,-8.6225,-8.6294,-8.6363,-8.657,-8.7158,-8.7676,-8.7834,-8.7786,-8.741,-8.7157,-8.6258,-8.5675,-8.53,-8.5268,-8.5268,-8.5268,-8.4922,-8.454,-8.4283,-8.3503,-8.2975,-8.2575,-8.187,-8.1323,-8.0771,-7.9647,-7.8325,-7.6853,-7.6103,-7.5374,-6.1568,-5.907,-5.6465,-5.6483,-5.3281,-4.9687,-4.7969,-4.7578,-4.7305,-4.6484,-4.7686,-4.8873,-4.8873,-4.8825,-4.8806,-4.8821,-4.8747,0.0,0.0,0.0,0.0,0.0,0.0,0.0,0.0,0.0,0.0,0.0,0.0,0.0,-7.424,-7.7449,-7.9246,-7.9095,-7.8861,-7.8869,-7.9198,-7.87,-7.8202,-7.7783,-7.7426,-7.7341,-7.7341,-7.8222,-7.9029,-7.9837,-8.0645,-8.1452,-8.2186,-8.2186,-8.2186,-8.2186,-8.2186,-8.2186,-8.2186,-8.2186,-8.2186,-8.2186,-8.2186,-8.27,-8.3508,-8.4352,-8.5123,-8.593,-8.6775,-8.6856,-8.6608,-8.6247,-8.5459,-8.463,-8.3748,-8.2996,-8.2604,-8.2803,-8.2914,-8.3121,-8.3845,-8.4604,-8.5156,-8.519,-8.5777,-8.626,-8.6294,-8.6294,-8.6536,-8.726,-8.7814,-8.8152,-8.8368,-8.8194,-8.7746,-8.6831,-8.6169,-8.5675,-8.53,-8.5268,-8.5268,-8.5268,-8.4667,-8.4283,-8.4283,-8.324,-8.2575,-8.2172,-8.187,-8.1017,-7.99,-7.8759,-7.7593,-7.6404,-7.5953,-7.5221,0.0,0.0,-5.9117,-5.91,-5.5039,-5.0976,-5.0976,-4.9687,-4.8671,-4.9517,-5.0608,-5.1428,-5.1414,-5.0928,-5.0121,-4.895,-4.8117,-4.7544,0.0,-4.7279,0.0,0.0,0.0,0.0,0.0,0.0,0.0,0.0,0.0,0.0,0.0,-7.8252,-8.0011,-7.9856,-7.9453,-7.9169,-7.8954,-7.8383,-7.8014,-7.7643,-7.7402,-7.7598,-7.8185,-7.9029,-7.9837,-8.0645,-8.1452,-8.1929,-8.2186,-8.2186,-8.2186,-8.2186,-8.2186,-8.2186,-8.2186,-8.2186,-8.2186,-8.226,-8.281,-8.3544,-8.4352,-8.5123,-8.593,-8.6628,-8.6921,-8.6856,-8.6536,-8.5876,-8.5147,-8.4385,-8.3314,-8.3019,-8.3088,-8.3563,-8.4052,-8.4639,-8.5363,-8.5742,-8.5949,-8.5949,-8.6122,-8.6467,-8.6949,-8.7053,-8.7122,-8.7363,-8.7848,-8.808,-8.8041,-8.7888,-8.7393,-8.6502,-8.589,-8.5425,-8.53,-8.5268,-8.5174,-8.4922,-8.454,-8.4154,-8.4025,-8.2975,-8.2307,-8.2172,-8.1323,-8.0492,-7.9505,-7.8325,-7.715,-7.5953,-7.4944,-7.4209,-6.6979,-6.4906,0.0,-6.1952,-5.7969,0.0,-5.4101,-5.2576,-5.1552,-5.2971,-5.3682,-5.4083,-5.4108,-5.3113,-5.1596,-4.952,-4.8321,-4.7211,0.0,-4.6639,0.0,0.0,0.0,0.0,0.0,0.0,0.0,0.0,0.0,0.0,0.0,0.0,-7.9972,-7.9738,-7.9632,-7.9293,-7.8752,-7.8257,-7.7842,-7.7463,-7.7402,-7.7781,-7.8626,-7.9433,-8.0241,-8.1048,-8.1856,-8.2186,-8.2186,-8.2186,-8.2186,-8.2186,-8.2186,-8.2186,-8.2186,-8.2186,-8.2186,-8.2333,-8.3141,-8.3948,-8.4719,-8.5527,-8.6334,-8.6995,-8.6995,-8.6786,-8.6465,-8.5725,-8.4988,-8.4242,-8.34,-8.3288,-8.3478,-8.4288,-8.4811,-8.5397,-8.6156,-8.6294,-8.6294,-8.6294,-8.6294,-8.6536,-8.7294,-8.7331,-8.7401,-8.7951,-8.812,-8.8136,-8.8003,-8.7561,-8.6951,-8.6169,-8.5675,-8.5268,-8.5268,-8.5268,-8.5174,-8.4795,-8.454,-8.4025,-8.3634,-8.2709,-8.2172,-8.2037,-8.1048,-8.0212,-7.9363,-7.8033,-7.6736,-7.5484,-7.4174,-7.3619]}]]